Wetterdaten: Donnerstag, 11.04.2019
Datum Zeit Temp. A. Feuchte A. Luftdruck Regen Wind Richtung Richtung Sonnenschein ET UV Solar Taupunkt Windchill Windböen
11.04.2019 00:00 6,5 °C 95 % 1010,3 hPa 0,0 mm 1,0 km/h (0 Bft) O 79 ° 0 min 0,000 mm 0,0 UV-I 0 W/m² 5,8 °C 6,5 °C 3,2 km/h (1 Bft)
11.04.2019 00:01 6,5 °C 95 % 1010,3 hPa 0,0 mm 1,4 km/h (1 Bft) NO 51 ° 0 min 0,000 mm 0,0 UV-I 0 W/m² 5,8 °C 6,5 °C 3,2 km/h (1 Bft)
11.04.2019 00:02 6,5 °C 95 % 1010,3 hPa 0,0 mm 1,5 km/h (1 Bft) O 94 ° 0 min 0,000 mm 0,0 UV-I 0 W/m² 5,8 °C 6,5 °C 4,8 km/h (1 Bft)
11.04.2019 00:03 6,5 °C 95 % 1010,3 hPa 0,0 mm 5,9 km/h (2 Bft) O-NO 69 ° 0 min 0,000 mm 0,0 UV-I 0 W/m² 5,8 °C 5,5 °C 12,9 km/h (3 Bft)
11.04.2019 00:04 6,4 °C 95 % 1010,3 hPa 0,0 mm 4,3 km/h (1 Bft) NO 55 ° 0 min 0,000 mm 0,0 UV-I 0 W/m² 5,7 °C 6,4 °C 8,0 km/h (2 Bft)
11.04.2019 00:05 6,4 °C 95 % 1010,3 hPa 0,0 mm 0,1 km/h (0 Bft) NO 52 ° 0 min 0,000 mm 0,0 UV-I 0 W/m² 5,7 °C 6,4 °C 3,2 km/h (1 Bft)
11.04.2019 00:06 6,4 °C 95 % 1010,3 hPa 0,0 mm 1,6 km/h (1 Bft) NO 52 ° 0 min 0,000 mm 0,0 UV-I 0 W/m² 5,7 °C 6,4 °C 4,8 km/h (1 Bft)
11.04.2019 00:07 6,4 °C 95 % 1010,3 hPa 0,0 mm 3,9 km/h (1 Bft) O-NO 65 ° 0 min 0,000 mm 0,0 UV-I 0 W/m² 5,7 °C 6,4 °C 11,3 km/h (2 Bft)
11.04.2019 00:08 6,4 °C 95 % 1010,3 hPa 0,0 mm 5,9 km/h (2 Bft) NO 42 ° 0 min 0,000 mm 0,0 UV-I 0 W/m² 5,7 °C 5,4 °C 8,0 km/h (2 Bft)
11.04.2019 00:09 6,4 °C 95 % 1010,2 hPa 0,0 mm 4,0 km/h (1 Bft) NO 39 ° 0 min 0,000 mm 0,0 UV-I 0 W/m² 5,7 °C 6,4 °C 9,7 km/h (2 Bft)
11.04.2019 00:10 6,4 °C 95 % 1010,2 hPa 0,0 mm 0,3 km/h (0 Bft) NO 49 ° 0 min 0,000 mm 0,0 UV-I 0 W/m² 5,7 °C 6,4 °C 3,2 km/h (1 Bft)
11.04.2019 00:11 6,4 °C 95 % 1010,3 hPa 0,0 mm 6,4 km/h (2 Bft) NO 48 ° 0 min 0,000 mm 0,0 UV-I 0 W/m² 5,7 °C 5,2 °C 9,7 km/h (2 Bft)
11.04.2019 00:12 6,4 °C 95 % 1010,3 hPa 0,0 mm 3,5 km/h (1 Bft) O-NO 58 ° 0 min 0,000 mm 0,0 UV-I 0 W/m² 5,7 °C 6,4 °C 9,7 km/h (2 Bft)
11.04.2019 00:13 6,4 °C 95 % 1010,3 hPa 0,0 mm 5,7 km/h (1 Bft) O-NO 74 ° 0 min 0,000 mm 0,0 UV-I 0 W/m² 5,7 °C 5,4 °C 8,0 km/h (2 Bft)
11.04.2019 00:14 6,4 °C 95 % 1010,3 hPa 0,0 mm 4,7 km/h (1 Bft) O 82 ° 0 min 0,000 mm 0,0 UV-I 0 W/m² 5,7 °C 5,8 °C 8,0 km/h (2 Bft)
11.04.2019 00:15 6,4 °C 95 % 1010,3 hPa 0,0 mm 2,5 km/h (1 Bft) O-NO 78 ° 0 min 0,000 mm 0,0 UV-I 0 W/m² 5,7 °C 6,4 °C 4,8 km/h (1 Bft)
11.04.2019 00:16 6,4 °C 95 % 1010,3 hPa 0,0 mm 6,2 km/h (2 Bft) O-NO 73 ° 0 min 0,000 mm 0,0 UV-I 0 W/m² 5,7 °C 5,3 °C 9,7 km/h (2 Bft)
11.04.2019 00:17 6,4 °C 95 % 1010,3 hPa 0,0 mm 5,0 km/h (1 Bft) NO 51 ° 0 min 0,000 mm 0,0 UV-I 0 W/m² 5,7 °C 5,7 °C 6,4 km/h (2 Bft)
11.04.2019 00:18 6,4 °C 95 % 1010,3 hPa 0,0 mm 4,3 km/h (1 Bft) O-NO 71 ° 0 min 0,000 mm 0,0 UV-I 0 W/m² 5,7 °C 6,4 °C 8,0 km/h (2 Bft)
11.04.2019 00:19 6,4 °C 95 % 1010,3 hPa 0,0 mm 0,0 km/h (0 Bft) O-NO 71 ° 0 min 0,000 mm 0,0 UV-I 0 W/m² 5,7 °C 6,4 °C 0,0 km/h (0 Bft)
11.04.2019 00:20 6,3 °C 95 % 1010,3 hPa 0,0 mm 0,0 km/h (0 Bft) O-NO 71 ° 0 min 0,000 mm 0,0 UV-I 0 W/m² 5,6 °C 6,3 °C 0,0 km/h (0 Bft)
11.04.2019 00:21 6,4 °C 95 % 1010,3 hPa 0,0 mm 0,8 km/h (0 Bft) N-NO 32 ° 0 min 0,000 mm 0,0 UV-I 0 W/m² 5,7 °C 6,4 °C 8,0 km/h (2 Bft)
11.04.2019 00:22 6,4 °C 95 % 1010,3 hPa 0,0 mm 3,6 km/h (1 Bft) NO 51 ° 0 min 0,000 mm 0,0 UV-I 0 W/m² 5,7 °C 6,4 °C 6,4 km/h (2 Bft)
11.04.2019 00:23 6,3 °C 94 % 1010,3 hPa 0,0 mm 3,6 km/h (1 Bft) O-NO 75 ° 0 min 0,000 mm 0,0 UV-I 0 W/m² 5,4 °C 6,3 °C 6,4 km/h (2 Bft)
11.04.2019 00:24 6,4 °C 95 % 1010,3 hPa 0,0 mm 3,4 km/h (1 Bft) NO 52 ° 0 min 0,000 mm 0,0 UV-I 0 W/m² 5,7 °C 6,4 °C 6,4 km/h (2 Bft)
11.04.2019 00:25 6,3 °C 94 % 1010,3 hPa 0,0 mm 4,9 km/h (1 Bft) O-NO 76 ° 0 min 0,000 mm 0,0 UV-I 0 W/m² 5,4 °C 5,6 °C 11,3 km/h (2 Bft)
11.04.2019 00:26 6,3 °C 94 % 1010,3 hPa 0,0 mm 4,2 km/h (1 Bft) NO 52 ° 0 min 0,000 mm 0,0 UV-I 0 W/m² 5,4 °C 6,3 °C 8,0 km/h (2 Bft)
11.04.2019 00:27 6,3 °C 95 % 1010,3 hPa 0,0 mm 1,6 km/h (1 Bft) NO 51 ° 0 min 0,000 mm 0,0 UV-I 0 W/m² 5,6 °C 6,3 °C 4,8 km/h (1 Bft)
11.04.2019 00:28 6,3 °C 94 % 1010,3 hPa 0,0 mm 1,8 km/h (1 Bft) NO 34 ° 0 min 0,000 mm 0,0 UV-I 0 W/m² 5,4 °C 6,3 °C 6,4 km/h (2 Bft)
11.04.2019 00:29 6,3 °C 94 % 1010,3 hPa 0,0 mm 5,6 km/h (1 Bft) O-NO 69 ° 0 min 0,000 mm 0,0 UV-I 0 W/m² 5,4 °C 5,3 °C 6,4 km/h (2 Bft)
11.04.2019 00:30 6,3 °C 94 % 1010,3 hPa 0,0 mm 1,8 km/h (1 Bft) O-NO 59 ° 0 min 0,000 mm 0,0 UV-I 0 W/m² 5,4 °C 6,3 °C 4,8 km/h (1 Bft)
11.04.2019 00:31 6,3 °C 94 % 1010,3 hPa 0,0 mm 0,0 km/h (0 Bft) O-NO 59 ° 0 min 0,000 mm 0,0 UV-I 0 W/m² 5,4 °C 6,3 °C 0,0 km/h (0 Bft)
11.04.2019 00:32 6,3 °C 95 % 1010,3 hPa 0,0 mm 0,0 km/h (0 Bft) O-NO 59 ° 0 min 0,000 mm 0,0 UV-I 0 W/m² 5,6 °C 6,3 °C 0,0 km/h (0 Bft)
11.04.2019 00:33 6,3 °C 95 % 1010,3 hPa 0,0 mm 2,4 km/h (1 Bft) O 80 ° 0 min 0,000 mm 0,0 UV-I 0 W/m² 5,6 °C 6,3 °C 6,4 km/h (2 Bft)
11.04.2019 00:34 6,3 °C 95 % 1010,3 hPa 0,0 mm 4,5 km/h (1 Bft) NO 51 ° 0 min 0,000 mm 0,0 UV-I 0 W/m² 5,6 °C 6,3 °C 8,0 km/h (2 Bft)
11.04.2019 00:35 6,3 °C 94 % 1010,3 hPa 0,0 mm 4,0 km/h (1 Bft) O 97 ° 0 min 0,000 mm 0,0 UV-I 0 W/m² 5,4 °C 6,3 °C 9,7 km/h (2 Bft)
11.04.2019 00:36 6,3 °C 94 % 1010,3 hPa 0,0 mm 3,6 km/h (1 Bft) O 82 ° 0 min 0,000 mm 0,0 UV-I 0 W/m² 5,4 °C 6,3 °C 6,4 km/h (2 Bft)
11.04.2019 00:37 6,3 °C 94 % 1010,3 hPa 0,0 mm 3,3 km/h (1 Bft) NO 55 ° 0 min 0,000 mm 0,0 UV-I 0 W/m² 5,4 °C 6,3 °C 6,4 km/h (2 Bft)
11.04.2019 00:38 6,3 °C 94 % 1010,3 hPa 0,0 mm 4,0 km/h (1 Bft) O-NO 67 ° 0 min 0,000 mm 0,0 UV-I 0 W/m² 5,4 °C 6,3 °C 6,4 km/h (2 Bft)
11.04.2019 00:39 6,3 °C 95 % 1010,3 hPa 0,0 mm 3,6 km/h (1 Bft) NO 51 ° 0 min 0,000 mm 0,0 UV-I 0 W/m² 5,6 °C 6,3 °C 6,4 km/h (2 Bft)
11.04.2019 00:40 6,3 °C 95 % 1010,3 hPa 0,0 mm 3,3 km/h (1 Bft) O 92 ° 0 min 0,000 mm 0,0 UV-I 0 W/m² 5,6 °C 6,3 °C 11,3 km/h (2 Bft)
11.04.2019 00:41 6,3 °C 95 % 1010,3 hPa 0,0 mm 6,0 km/h (2 Bft) O-NO 68 ° 0 min 0,000 mm 0,0 UV-I 0 W/m² 5,6 °C 5,2 °C 11,3 km/h (2 Bft)
11.04.2019 00:42 6,3 °C 94 % 1010,3 hPa 0,0 mm 4,7 km/h (1 Bft) O-NO 77 ° 0 min 0,000 mm 0,0 UV-I 0 W/m² 5,4 °C 5,7 °C 6,4 km/h (2 Bft)
11.04.2019 00:43 6,3 °C 94 % 1010,3 hPa 0,0 mm 4,6 km/h (1 Bft) O-NO 69 ° 0 min 0,000 mm 0,0 UV-I 0 W/m² 5,4 °C 5,7 °C 6,4 km/h (2 Bft)
11.04.2019 00:44 6,3 °C 94 % 1010,2 hPa 0,0 mm 6,6 km/h (2 Bft) O 96 ° 0 min 0,000 mm 0,0 UV-I 0 W/m² 5,4 °C 5,0 °C 9,7 km/h (2 Bft)
11.04.2019 00:45 6,3 °C 94 % 1010,3 hPa 0,0 mm 2,6 km/h (1 Bft) NO 49 ° 0 min 0,000 mm 0,0 UV-I 0 W/m² 5,4 °C 6,3 °C 6,4 km/h (2 Bft)
11.04.2019 00:46 6,3 °C 94 % 1010,3 hPa 0,0 mm 7,0 km/h (2 Bft) O-NO 61 ° 0 min 0,000 mm 0,0 UV-I 0 W/m² 5,4 °C 4,9 °C 11,3 km/h (2 Bft)
11.04.2019 00:47 6,3 °C 94 % 1010,2 hPa 0,0 mm 5,1 km/h (1 Bft) O-NO 59 ° 0 min 0,000 mm 0,0 UV-I 0 W/m² 5,4 °C 5,5 °C 8,0 km/h (2 Bft)
11.04.2019 00:48 6,3 °C 94 % 1010,2 hPa 0,0 mm 5,1 km/h (1 Bft) O-NO 73 ° 0 min 0,000 mm 0,0 UV-I 0 W/m² 5,4 °C 5,5 °C 8,0 km/h (2 Bft)
11.04.2019 00:49 6,3 °C 94 % 1010,3 hPa 0,0 mm 5,3 km/h (1 Bft) NO 35 ° 0 min 0,000 mm 0,0 UV-I 0 W/m² 5,4 °C 5,5 °C 6,4 km/h (2 Bft)
11.04.2019 00:50 6,3 °C 94 % 1010,2 hPa 0,0 mm 2,4 km/h (1 Bft) O-NO 76 ° 0 min 0,000 mm 0,0 UV-I 0 W/m² 5,4 °C 6,3 °C 9,7 km/h (2 Bft)
11.04.2019 00:51 6,3 °C 95 % 1010,2 hPa 0,0 mm 4,8 km/h (1 Bft) O-NO 78 ° 0 min 0,000 mm 0,0 UV-I 0 W/m² 5,6 °C 5,6 °C 8,0 km/h (2 Bft)
11.04.2019 00:52 6,3 °C 94 % 1010,2 hPa 0,0 mm 7,4 km/h (2 Bft) O 85 ° 0 min 0,000 mm 0,0 UV-I 0 W/m² 5,4 °C 4,8 °C 11,3 km/h (2 Bft)
11.04.2019 00:53 6,3 °C 94 % 1010,2 hPa 0,0 mm 5,6 km/h (1 Bft) O-NO 76 ° 0 min 0,000 mm 0,0 UV-I 0 W/m² 5,4 °C 5,3 °C 9,7 km/h (2 Bft)
11.04.2019 00:54 6,3 °C 94 % 1010,2 hPa 0,0 mm 8,3 km/h (2 Bft) O-NO 77 ° 0 min 0,000 mm 0,0 UV-I 0 W/m² 5,4 °C 4,6 °C 11,3 km/h (2 Bft)
11.04.2019 00:55 6,3 °C 94 % 1010,2 hPa 0,0 mm 8,3 km/h (2 Bft) O-NO 75 ° 0 min 0,000 mm 0,0 UV-I 0 W/m² 5,4 °C 4,6 °C 11,3 km/h (2 Bft)
11.04.2019 00:56 6,3 °C 94 % 1010,2 hPa 0,0 mm 8,9 km/h (2 Bft) O-NO 69 ° 0 min 0,000 mm 0,0 UV-I 0 W/m² 5,4 °C 4,4 °C 12,9 km/h (3 Bft)
11.04.2019 00:57 6,3 °C 94 % 1010,2 hPa 0,0 mm 4,1 km/h (1 Bft) O-NO 68 ° 0 min 0,000 mm 0,0 UV-I 0 W/m² 5,4 °C 6,3 °C 6,4 km/h (2 Bft)
11.04.2019 00:58 6,3 °C 94 % 1010,2 hPa 0,0 mm 2,1 km/h (1 Bft) NO 41 ° 0 min 0,000 mm 0,0 UV-I 0 W/m² 5,4 °C 6,3 °C 4,8 km/h (1 Bft)
11.04.2019 00:59 6,3 °C 94 % 1010,2 hPa 0,0 mm 5,0 km/h (1 Bft) NO 49 ° 0 min 0,000 mm 0,0 UV-I 0 W/m² 5,4 °C 5,6 °C 11,3 km/h (2 Bft)
11.04.2019 01:00 6,3 °C 95 % 1010,2 hPa 0,0 mm 6,0 km/h (2 Bft) NO 49 ° 0 min 0,000 mm 0,0 UV-I 0 W/m² 5,6 °C 5,2 °C 9,7 km/h (2 Bft)
11.04.2019 01:01 6,3 °C 95 % 1010,2 hPa 0,0 mm 5,2 km/h (1 Bft) O 87 ° 0 min 0,000 mm 0,0 UV-I 0 W/m² 5,6 °C 5,5 °C 9,7 km/h (2 Bft)
11.04.2019 01:02 6,3 °C 94 % 1010,2 hPa 0,0 mm 3,2 km/h (1 Bft) O 79 ° 0 min 0,000 mm 0,0 UV-I 0 W/m² 5,4 °C 6,3 °C 6,4 km/h (2 Bft)
11.04.2019 01:03 6,3 °C 94 % 1010,2 hPa 0,0 mm 2,1 km/h (1 Bft) NO 55 ° 0 min 0,000 mm 0,0 UV-I 0 W/m² 5,4 °C 6,3 °C 4,8 km/h (1 Bft)
11.04.2019 01:04 6,3 °C 94 % 1010,2 hPa 0,0 mm 2,3 km/h (1 Bft) NO 55 ° 0 min 0,000 mm 0,0 UV-I 0 W/m² 5,4 °C 6,3 °C 6,4 km/h (2 Bft)
11.04.2019 01:05 6,3 °C 94 % 1010,2 hPa 0,0 mm 4,5 km/h (1 Bft) O-NO 61 ° 0 min 0,000 mm 0,0 UV-I 0 W/m² 5,4 °C 6,3 °C 8,0 km/h (2 Bft)
11.04.2019 01:06 6,3 °C 94 % 1010,2 hPa 0,0 mm 7,5 km/h (2 Bft) O-NO 76 ° 0 min 0,000 mm 0,0 UV-I 0 W/m² 5,4 °C 4,8 °C 12,9 km/h (3 Bft)
11.04.2019 01:07 6,3 °C 94 % 1010,3 hPa 0,0 mm 3,2 km/h (1 Bft) N 9 ° 0 min 0,000 mm 0,0 UV-I 0 W/m² 5,4 °C 6,3 °C 6,4 km/h (2 Bft)
11.04.2019 01:08 6,3 °C 94 % 1010,3 hPa 0,0 mm 6,8 km/h (2 Bft) NO 47 ° 0 min 0,000 mm 0,0 UV-I 0 W/m² 5,4 °C 5,0 °C 12,9 km/h (3 Bft)
11.04.2019 01:09 6,3 °C 94 % 1010,2 hPa 0,0 mm 9,1 km/h (2 Bft) O-NO 65 ° 0 min 0,000 mm 0,0 UV-I 0 W/m² 5,4 °C 4,4 °C 14,5 km/h (3 Bft)
11.04.2019 01:10 6,2 °C 94 % 1010,3 hPa 0,0 mm 1,6 km/h (1 Bft) NO 51 ° 0 min 0,000 mm 0,0 UV-I 0 W/m² 5,3 °C 6,2 °C 4,8 km/h (1 Bft)
11.04.2019 01:11 6,2 °C 94 % 1010,3 hPa 0,0 mm 0,0 km/h (0 Bft) NO 51 ° 0 min 0,000 mm 0,0 UV-I 0 W/m² 5,3 °C 6,2 °C 0,0 km/h (0 Bft)
11.04.2019 01:12 6,3 °C 94 % 1010,3 hPa 0,0 mm 0,0 km/h (0 Bft) O 88 ° 0 min 0,000 mm 0,0 UV-I 0 W/m² 5,4 °C 6,3 °C 0,0 km/h (0 Bft)
11.04.2019 01:13 6,3 °C 94 % 1010,3 hPa 0,0 mm 0,0 km/h (0 Bft) NO 42 ° 0 min 0,000 mm 0,0 UV-I 0 W/m² 5,4 °C 6,3 °C 0,0 km/h (0 Bft)
11.04.2019 01:14 6,3 °C 95 % 1010,3 hPa 0,0 mm 0,0 km/h (0 Bft) NO 42 ° 0 min 0,000 mm 0,0 UV-I 0 W/m² 5,6 °C 6,3 °C 0,0 km/h (0 Bft)
11.04.2019 01:15 6,3 °C 94 % 1010,2 hPa 0,0 mm 0,7 km/h (0 Bft) NO 42 ° 0 min 0,000 mm 0,0 UV-I 0 W/m² 5,4 °C 6,3 °C 3,2 km/h (1 Bft)
11.04.2019 01:16 6,3 °C 94 % 1010,2 hPa 0,0 mm 0,8 km/h (0 Bft) NO 44 ° 0 min 0,000 mm 0,0 UV-I 0 W/m² 5,4 °C 6,3 °C 1,6 km/h (1 Bft)
11.04.2019 01:17 6,3 °C 94 % 1010,3 hPa 0,0 mm 6,7 km/h (2 Bft) O-SO 106 ° 0 min 0,000 mm 0,0 UV-I 0 W/m² 5,4 °C 5,0 °C 11,3 km/h (2 Bft)
11.04.2019 01:18 6,3 °C 94 % 1010,2 hPa 0,0 mm 7,6 km/h (2 Bft) NO 49 ° 0 min 0,000 mm 0,0 UV-I 0 W/m² 5,4 °C 4,8 °C 14,5 km/h (3 Bft)
11.04.2019 01:19 6,2 °C 94 % 1010,2 hPa 0,0 mm 5,2 km/h (1 Bft) NO 45 ° 0 min 0,000 mm 0,0 UV-I 0 W/m² 5,3 °C 5,4 °C 8,0 km/h (2 Bft)
11.04.2019 01:20 6,3 °C 94 % 1010,2 hPa 0,0 mm 1,2 km/h (1 Bft) O-NO 71 ° 0 min 0,000 mm 0,0 UV-I 0 W/m² 5,4 °C 6,3 °C 6,4 km/h (2 Bft)
11.04.2019 01:21 6,2 °C 94 % 1010,3 hPa 0,0 mm 6,7 km/h (2 Bft) O-NO 72 ° 0 min 0,000 mm 0,0 UV-I 0 W/m² 5,3 °C 4,9 °C 12,9 km/h (3 Bft)
11.04.2019 01:22 6,3 °C 94 % 1010,3 hPa 0,0 mm 7,7 km/h (2 Bft) O-NO 59 ° 0 min 0,000 mm 0,0 UV-I 0 W/m² 5,4 °C 4,7 °C 11,3 km/h (2 Bft)
11.04.2019 01:23 6,2 °C 94 % 1010,4 hPa 0,0 mm 6,7 km/h (2 Bft) O 96 ° 0 min 0,000 mm 0,0 UV-I 0 W/m² 5,3 °C 4,9 °C 9,7 km/h (2 Bft)
11.04.2019 01:24 6,2 °C 94 % 1010,4 hPa 0,2 mm 13,6 km/h (3 Bft) NO 48 ° 0 min 0,000 mm 0,0 UV-I 0 W/m² 5,3 °C 3,4 °C 20,9 km/h (4 Bft)
11.04.2019 01:25 6,2 °C 94 % 1010,3 hPa 0,0 mm 8,2 km/h (2 Bft) NO 40 ° 0 min 0,000 mm 0,0 UV-I 0 W/m² 5,3 °C 4,5 °C 14,5 km/h (3 Bft)
11.04.2019 01:26 6,2 °C 94 % 1010,3 hPa 0,0 mm 4,8 km/h (1 Bft) O-NO 71 ° 0 min 0,000 mm 0,0 UV-I 0 W/m² 5,3 °C 5,5 °C 6,4 km/h (2 Bft)
11.04.2019 01:27 6,2 °C 94 % 1010,3 hPa 0,0 mm 8,5 km/h (2 Bft) O 82 ° 0 min 0,000 mm 0,0 UV-I 0 W/m² 5,3 °C 4,4 °C 14,5 km/h (3 Bft)
11.04.2019 01:28 6,2 °C 94 % 1010,3 hPa 0,0 mm 9,2 km/h (2 Bft) O 90 ° 0 min 0,000 mm 0,0 UV-I 0 W/m² 5,3 °C 4,3 °C 12,9 km/h (3 Bft)
11.04.2019 01:29 6,2 °C 94 % 1010,3 hPa 0,0 mm 8,2 km/h (2 Bft) O-NO 65 ° 0 min 0,000 mm 0,0 UV-I 0 W/m² 5,3 °C 4,5 °C 12,9 km/h (3 Bft)
11.04.2019 01:30 6,2 °C 94 % 1010,3 hPa 0,0 mm 5,4 km/h (1 Bft) O-NO 61 ° 0 min 0,000 mm 0,0 UV-I 0 W/m² 5,3 °C 5,3 °C 8,0 km/h (2 Bft)
11.04.2019 01:31 6,2 °C 94 % 1010,3 hPa 0,0 mm 9,6 km/h (2 Bft) O-NO 71 ° 0 min 0,000 mm 0,0 UV-I 0 W/m² 5,3 °C 4,2 °C 17,7 km/h (3 Bft)
11.04.2019 01:32 6,2 °C 94 % 1010,3 hPa 0,0 mm 5,7 km/h (1 Bft) O-NO 74 ° 0 min 0,000 mm 0,0 UV-I 0 W/m² 5,3 °C 5,2 °C 8,0 km/h (2 Bft)
11.04.2019 01:33 6,2 °C 94 % 1010,3 hPa 0,0 mm 5,9 km/h (2 Bft) O-NO 58 ° 0 min 0,000 mm 0,0 UV-I 0 W/m² 5,3 °C 5,1 °C 9,7 km/h (2 Bft)
11.04.2019 01:34 6,2 °C 94 % 1010,3 hPa 0,0 mm 6,9 km/h (2 Bft) NO 53 ° 0 min 0,000 mm 0,0 UV-I 0 W/m² 5,3 °C 4,8 °C 16,1 km/h (3 Bft)
11.04.2019 01:35 6,2 °C 94 % 1010,3 hPa 0,0 mm 11,2 km/h (2 Bft) NO 49 ° 0 min 0,000 mm 0,0 UV-I 0 W/m² 5,3 °C 3,9 °C 16,1 km/h (3 Bft)
11.04.2019 01:36 6,2 °C 94 % 1010,3 hPa 0,0 mm 7,3 km/h (2 Bft) O-NO 61 ° 0 min 0,000 mm 0,0 UV-I 0 W/m² 5,3 °C 4,7 °C 9,7 km/h (2 Bft)
11.04.2019 01:37 6,2 °C 94 % 1010,3 hPa 0,0 mm 5,1 km/h (1 Bft) NO 56 ° 0 min 0,000 mm 0,0 UV-I 0 W/m² 5,3 °C 5,4 °C 11,3 km/h (2 Bft)
11.04.2019 01:38 6,2 °C 94 % 1010,3 hPa 0,0 mm 9,0 km/h (2 Bft) O 82 ° 0 min 0,000 mm 0,0 UV-I 0 W/m² 5,3 °C 4,3 °C 14,5 km/h (3 Bft)
11.04.2019 01:39 6,2 °C 94 % 1010,4 hPa 0,0 mm 8,2 km/h (2 Bft) N-NO 29 ° 0 min 0,000 mm 0,0 UV-I 0 W/m² 5,3 °C 4,5 °C 17,7 km/h (3 Bft)
11.04.2019 01:40 6,2 °C 94 % 1010,3 hPa 0,0 mm 8,4 km/h (2 Bft) NO 35 ° 0 min 0,000 mm 0,0 UV-I 0 W/m² 5,3 °C 4,4 °C 14,5 km/h (3 Bft)
11.04.2019 01:41 6,2 °C 94 % 1010,3 hPa 0,0 mm 7,3 km/h (2 Bft) NO 40 ° 0 min 0,000 mm 0,0 UV-I 0 W/m² 5,3 °C 4,7 °C 12,9 km/h (3 Bft)
11.04.2019 01:42 6,2 °C 94 % 1010,3 hPa 0,0 mm 7,1 km/h (2 Bft) O-NO 70 ° 0 min 0,000 mm 0,0 UV-I 0 W/m² 5,3 °C 4,8 °C 9,7 km/h (2 Bft)
11.04.2019 01:43 6,2 °C 94 % 1010,3 hPa 0,0 mm 6,8 km/h (2 Bft) N-NO 19 ° 0 min 0,000 mm 0,0 UV-I 0 W/m² 5,3 °C 4,9 °C 9,7 km/h (2 Bft)
11.04.2019 01:44 6,2 °C 94 % 1010,3 hPa 0,0 mm 4,4 km/h (1 Bft) O-NO 73 ° 0 min 0,000 mm 0,0 UV-I 0 W/m² 5,3 °C 6,2 °C 9,7 km/h (2 Bft)
11.04.2019 01:45 6,2 °C 94 % 1010,4 hPa 0,0 mm 6,7 km/h (2 Bft) O 84 ° 0 min 0,000 mm 0,0 UV-I 0 W/m² 5,3 °C 4,9 °C 11,3 km/h (2 Bft)
11.04.2019 01:46 6,2 °C 94 % 1010,4 hPa 0,0 mm 10,5 km/h (2 Bft) NO 52 ° 0 min 0,000 mm 0,0 UV-I 0 W/m² 5,3 °C 4,0 °C 14,5 km/h (3 Bft)
11.04.2019 01:47 6,2 °C 94 % 1010,3 hPa 0,0 mm 7,5 km/h (2 Bft) O-NO 75 ° 0 min 0,000 mm 0,0 UV-I 0 W/m² 5,3 °C 4,7 °C 11,3 km/h (2 Bft)
11.04.2019 01:48 6,2 °C 94 % 1010,3 hPa 0,0 mm 8,2 km/h (2 Bft) NO 48 ° 0 min 0,000 mm 0,0 UV-I 0 W/m² 5,3 °C 4,5 °C 9,7 km/h (2 Bft)
11.04.2019 01:49 6,1 °C 94 % 1010,3 hPa 0,0 mm 4,0 km/h (1 Bft) O-NO 61 ° 0 min 0,000 mm 0,0 UV-I 0 W/m² 5,2 °C 6,1 °C 6,4 km/h (2 Bft)
11.04.2019 01:50 6,1 °C 94 % 1010,3 hPa 0,0 mm 6,9 km/h (2 Bft) O 92 ° 0 min 0,000 mm 0,0 UV-I 0 W/m² 5,2 °C 4,7 °C 11,3 km/h (2 Bft)
11.04.2019 01:51 6,2 °C 94 % 1010,3 hPa 0,0 mm 9,7 km/h (2 Bft) NO 52 ° 0 min 0,000 mm 0,0 UV-I 0 W/m² 5,3 °C 4,2 °C 16,1 km/h (3 Bft)
11.04.2019 01:52 6,2 °C 94 % 1010,4 hPa 0,0 mm 8,6 km/h (2 Bft) O-NO 72 ° 0 min 0,000 mm 0,0 UV-I 0 W/m² 5,3 °C 4,4 °C 16,1 km/h (3 Bft)
11.04.2019 01:53 6,2 °C 94 % 1010,3 hPa 0,0 mm 11,4 km/h (2 Bft) N-NO 19 ° 0 min 0,000 mm 0,0 UV-I 0 W/m² 5,3 °C 3,8 °C 16,1 km/h (3 Bft)
11.04.2019 01:54 6,1 °C 94 % 1010,3 hPa 0,0 mm 5,4 km/h (1 Bft) O-NO 60 ° 0 min 0,000 mm 0,0 UV-I 0 W/m² 5,2 °C 5,2 °C 9,7 km/h (2 Bft)
11.04.2019 01:55 6,1 °C 94 % 1010,3 hPa 0,0 mm 6,6 km/h (2 Bft) O 88 ° 0 min 0,000 mm 0,0 UV-I 0 W/m² 5,2 °C 4,8 °C 12,9 km/h (3 Bft)
11.04.2019 01:56 6,2 °C 94 % 1010,3 hPa 0,0 mm 6,9 km/h (2 Bft) O 93 ° 0 min 0,000 mm 0,0 UV-I 0 W/m² 5,3 °C 4,8 °C 9,7 km/h (2 Bft)
11.04.2019 01:57 6,1 °C 94 % 1010,3 hPa 0,0 mm 5,4 km/h (1 Bft) O-NO 61 ° 0 min 0,000 mm 0,0 UV-I 0 W/m² 5,2 °C 5,2 °C 9,7 km/h (2 Bft)
11.04.2019 01:58 6,1 °C 94 % 1010,3 hPa 0,0 mm 8,3 km/h (2 Bft) NO 55 ° 0 min 0,000 mm 0,0 UV-I 0 W/m² 5,2 °C 4,4 °C 9,7 km/h (2 Bft)
11.04.2019 01:59 6,1 °C 94 % 1010,3 hPa 0,0 mm 9,7 km/h (2 Bft) NO 50 ° 0 min 0,000 mm 0,0 UV-I 0 W/m² 5,2 °C 4,0 °C 14,5 km/h (3 Bft)
11.04.2019 02:00 6,1 °C 94 % 1010,3 hPa 0,0 mm 7,1 km/h (2 Bft) O 88 ° 0 min 0,000 mm 0,0 UV-I 0 W/m² 5,2 °C 4,7 °C 11,3 km/h (2 Bft)
11.04.2019 02:01 6,1 °C 94 % 1010,3 hPa 0,0 mm 7,6 km/h (2 Bft) NO 51 ° 0 min 0,000 mm 0,0 UV-I 0 W/m² 5,2 °C 4,5 °C 12,9 km/h (3 Bft)
11.04.2019 02:02 6,1 °C 94 % 1010,3 hPa 0,0 mm 6,2 km/h (2 Bft) NO 53 ° 0 min 0,000 mm 0,0 UV-I 0 W/m² 5,2 °C 4,9 °C 9,7 km/h (2 Bft)
11.04.2019 02:03 6,2 °C 94 % 1010,3 hPa 0,0 mm 6,6 km/h (2 Bft) NO 44 ° 0 min 0,000 mm 0,0 UV-I 0 W/m² 5,3 °C 4,9 °C 11,3 km/h (2 Bft)
11.04.2019 02:04 6,1 °C 94 % 1010,3 hPa 0,0 mm 2,3 km/h (1 Bft) O-NO 71 ° 0 min 0,000 mm 0,0 UV-I 0 W/m² 5,2 °C 6,1 °C 6,4 km/h (2 Bft)
11.04.2019 02:05 6,1 °C 94 % 1010,3 hPa 0,0 mm 2,1 km/h (1 Bft) NO 40 ° 0 min 0,000 mm 0,0 UV-I 0 W/m² 5,2 °C 6,1 °C 6,4 km/h (2 Bft)
11.04.2019 02:06 6,1 °C 94 % 1010,3 hPa 0,0 mm 5,5 km/h (1 Bft) O-NO 65 ° 0 min 0,000 mm 0,0 UV-I 0 W/m² 5,2 °C 5,2 °C 8,0 km/h (2 Bft)
11.04.2019 02:07 6,1 °C 94 % 1010,3 hPa 0,0 mm 4,9 km/h (1 Bft) O-NO 78 ° 0 min 0,000 mm 0,0 UV-I 0 W/m² 5,2 °C 5,4 °C 6,4 km/h (2 Bft)
11.04.2019 02:08 6,1 °C 94 % 1010,3 hPa 0,0 mm 1,2 km/h (1 Bft) NO 42 ° 0 min 0,000 mm 0,0 UV-I 0 W/m² 5,2 °C 6,1 °C 6,4 km/h (2 Bft)
11.04.2019 02:09 6,1 °C 94 % 1010,2 hPa 0,0 mm 0,1 km/h (0 Bft) O-NO 76 ° 0 min 0,000 mm 0,0 UV-I 0 W/m² 5,2 °C 6,1 °C 1,6 km/h (1 Bft)
11.04.2019 02:10 6,1 °C 94 % 1010,2 hPa 0,0 mm 4,8 km/h (1 Bft) N 5 ° 0 min 0,000 mm 0,0 UV-I 0 W/m² 5,2 °C 5,4 °C 8,0 km/h (2 Bft)
11.04.2019 02:11 6,1 °C 94 % 1010,2 hPa 0,0 mm 3,6 km/h (1 Bft) NO 55 ° 0 min 0,000 mm 0,0 UV-I 0 W/m² 5,2 °C 6,1 °C 8,0 km/h (2 Bft)
11.04.2019 02:12 6,2 °C 94 % 1010,2 hPa 0,0 mm 3,0 km/h (1 Bft) N-NO 32 ° 0 min 0,000 mm 0,0 UV-I 0 W/m² 5,3 °C 6,2 °C 8,0 km/h (2 Bft)
11.04.2019 02:13 6,1 °C 94 % 1010,2 hPa 0,0 mm 3,6 km/h (1 Bft) O 85 ° 0 min 0,000 mm 0,0 UV-I 0 W/m² 5,2 °C 6,1 °C 8,0 km/h (2 Bft)
11.04.2019 02:14 6,1 °C 94 % 1010,2 hPa 0,0 mm 8,1 km/h (2 Bft) NO 46 ° 0 min 0,000 mm 0,0 UV-I 0 W/m² 5,2 °C 4,4 °C 11,3 km/h (2 Bft)
11.04.2019 02:15 6,2 °C 94 % 1010,3 hPa 0,0 mm 8,0 km/h (2 Bft) NO 41 ° 0 min 0,000 mm 0,0 UV-I 0 W/m² 5,3 °C 4,5 °C 12,9 km/h (3 Bft)
11.04.2019 02:16 6,1 °C 94 % 1010,3 hPa 0,0 mm 5,0 km/h (1 Bft) O-NO 74 ° 0 min 0,000 mm 0,0 UV-I 0 W/m² 5,2 °C 5,3 °C 9,7 km/h (2 Bft)
11.04.2019 02:17 6,1 °C 94 % 1010,3 hPa 0,0 mm 5,8 km/h (2 Bft) NO 40 ° 0 min 0,000 mm 0,0 UV-I 0 W/m² 5,2 °C 5,1 °C 11,3 km/h (2 Bft)
11.04.2019 02:18 6,1 °C 94 % 1010,2 hPa 0,0 mm 7,2 km/h (2 Bft) O-NO 70 ° 0 min 0,000 mm 0,0 UV-I 0 W/m² 5,2 °C 4,6 °C 9,7 km/h (2 Bft)
11.04.2019 02:19 6,1 °C 94 % 1010,2 hPa 0,0 mm 7,8 km/h (2 Bft) O-NO 67 ° 0 min 0,000 mm 0,0 UV-I 0 W/m² 5,2 °C 4,5 °C 11,3 km/h (2 Bft)
11.04.2019 02:20 6,1 °C 94 % 1010,3 hPa 0,0 mm 9,0 km/h (2 Bft) NO 34 ° 0 min 0,000 mm 0,0 UV-I 0 W/m² 5,2 °C 4,2 °C 12,9 km/h (3 Bft)
11.04.2019 02:21 6,1 °C 94 % 1010,3 hPa 0,0 mm 7,6 km/h (2 Bft) O-SO 105 ° 0 min 0,000 mm 0,0 UV-I 0 W/m² 5,2 °C 4,5 °C 12,9 km/h (3 Bft)
11.04.2019 02:22 6,1 °C 94 % 1010,3 hPa 0,0 mm 6,1 km/h (2 Bft) O-NO 78 ° 0 min 0,000 mm 0,0 UV-I 0 W/m² 5,2 °C 5,0 °C 11,3 km/h (2 Bft)
11.04.2019 02:23 6,1 °C 94 % 1010,2 hPa 0,0 mm 7,2 km/h (2 Bft) O-SO 105 ° 0 min 0,000 mm 0,0 UV-I 0 W/m² 5,2 °C 4,6 °C 14,5 km/h (3 Bft)
11.04.2019 02:24 6,2 °C 94 % 1010,2 hPa 0,0 mm 8,0 km/h (2 Bft) N-NO 32 ° 0 min 0,000 mm 0,0 UV-I 0 W/m² 5,3 °C 4,5 °C 12,9 km/h (3 Bft)
11.04.2019 02:25 6,1 °C 94 % 1010,2 hPa 0,0 mm 4,2 km/h (1 Bft) O-NO 70 ° 0 min 0,000 mm 0,0 UV-I 0 W/m² 5,2 °C 6,1 °C 8,0 km/h (2 Bft)
11.04.2019 02:26 6,1 °C 94 % 1010,3 hPa 0,0 mm 6,4 km/h (2 Bft) O-NO 65 ° 0 min 0,000 mm 0,0 UV-I 0 W/m² 5,2 °C 4,9 °C 11,3 km/h (2 Bft)
11.04.2019 02:27 6,2 °C 94 % 1010,2 hPa 0,0 mm 3,6 km/h (1 Bft) O-NO 61 ° 0 min 0,000 mm 0,0 UV-I 0 W/m² 5,3 °C 6,2 °C 4,8 km/h (1 Bft)
11.04.2019 02:28 6,1 °C 94 % 1010,2 hPa 0,0 mm 0,9 km/h (0 Bft) O-NO 61 ° 0 min 0,000 mm 0,0 UV-I 0 W/m² 5,2 °C 6,1 °C 3,2 km/h (1 Bft)
11.04.2019 02:29 6,2 °C 94 % 1010,3 hPa 0,0 mm 0,4 km/h (0 Bft) O-SO 102 ° 0 min 0,000 mm 0,0 UV-I 0 W/m² 5,3 °C 6,2 °C 3,2 km/h (1 Bft)
11.04.2019 02:30 6,1 °C 94 % 1010,3 hPa 0,0 mm 2,1 km/h (1 Bft) O-NO 58 ° 0 min 0,000 mm 0,0 UV-I 0 W/m² 5,2 °C 6,1 °C 4,8 km/h (1 Bft)
11.04.2019 02:31 6,2 °C 94 % 1010,2 hPa 0,0 mm 3,3 km/h (1 Bft) O-NO 71 ° 0 min 0,000 mm 0,0 UV-I 0 W/m² 5,3 °C 6,2 °C 6,4 km/h (2 Bft)
11.04.2019 02:32 6,1 °C 94 % 1010,2 hPa 0,0 mm 1,5 km/h (1 Bft) O-NO 65 ° 0 min 0,000 mm 0,0 UV-I 0 W/m² 5,2 °C 6,1 °C 3,2 km/h (1 Bft)
11.04.2019 02:33 6,1 °C 94 % 1010,2 hPa 0,0 mm 1,4 km/h (1 Bft) O 84 ° 0 min 0,000 mm 0,0 UV-I 0 W/m² 5,2 °C 6,1 °C 3,2 km/h (1 Bft)
11.04.2019 02:34 6,1 °C 94 % 1010,2 hPa 0,0 mm 3,4 km/h (1 Bft) O-NO 76 ° 0 min 0,000 mm 0,0 UV-I 0 W/m² 5,2 °C 6,1 °C 6,4 km/h (2 Bft)
11.04.2019 02:35 6,2 °C 94 % 1010,3 hPa 0,0 mm 5,6 km/h (1 Bft) O-NO 66 ° 0 min 0,000 mm 0,0 UV-I 0 W/m² 5,3 °C 5,2 °C 8,0 km/h (2 Bft)
11.04.2019 02:36 6,1 °C 94 % 1010,2 hPa 0,0 mm 4,6 km/h (1 Bft) NO 42 ° 0 min 0,000 mm 0,0 UV-I 0 W/m² 5,2 °C 5,5 °C 9,7 km/h (2 Bft)
11.04.2019 02:37 6,1 °C 94 % 1010,2 hPa 0,0 mm 3,4 km/h (1 Bft) O-NO 76 ° 0 min 0,000 mm 0,0 UV-I 0 W/m² 5,2 °C 6,1 °C 8,0 km/h (2 Bft)
11.04.2019 02:38 6,1 °C 94 % 1010,2 hPa 0,0 mm 3,9 km/h (1 Bft) O-NO 65 ° 0 min 0,000 mm 0,0 UV-I 0 W/m² 5,2 °C 6,1 °C 6,4 km/h (2 Bft)
11.04.2019 02:39 6,1 °C 94 % 1010,2 hPa 0,0 mm 3,6 km/h (1 Bft) NO 39 ° 0 min 0,000 mm 0,0 UV-I 0 W/m² 5,2 °C 6,1 °C 6,4 km/h (2 Bft)
11.04.2019 02:40 6,1 °C 94 % 1010,2 hPa 0,0 mm 4,4 km/h (1 Bft) NO 46 ° 0 min 0,000 mm 0,0 UV-I 0 W/m² 5,2 °C 6,1 °C 8,0 km/h (2 Bft)
11.04.2019 02:41 6,2 °C 94 % 1010,2 hPa 0,0 mm 5,7 km/h (1 Bft) O-NO 69 ° 0 min 0,000 mm 0,0 UV-I 0 W/m² 5,3 °C 5,2 °C 11,3 km/h (2 Bft)
11.04.2019 02:42 6,1 °C 94 % 1010,2 hPa 0,0 mm 9,1 km/h (2 Bft) O 82 ° 0 min 0,000 mm 0,0 UV-I 0 W/m² 5,2 °C 4,2 °C 16,1 km/h (3 Bft)
11.04.2019 02:43 6,1 °C 94 % 1010,2 hPa 0,0 mm 6,6 km/h (2 Bft) NO 55 ° 0 min 0,000 mm 0,0 UV-I 0 W/m² 5,2 °C 4,8 °C 9,7 km/h (2 Bft)
11.04.2019 02:44 6,1 °C 94 % 1010,2 hPa 0,0 mm 3,5 km/h (1 Bft) O-NO 73 ° 0 min 0,000 mm 0,0 UV-I 0 W/m² 5,2 °C 6,1 °C 6,4 km/h (2 Bft)
11.04.2019 02:45 6,1 °C 94 % 1010,3 hPa 0,0 mm 5,2 km/h (1 Bft) O-NO 68 ° 0 min 0,000 mm 0,0 UV-I 0 W/m² 5,2 °C 5,3 °C 9,7 km/h (2 Bft)
11.04.2019 02:46 6,1 °C 94 % 1010,2 hPa 0,0 mm 6,2 km/h (2 Bft) NO 40 ° 0 min 0,000 mm 0,0 UV-I 0 W/m² 5,2 °C 4,9 °C 8,0 km/h (2 Bft)
11.04.2019 02:47 6,1 °C 94 % 1010,2 hPa 0,0 mm 1,9 km/h (1 Bft) NO 42 ° 0 min 0,000 mm 0,0 UV-I 0 W/m² 5,2 °C 6,1 °C 6,4 km/h (2 Bft)
11.04.2019 02:48 6,1 °C 94 % 1010,3 hPa 0,0 mm 4,6 km/h (1 Bft) O-NO 69 ° 0 min 0,000 mm 0,0 UV-I 0 W/m² 5,2 °C 5,5 °C 9,7 km/h (2 Bft)
11.04.2019 02:49 6,1 °C 94 % 1010,3 hPa 0,0 mm 6,8 km/h (2 Bft) NO 41 ° 0 min 0,000 mm 0,0 UV-I 0 W/m² 5,2 °C 4,7 °C 12,9 km/h (3 Bft)
11.04.2019 02:50 6,1 °C 94 % 1010,3 hPa 0,0 mm 3,6 km/h (1 Bft) O-NO 78 ° 0 min 0,000 mm 0,0 UV-I 0 W/m² 5,2 °C 6,1 °C 12,9 km/h (3 Bft)
11.04.2019 02:51 6,1 °C 94 % 1010,3 hPa 0,0 mm 2,5 km/h (1 Bft) O-NO 71 ° 0 min 0,000 mm 0,0 UV-I 0 W/m² 5,2 °C 6,1 °C 6,4 km/h (2 Bft)
11.04.2019 02:52 6,1 °C 94 % 1010,2 hPa 0,0 mm 3,1 km/h (1 Bft) N-NO 22 ° 0 min 0,000 mm 0,0 UV-I 0 W/m² 5,2 °C 6,1 °C 6,4 km/h (2 Bft)
11.04.2019 02:53 6,1 °C 94 % 1010,2 hPa 0,0 mm 5,5 km/h (1 Bft) NO 46 ° 0 min 0,000 mm 0,0 UV-I 0 W/m² 5,2 °C 5,2 °C 8,0 km/h (2 Bft)
11.04.2019 02:54 6,1 °C 94 % 1010,2 hPa 0,0 mm 1,5 km/h (1 Bft) O-NO 63 ° 0 min 0,000 mm 0,0 UV-I 0 W/m² 5,2 °C 6,1 °C 4,8 km/h (1 Bft)
11.04.2019 02:55 6,1 °C 94 % 1010,2 hPa 0,0 mm 3,1 km/h (1 Bft) NO 54 ° 0 min 0,000 mm 0,0 UV-I 0 W/m² 5,2 °C 6,1 °C 6,4 km/h (2 Bft)
11.04.2019 02:56 6,1 °C 94 % 1010,2 hPa 0,0 mm 2,1 km/h (1 Bft) O-NO 57 ° 0 min 0,000 mm 0,0 UV-I 0 W/m² 5,2 °C 6,1 °C 4,8 km/h (1 Bft)
11.04.2019 02:57 6,1 °C 94 % 1010,2 hPa 0,0 mm 2,0 km/h (1 Bft) O-NO 69 ° 0 min 0,000 mm 0,0 UV-I 0 W/m² 5,2 °C 6,1 °C 6,4 km/h (2 Bft)
11.04.2019 02:58 6,1 °C 94 % 1010,2 hPa 0,0 mm 1,7 km/h (1 Bft) O-NO 69 ° 0 min 0,000 mm 0,0 UV-I 0 W/m² 5,2 °C 6,1 °C 4,8 km/h (1 Bft)
11.04.2019 02:59 6,1 °C 94 % 1010,2 hPa 0,0 mm 0,8 km/h (0 Bft) O 80 ° 0 min 0,000 mm 0,0 UV-I 0 W/m² 5,2 °C 6,1 °C 3,2 km/h (1 Bft)
11.04.2019 03:00 6,1 °C 94 % 1010,2 hPa 0,0 mm 5,0 km/h (1 Bft) NO 38 ° 0 min 0,000 mm 0,0 UV-I 0 W/m² 5,2 °C 5,3 °C 12,9 km/h (3 Bft)
11.04.2019 03:01 6,1 °C 94 % 1010,2 hPa 0,0 mm 8,6 km/h (2 Bft) O-NO 61 ° 0 min 0,000 mm 0,0 UV-I 0 W/m² 5,2 °C 4,3 °C 16,1 km/h (3 Bft)
11.04.2019 03:02 6,1 °C 94 % 1010,2 hPa 0,0 mm 5,0 km/h (1 Bft) O-NO 63 ° 0 min 0,000 mm 0,0 UV-I 0 W/m² 5,2 °C 5,3 °C 9,7 km/h (2 Bft)
11.04.2019 03:03 6,1 °C 94 % 1010,3 hPa 0,0 mm 3,4 km/h (1 Bft) NO 38 ° 0 min 0,000 mm 0,0 UV-I 0 W/m² 5,2 °C 6,1 °C 6,4 km/h (2 Bft)
11.04.2019 03:04 6,1 °C 94 % 1010,3 hPa 0,0 mm 2,8 km/h (1 Bft) NO 51 ° 0 min 0,000 mm 0,0 UV-I 0 W/m² 5,2 °C 6,1 °C 8,0 km/h (2 Bft)
11.04.2019 03:05 6,1 °C 94 % 1010,3 hPa 0,0 mm 1,7 km/h (1 Bft) N-NO 19 ° 0 min 0,000 mm 0,0 UV-I 0 W/m² 5,2 °C 6,1 °C 6,4 km/h (2 Bft)
11.04.2019 03:06 6,1 °C 94 % 1010,3 hPa 0,0 mm 0,6 km/h (0 Bft) O-NO 57 ° 0 min 0,000 mm 0,0 UV-I 0 W/m² 5,2 °C 6,1 °C 6,4 km/h (2 Bft)
11.04.2019 03:07 6,1 °C 94 % 1010,3 hPa 0,0 mm 2,6 km/h (1 Bft) O-NO 57 ° 0 min 0,000 mm 0,0 UV-I 0 W/m² 5,2 °C 6,1 °C 6,4 km/h (2 Bft)
11.04.2019 03:08 6,1 °C 94 % 1010,3 hPa 0,0 mm 5,8 km/h (2 Bft) NO 36 ° 0 min 0,000 mm 0,0 UV-I 0 W/m² 5,2 °C 5,1 °C 8,0 km/h (2 Bft)
11.04.2019 03:09 6,1 °C 94 % 1010,3 hPa 0,0 mm 4,6 km/h (1 Bft) N-NO 28 ° 0 min 0,000 mm 0,0 UV-I 0 W/m² 5,2 °C 5,5 °C 9,7 km/h (2 Bft)
11.04.2019 03:10 6,1 °C 94 % 1010,3 hPa 0,0 mm 0,3 km/h (0 Bft) N-NO 33 ° 0 min 0,000 mm 0,0 UV-I 0 W/m² 5,2 °C 6,1 °C 1,6 km/h (1 Bft)
11.04.2019 03:11 6,0 °C 94 % 1010,3 hPa 0,0 mm 2,1 km/h (1 Bft) NO 35 ° 0 min 0,000 mm 0,0 UV-I 0 W/m² 5,1 °C 6,0 °C 6,4 km/h (2 Bft)
11.04.2019 03:12 6,0 °C 94 % 1010,3 hPa 0,0 mm 2,0 km/h (1 Bft) O-NO 59 ° 0 min 0,000 mm 0,0 UV-I 0 W/m² 5,1 °C 6,0 °C 6,4 km/h (2 Bft)
11.04.2019 03:13 6,1 °C 94 % 1010,2 hPa 0,0 mm 3,2 km/h (1 Bft) O 88 ° 0 min 0,000 mm 0,0 UV-I 0 W/m² 5,2 °C 6,1 °C 6,4 km/h (2 Bft)
11.04.2019 03:14 6,1 °C 94 % 1010,2 hPa 0,0 mm 5,9 km/h (2 Bft) O-NO 76 ° 0 min 0,000 mm 0,0 UV-I 0 W/m² 5,2 °C 5,0 °C 8,0 km/h (2 Bft)
11.04.2019 03:15 6,1 °C 94 % 1010,2 hPa 0,0 mm 6,8 km/h (2 Bft) O 81 ° 0 min 0,000 mm 0,0 UV-I 0 W/m² 5,2 °C 4,7 °C 11,3 km/h (2 Bft)
11.04.2019 03:16 6,0 °C 94 % 1010,2 hPa 0,0 mm 6,2 km/h (2 Bft) O-NO 69 ° 0 min 0,000 mm 0,0 UV-I 0 W/m² 5,1 °C 4,8 °C 11,3 km/h (2 Bft)
11.04.2019 03:17 6,0 °C 94 % 1010,3 hPa 0,0 mm 9,5 km/h (2 Bft) O-NO 73 ° 0 min 0,000 mm 0,0 UV-I 0 W/m² 5,1 °C 4,0 °C 14,5 km/h (3 Bft)
11.04.2019 03:18 6,0 °C 94 % 1010,3 hPa 0,0 mm 5,7 km/h (1 Bft) NO 39 ° 0 min 0,000 mm 0,0 UV-I 0 W/m² 5,1 °C 5,0 °C 8,0 km/h (2 Bft)
11.04.2019 03:19 6,0 °C 94 % 1010,3 hPa 0,0 mm 4,1 km/h (1 Bft) NO 44 ° 0 min 0,000 mm 0,0 UV-I 0 W/m² 5,1 °C 6,0 °C 8,0 km/h (2 Bft)
11.04.2019 03:20 6,0 °C 94 % 1010,3 hPa 0,0 mm 5,6 km/h (1 Bft) O-NO 66 ° 0 min 0,000 mm 0,0 UV-I 0 W/m² 5,1 °C 5,0 °C 9,7 km/h (2 Bft)
11.04.2019 03:21 6,0 °C 94 % 1010,3 hPa 0,0 mm 1,4 km/h (1 Bft) O-NO 77 ° 0 min 0,000 mm 0,0 UV-I 0 W/m² 5,1 °C 6,0 °C 6,4 km/h (2 Bft)
11.04.2019 03:22 6,0 °C 94 % 1010,3 hPa 0,0 mm 4,7 km/h (1 Bft) O-NO 68 ° 0 min 0,000 mm 0,0 UV-I 0 W/m² 5,1 °C 5,3 °C 8,0 km/h (2 Bft)
11.04.2019 03:23 6,0 °C 94 % 1010,3 hPa 0,0 mm 0,9 km/h (0 Bft) O-NO 75 ° 0 min 0,000 mm 0,0 UV-I 0 W/m² 5,1 °C 6,0 °C 3,2 km/h (1 Bft)
11.04.2019 03:24 5,9 °C 94 % 1010,4 hPa 0,0 mm 6,8 km/h (2 Bft) O-NO 67 ° 0 min 0,000 mm 0,0 UV-I 0 W/m² 5,0 °C 4,5 °C 11,3 km/h (2 Bft)
11.04.2019 03:25 5,9 °C 94 % 1010,4 hPa 0,0 mm 4,0 km/h (1 Bft) O-NO 67 ° 0 min 0,000 mm 0,0 UV-I 0 W/m² 5,0 °C 5,9 °C 8,0 km/h (2 Bft)
11.04.2019 03:26 5,9 °C 94 % 1010,4 hPa 0,0 mm 7,2 km/h (2 Bft) NO 49 ° 0 min 0,000 mm 0,0 UV-I 0 W/m² 5,0 °C 4,4 °C 9,7 km/h (2 Bft)
11.04.2019 03:27 5,9 °C 94 % 1010,4 hPa 0,0 mm 4,8 km/h (1 Bft) O-NO 72 ° 0 min 0,000 mm 0,0 UV-I 0 W/m² 5,0 °C 5,2 °C 8,0 km/h (2 Bft)
11.04.2019 03:28 5,9 °C 94 % 1010,4 hPa 0,0 mm 4,5 km/h (1 Bft) O-NO 61 ° 0 min 0,000 mm 0,0 UV-I 0 W/m² 5,0 °C 5,9 °C 6,4 km/h (2 Bft)
11.04.2019 03:29 5,9 °C 94 % 1010,5 hPa 0,0 mm 4,0 km/h (1 Bft) O-NO 63 ° 0 min 0,000 mm 0,0 UV-I 0 W/m² 5,0 °C 5,9 °C 4,8 km/h (1 Bft)
11.04.2019 03:30 5,9 °C 94 % 1010,5 hPa 0,0 mm 2,3 km/h (1 Bft) O-NO 63 ° 0 min 0,000 mm 0,0 UV-I 0 W/m² 5,0 °C 5,9 °C 4,8 km/h (1 Bft)
11.04.2019 03:31 5,9 °C 94 % 1010,4 hPa 0,0 mm 1,0 km/h (0 Bft) O-NO 63 ° 0 min 0,000 mm 0,0 UV-I 0 W/m² 5,0 °C 5,9 °C 4,8 km/h (1 Bft)
11.04.2019 03:32 5,9 °C 94 % 1010,5 hPa 0,0 mm 0,0 km/h (0 Bft) O-NO 63 ° 0 min 0,000 mm 0,0 UV-I 0 W/m² 5,0 °C 5,9 °C 0,0 km/h (0 Bft)
11.04.2019 03:33 5,9 °C 94 % 1010,5 hPa 0,0 mm 0,0 km/h (0 Bft) O-NO 63 ° 0 min 0,000 mm 0,0 UV-I 0 W/m² 5,0 °C 5,9 °C 0,0 km/h (0 Bft)
11.04.2019 03:34 5,9 °C 94 % 1010,5 hPa 0,0 mm 3,6 km/h (1 Bft) O-NO 69 ° 0 min 0,000 mm 0,0 UV-I 0 W/m² 5,0 °C 5,9 °C 6,4 km/h (2 Bft)
11.04.2019 03:35 5,9 °C 94 % 1010,5 hPa 0,0 mm 0,5 km/h (0 Bft) O-NO 69 ° 0 min 0,000 mm 0,0 UV-I 0 W/m² 5,0 °C 5,9 °C 1,6 km/h (1 Bft)
11.04.2019 03:36 5,9 °C 94 % 1010,5 hPa 0,0 mm 1,9 km/h (1 Bft) NO 53 ° 0 min 0,000 mm 0,0 UV-I 0 W/m² 5,0 °C 5,9 °C 3,2 km/h (1 Bft)
11.04.2019 03:37 5,9 °C 94 % 1010,5 hPa 0,0 mm 0,0 km/h (0 Bft) NO 53 ° 0 min 0,000 mm 0,0 UV-I 0 W/m² 5,0 °C 5,9 °C 0,0 km/h (0 Bft)
11.04.2019 03:38 5,9 °C 94 % 1010,5 hPa 0,0 mm 0,0 km/h (0 Bft) NO 53 ° 0 min 0,000 mm 0,0 UV-I 0 W/m² 5,0 °C 5,9 °C 0,0 km/h (0 Bft)
11.04.2019 03:39 5,9 °C 94 % 1010,6 hPa 0,0 mm 0,0 km/h (0 Bft) NO 53 ° 0 min 0,000 mm 0,0 UV-I 0 W/m² 5,0 °C 5,9 °C 0,0 km/h (0 Bft)
11.04.2019 03:40 5,9 °C 94 % 1010,6 hPa 0,0 mm 3,2 km/h (1 Bft) O-NO 62 ° 0 min 0,000 mm 0,0 UV-I 0 W/m² 5,0 °C 5,9 °C 6,4 km/h (2 Bft)
11.04.2019 03:41 5,9 °C 94 % 1010,6 hPa 0,0 mm 7,8 km/h (2 Bft) O-NO 76 ° 0 min 0,000 mm 0,0 UV-I 0 W/m² 5,0 °C 4,2 °C 11,3 km/h (2 Bft)
11.04.2019 03:42 5,9 °C 94 % 1010,6 hPa 0,0 mm 6,0 km/h (2 Bft) O-NO 78 ° 0 min 0,000 mm 0,0 UV-I 0 W/m² 5,0 °C 4,8 °C 11,3 km/h (2 Bft)
11.04.2019 03:43 5,9 °C 94 % 1010,6 hPa 0,0 mm 7,1 km/h (2 Bft) O-NO 67 ° 0 min 0,000 mm 0,0 UV-I 0 W/m² 5,0 °C 4,4 °C 9,7 km/h (2 Bft)
11.04.2019 03:44 5,9 °C 94 % 1010,6 hPa 0,0 mm 5,1 km/h (1 Bft) O-NO 57 ° 0 min 0,000 mm 0,0 UV-I 0 W/m² 5,0 °C 5,1 °C 6,4 km/h (2 Bft)
11.04.2019 03:45 5,9 °C 94 % 1010,6 hPa 0,0 mm 1,7 km/h (1 Bft) O-NO 57 ° 0 min 0,000 mm 0,0 UV-I 0 W/m² 5,0 °C 5,9 °C 3,2 km/h (1 Bft)
11.04.2019 03:46 5,9 °C 94 % 1010,6 hPa 0,0 mm 4,2 km/h (1 Bft) NO 55 ° 0 min 0,000 mm 0,0 UV-I 0 W/m² 5,0 °C 5,9 °C 8,0 km/h (2 Bft)
11.04.2019 03:47 5,9 °C 94 % 1010,6 hPa 0,0 mm 7,2 km/h (2 Bft) O-NO 57 ° 0 min 0,000 mm 0,0 UV-I 0 W/m² 5,0 °C 4,4 °C 12,9 km/h (3 Bft)
11.04.2019 03:48 5,9 °C 94 % 1010,6 hPa 0,0 mm 6,6 km/h (2 Bft) O-NO 63 ° 0 min 0,000 mm 0,0 UV-I 0 W/m² 5,0 °C 4,6 °C 9,7 km/h (2 Bft)
11.04.2019 03:49 5,8 °C 94 % 1010,6 hPa 0,0 mm 5,1 km/h (1 Bft) NO 49 ° 0 min 0,000 mm 0,0 UV-I 0 W/m² 4,9 °C 5,0 °C 8,0 km/h (2 Bft)
11.04.2019 03:50 5,8 °C 94 % 1010,6 hPa 0,0 mm 0,6 km/h (0 Bft) NO 49 ° 0 min 0,000 mm 0,0 UV-I 0 W/m² 4,9 °C 5,8 °C 1,6 km/h (1 Bft)
11.04.2019 03:51 5,9 °C 94 % 1010,6 hPa 0,0 mm 1,1 km/h (1 Bft) O 96 ° 0 min 0,000 mm 0,0 UV-I 0 W/m² 5,0 °C 5,9 °C 6,4 km/h (2 Bft)
11.04.2019 03:52 5,9 °C 94 % 1010,6 hPa 0,0 mm 4,7 km/h (1 Bft) NO 55 ° 0 min 0,000 mm 0,0 UV-I 0 W/m² 5,0 °C 5,2 °C 9,7 km/h (2 Bft)
11.04.2019 03:53 5,8 °C 94 % 1010,6 hPa 0,0 mm 1,0 km/h (0 Bft) NO 55 ° 0 min 0,000 mm 0,0 UV-I 0 W/m² 4,9 °C 5,8 °C 3,2 km/h (1 Bft)
11.04.2019 03:54 5,9 °C 94 % 1010,6 hPa 0,0 mm 2,9 km/h (1 Bft) NO 45 ° 0 min 0,000 mm 0,0 UV-I 0 W/m² 5,0 °C 5,9 °C 6,4 km/h (2 Bft)
11.04.2019 03:55 5,8 °C 94 % 1010,6 hPa 0,0 mm 0,1 km/h (0 Bft) NO 45 ° 0 min 0,000 mm 0,0 UV-I 0 W/m² 4,9 °C 5,8 °C 1,6 km/h (1 Bft)
11.04.2019 03:56 5,9 °C 94 % 1010,6 hPa 0,0 mm 1,0 km/h (0 Bft) O-NO 74 ° 0 min 0,000 mm 0,0 UV-I 0 W/m² 5,0 °C 5,9 °C 4,8 km/h (1 Bft)
11.04.2019 03:57 5,9 °C 94 % 1010,6 hPa 0,0 mm 0,0 km/h (0 Bft) NO 40 ° 0 min 0,000 mm 0,0 UV-I 0 W/m² 5,0 °C 5,9 °C 0,0 km/h (0 Bft)
11.04.2019 03:58 5,9 °C 94 % 1010,6 hPa 0,0 mm 2,3 km/h (1 Bft) O 84 ° 0 min 0,000 mm 0,0 UV-I 0 W/m² 5,0 °C 5,9 °C 9,7 km/h (2 Bft)
11.04.2019 03:59 5,8 °C 94 % 1010,6 hPa 0,0 mm 4,6 km/h (1 Bft) O-NO 65 ° 0 min 0,000 mm 0,0 UV-I 0 W/m² 4,9 °C 5,1 °C 9,7 km/h (2 Bft)
11.04.2019 04:00 5,8 °C 94 % 1010,6 hPa 0,0 mm 3,1 km/h (1 Bft) NO 51 ° 0 min 0,000 mm 0,0 UV-I 0 W/m² 4,9 °C 5,8 °C 8,0 km/h (2 Bft)
11.04.2019 04:01 5,9 °C 94 % 1010,7 hPa 0,0 mm 0,5 km/h (0 Bft) NO 54 ° 0 min 0,000 mm 0,0 UV-I 0 W/m² 5,0 °C 5,9 °C 3,2 km/h (1 Bft)
11.04.2019 04:02 5,9 °C 94 % 1010,6 hPa 0,0 mm 4,5 km/h (1 Bft) NO 55 ° 0 min 0,000 mm 0,0 UV-I 0 W/m² 5,0 °C 5,9 °C 8,0 km/h (2 Bft)
11.04.2019 04:03 5,9 °C 94 % 1010,6 hPa 0,0 mm 4,6 km/h (1 Bft) O 82 ° 0 min 0,000 mm 0,0 UV-I 0 W/m² 5,0 °C 5,3 °C 8,0 km/h (2 Bft)
11.04.2019 04:04 5,9 °C 94 % 1010,6 hPa 0,0 mm 3,0 km/h (1 Bft) O-NO 69 ° 0 min 0,000 mm 0,0 UV-I 0 W/m² 5,0 °C 5,9 °C 6,4 km/h (2 Bft)
11.04.2019 04:05 5,8 °C 94 % 1010,6 hPa 0,0 mm 3,3 km/h (1 Bft) O-NO 72 ° 0 min 0,000 mm 0,0 UV-I 0 W/m² 4,9 °C 5,8 °C 6,4 km/h (2 Bft)
11.04.2019 04:06 5,8 °C 94 % 1010,6 hPa 0,0 mm 7,6 km/h (2 Bft) N-NO 30 ° 0 min 0,000 mm 0,0 UV-I 0 W/m² 4,9 °C 4,2 °C 12,9 km/h (3 Bft)
11.04.2019 04:07 5,8 °C 94 % 1010,6 hPa 0,0 mm 4,7 km/h (1 Bft) O-NO 60 ° 0 min 0,000 mm 0,0 UV-I 0 W/m² 4,9 °C 5,1 °C 9,7 km/h (2 Bft)
11.04.2019 04:08 5,8 °C 94 % 1010,6 hPa 0,0 mm 5,7 km/h (1 Bft) O-NO 78 ° 0 min 0,000 mm 0,0 UV-I 0 W/m² 4,9 °C 4,7 °C 9,7 km/h (2 Bft)
11.04.2019 04:09 5,8 °C 94 % 1010,6 hPa 0,0 mm 5,2 km/h (1 Bft) O-NO 60 ° 0 min 0,000 mm 0,0 UV-I 0 W/m² 4,9 °C 4,9 °C 11,3 km/h (2 Bft)
11.04.2019 04:10 5,8 °C 94 % 1010,6 hPa 0,0 mm 4,4 km/h (1 Bft) O-NO 57 ° 0 min 0,000 mm 0,0 UV-I 0 W/m² 4,9 °C 5,8 °C 6,4 km/h (2 Bft)
11.04.2019 04:11 5,8 °C 94 % 1010,6 hPa 0,0 mm 1,9 km/h (1 Bft) NO 49 ° 0 min 0,000 mm 0,0 UV-I 0 W/m² 4,9 °C 5,8 °C 4,8 km/h (1 Bft)
11.04.2019 04:12 5,8 °C 94 % 1010,7 hPa 0,0 mm 0,1 km/h (0 Bft) NO 49 ° 0 min 0,000 mm 0,0 UV-I 0 W/m² 4,9 °C 5,8 °C 1,6 km/h (1 Bft)
11.04.2019 04:13 5,8 °C 94 % 1010,6 hPa 0,0 mm 0,3 km/h (0 Bft) NO 49 ° 0 min 0,000 mm 0,0 UV-I 0 W/m² 4,9 °C 5,8 °C 4,8 km/h (1 Bft)
11.04.2019 04:14 5,8 °C 94 % 1010,6 hPa 0,0 mm 2,3 km/h (1 Bft) O-NO 65 ° 0 min 0,000 mm 0,0 UV-I 0 W/m² 4,9 °C 5,8 °C 4,8 km/h (1 Bft)
11.04.2019 04:15 5,8 °C 94 % 1010,7 hPa 0,0 mm 1,9 km/h (1 Bft) O-NO 78 ° 0 min 0,000 mm 0,0 UV-I 0 W/m² 4,9 °C 5,8 °C 4,8 km/h (1 Bft)
11.04.2019 04:16 5,8 °C 94 % 1010,7 hPa 0,0 mm 5,0 km/h (1 Bft) O-NO 63 ° 0 min 0,000 mm 0,0 UV-I 0 W/m² 4,9 °C 5,0 °C 8,0 km/h (2 Bft)
11.04.2019 04:17 5,8 °C 94 % 1010,7 hPa 0,0 mm 9,4 km/h (2 Bft) N-NO 32 ° 0 min 0,000 mm 0,0 UV-I 0 W/m² 4,9 °C 3,7 °C 14,5 km/h (3 Bft)
11.04.2019 04:18 5,8 °C 94 % 1010,7 hPa 0,0 mm 5,0 km/h (1 Bft) NO 56 ° 0 min 0,000 mm 0,0 UV-I 0 W/m² 4,9 °C 5,0 °C 8,0 km/h (2 Bft)
11.04.2019 04:19 5,8 °C 94 % 1010,7 hPa 0,0 mm 5,7 km/h (1 Bft) NO 35 ° 0 min 0,000 mm 0,0 UV-I 0 W/m² 4,9 °C 4,7 °C 9,7 km/h (2 Bft)
11.04.2019 04:20 5,8 °C 94 % 1010,7 hPa 0,0 mm 6,9 km/h (2 Bft) O 90 ° 0 min 0,000 mm 0,0 UV-I 0 W/m² 4,9 °C 4,4 °C 14,5 km/h (3 Bft)
11.04.2019 04:21 5,8 °C 94 % 1010,7 hPa 0,0 mm 7,1 km/h (2 Bft) N-NO 30 ° 0 min 0,000 mm 0,0 UV-I 0 W/m² 4,9 °C 4,3 °C 9,7 km/h (2 Bft)
11.04.2019 04:22 5,8 °C 94 % 1010,7 hPa 0,0 mm 0,2 km/h (0 Bft) N-NO 33 ° 0 min 0,000 mm 0,0 UV-I 0 W/m² 4,9 °C 5,8 °C 1,6 km/h (1 Bft)
11.04.2019 04:23 5,8 °C 94 % 1010,7 hPa 0,0 mm 0,0 km/h (0 Bft) NO 36 ° 0 min 0,000 mm 0,0 UV-I 0 W/m² 4,9 °C 5,8 °C 0,0 km/h (0 Bft)
11.04.2019 04:24 5,8 °C 94 % 1010,7 hPa 0,0 mm 0,0 km/h (0 Bft) NO 36 ° 0 min 0,000 mm 0,0 UV-I 0 W/m² 4,9 °C 5,8 °C 0,0 km/h (0 Bft)
11.04.2019 04:25 5,8 °C 94 % 1010,7 hPa 0,0 mm 2,7 km/h (1 Bft) O-NO 65 ° 0 min 0,000 mm 0,0 UV-I 0 W/m² 4,9 °C 5,8 °C 6,4 km/h (2 Bft)
11.04.2019 04:26 5,8 °C 94 % 1010,7 hPa 0,0 mm 6,1 km/h (2 Bft) O-NO 61 ° 0 min 0,000 mm 0,0 UV-I 0 W/m² 4,9 °C 4,6 °C 9,7 km/h (2 Bft)
11.04.2019 04:27 5,8 °C 94 % 1010,8 hPa 0,0 mm 5,6 km/h (1 Bft) O 80 ° 0 min 0,000 mm 0,0 UV-I 0 W/m² 4,9 °C 4,8 °C 8,0 km/h (2 Bft)
11.04.2019 04:28 5,8 °C 94 % 1010,8 hPa 0,0 mm 5,9 km/h (2 Bft) O-NO 76 ° 0 min 0,000 mm 0,0 UV-I 0 W/m² 4,9 °C 4,7 °C 9,7 km/h (2 Bft)
11.04.2019 04:29 5,8 °C 94 % 1010,7 hPa 0,0 mm 8,9 km/h (2 Bft) NO 48 ° 0 min 0,000 mm 0,0 UV-I 0 W/m² 4,9 °C 3,9 °C 12,9 km/h (3 Bft)
11.04.2019 04:30 5,8 °C 94 % 1010,7 hPa 0,0 mm 4,4 km/h (1 Bft) O 90 ° 0 min 0,000 mm 0,0 UV-I 0 W/m² 4,9 °C 5,8 °C 6,4 km/h (2 Bft)
11.04.2019 04:31 5,8 °C 94 % 1010,7 hPa 0,0 mm 7,3 km/h (2 Bft) O-NO 59 ° 0 min 0,000 mm 0,0 UV-I 0 W/m² 4,9 °C 4,3 °C 12,9 km/h (3 Bft)
11.04.2019 04:32 5,8 °C 94 % 1010,7 hPa 0,0 mm 4,4 km/h (1 Bft) O-NO 57 ° 0 min 0,000 mm 0,0 UV-I 0 W/m² 4,9 °C 5,8 °C 11,3 km/h (2 Bft)
11.04.2019 04:33 5,8 °C 94 % 1010,7 hPa 0,0 mm 6,8 km/h (2 Bft) N 11 ° 0 min 0,000 mm 0,0 UV-I 0 W/m² 4,9 °C 4,4 °C 11,3 km/h (2 Bft)
11.04.2019 04:34 5,8 °C 94 % 1010,7 hPa 0,0 mm 3,4 km/h (1 Bft) NO 46 ° 0 min 0,000 mm 0,0 UV-I 0 W/m² 4,9 °C 5,8 °C 8,0 km/h (2 Bft)
11.04.2019 04:35 5,8 °C 94 % 1010,7 hPa 0,0 mm 2,5 km/h (1 Bft) O-NO 58 ° 0 min 0,000 mm 0,0 UV-I 0 W/m² 4,9 °C 5,8 °C 6,4 km/h (2 Bft)
11.04.2019 04:36 5,8 °C 94 % 1010,8 hPa 0,0 mm 0,7 km/h (0 Bft) O-NO 58 ° 0 min 0,000 mm 0,0 UV-I 0 W/m² 4,9 °C 5,8 °C 3,2 km/h (1 Bft)
11.04.2019 04:37 5,8 °C 94 % 1010,8 hPa 0,0 mm 0,4 km/h (0 Bft) O-NO 58 ° 0 min 0,000 mm 0,0 UV-I 0 W/m² 4,9 °C 5,8 °C 1,6 km/h (1 Bft)
11.04.2019 04:38 5,8 °C 94 % 1010,8 hPa 0,0 mm 1,2 km/h (1 Bft) N-NO 29 ° 0 min 0,000 mm 0,0 UV-I 0 W/m² 4,9 °C 5,8 °C 3,2 km/h (1 Bft)
11.04.2019 04:39 5,8 °C 94 % 1010,8 hPa 0,0 mm 0,6 km/h (0 Bft) NO 49 ° 0 min 0,000 mm 0,0 UV-I 0 W/m² 4,9 °C 5,8 °C 1,6 km/h (1 Bft)
11.04.2019 04:40 5,8 °C 94 % 1010,8 hPa 0,0 mm 2,2 km/h (1 Bft) NO 46 ° 0 min 0,000 mm 0,0 UV-I 0 W/m² 4,9 °C 5,8 °C 3,2 km/h (1 Bft)
11.04.2019 04:41 5,8 °C 94 % 1010,8 hPa 0,0 mm 5,5 km/h (1 Bft) O-NO 61 ° 0 min 0,000 mm 0,0 UV-I 0 W/m² 4,9 °C 4,8 °C 9,7 km/h (2 Bft)
11.04.2019 04:42 5,8 °C 94 % 1010,8 hPa 0,0 mm 3,1 km/h (1 Bft) NO 49 ° 0 min 0,000 mm 0,0 UV-I 0 W/m² 4,9 °C 5,8 °C 6,4 km/h (2 Bft)
11.04.2019 04:43 5,8 °C 94 % 1010,8 hPa 0,0 mm 1,7 km/h (1 Bft) O 101 ° 0 min 0,000 mm 0,0 UV-I 0 W/m² 4,9 °C 5,8 °C 6,4 km/h (2 Bft)
11.04.2019 04:44 5,8 °C 94 % 1010,8 hPa 0,0 mm 3,9 km/h (1 Bft) NO 51 ° 0 min 0,000 mm 0,0 UV-I 0 W/m² 4,9 °C 5,8 °C 11,3 km/h (2 Bft)
11.04.2019 04:45 5,8 °C 94 % 1010,8 hPa 0,0 mm 1,0 km/h (0 Bft) NO 51 ° 0 min 0,000 mm 0,0 UV-I 0 W/m² 4,9 °C 5,8 °C 3,2 km/h (1 Bft)
11.04.2019 04:46 5,8 °C 94 % 1010,8 hPa 0,0 mm 0,2 km/h (0 Bft) NO 51 ° 0 min 0,000 mm 0,0 UV-I 0 W/m² 4,9 °C 5,8 °C 1,6 km/h (1 Bft)
11.04.2019 04:47 5,8 °C 94 % 1010,7 hPa 0,0 mm 0,0 km/h (0 Bft) NO 51 ° 0 min 0,000 mm 0,0 UV-I 0 W/m² 4,9 °C 5,8 °C 0,0 km/h (0 Bft)
11.04.2019 04:48 5,8 °C 94 % 1010,8 hPa 0,0 mm 0,9 km/h (0 Bft) N 9 ° 0 min 0,000 mm 0,0 UV-I 0 W/m² 4,9 °C 5,8 °C 3,2 km/h (1 Bft)
11.04.2019 04:49 5,8 °C 94 % 1010,8 hPa 0,0 mm 2,2 km/h (1 Bft) N 5 ° 0 min 0,000 mm 0,0 UV-I 0 W/m² 4,9 °C 5,8 °C 6,4 km/h (2 Bft)
11.04.2019 04:50 5,8 °C 94 % 1010,8 hPa 0,0 mm 1,3 km/h (1 Bft) NO 44 ° 0 min 0,000 mm 0,0 UV-I 0 W/m² 4,9 °C 5,8 °C 6,4 km/h (2 Bft)
11.04.2019 04:51 5,8 °C 94 % 1010,8 hPa 0,0 mm 4,6 km/h (1 Bft) N-NO 13 ° 0 min 0,000 mm 0,0 UV-I 0 W/m² 4,9 °C 5,1 °C 6,4 km/h (2 Bft)
11.04.2019 04:52 5,8 °C 94 % 1010,8 hPa 0,0 mm 4,2 km/h (1 Bft) N-NO 25 ° 0 min 0,000 mm 0,0 UV-I 0 W/m² 4,9 °C 5,8 °C 6,4 km/h (2 Bft)
11.04.2019 04:53 5,8 °C 94 % 1010,8 hPa 0,0 mm 5,1 km/h (1 Bft) N 355 ° 0 min 0,000 mm 0,0 UV-I 0 W/m² 4,9 °C 5,0 °C 8,0 km/h (2 Bft)
11.04.2019 04:54 5,8 °C 94 % 1010,8 hPa 0,0 mm 3,8 km/h (1 Bft) N-NO 15 ° 0 min 0,000 mm 0,0 UV-I 0 W/m² 4,9 °C 5,8 °C 8,0 km/h (2 Bft)
11.04.2019 04:55 5,8 °C 94 % 1010,8 hPa 0,0 mm 1,1 km/h (1 Bft) N-NW 343 ° 0 min 0,000 mm 0,0 UV-I 0 W/m² 4,9 °C 5,8 °C 4,8 km/h (1 Bft)
11.04.2019 04:56 5,7 °C 94 % 1010,8 hPa 0,0 mm 0,9 km/h (0 Bft) N 350 ° 0 min 0,000 mm 0,0 UV-I 0 W/m² 4,8 °C 5,7 °C 3,2 km/h (1 Bft)
11.04.2019 04:57 5,7 °C 94 % 1010,8 hPa 0,0 mm 0,7 km/h (0 Bft) N 360 ° 0 min 0,000 mm 0,0 UV-I 0 W/m² 4,8 °C 5,7 °C 3,2 km/h (1 Bft)
11.04.2019 04:58 5,7 °C 94 % 1010,8 hPa 0,0 mm 2,7 km/h (1 Bft) N 5 ° 0 min 0,000 mm 0,0 UV-I 0 W/m² 4,8 °C 5,7 °C 6,4 km/h (2 Bft)
11.04.2019 04:59 5,7 °C 94 % 1010,8 hPa 0,0 mm 6,6 km/h (2 Bft) N 355 ° 0 min 0,000 mm 0,0 UV-I 0 W/m² 4,8 °C 4,3 °C 9,7 km/h (2 Bft)
11.04.2019 05:00 5,7 °C 94 % 1010,8 hPa 0,0 mm 4,2 km/h (1 Bft) N-NO 32 ° 0 min 0,000 mm 0,0 UV-I 0 W/m² 4,8 °C 5,7 °C 8,0 km/h (2 Bft)
11.04.2019 05:01 5,7 °C 94 % 1010,8 hPa 0,0 mm 2,9 km/h (1 Bft) N 360 ° 0 min 0,000 mm 0,0 UV-I 0 W/m² 4,8 °C 5,7 °C 6,4 km/h (2 Bft)
11.04.2019 05:02 5,6 °C 94 % 1010,9 hPa 0,0 mm 0,2 km/h (0 Bft) N 9 ° 0 min 0,000 mm 0,0 UV-I 0 W/m² 4,7 °C 5,6 °C 1,6 km/h (1 Bft)
11.04.2019 05:03 5,6 °C 94 % 1010,9 hPa 0,0 mm 0,0 km/h (0 Bft) N 9 ° 0 min 0,000 mm 0,0 UV-I 0 W/m² 4,7 °C 5,6 °C 0,0 km/h (0 Bft)
11.04.2019 05:04 5,6 °C 94 % 1010,9 hPa 0,0 mm 0,5 km/h (0 Bft) N 360 ° 0 min 0,000 mm 0,0 UV-I 0 W/m² 4,7 °C 5,6 °C 3,2 km/h (1 Bft)
11.04.2019 05:05 5,6 °C 94 % 1010,9 hPa 0,0 mm 3,6 km/h (1 Bft) N 355 ° 0 min 0,000 mm 0,0 UV-I 0 W/m² 4,7 °C 5,6 °C 6,4 km/h (2 Bft)
11.04.2019 05:06 5,6 °C 94 % 1010,8 hPa 0,0 mm 2,7 km/h (1 Bft) N 360 ° 0 min 0,000 mm 0,0 UV-I 0 W/m² 4,7 °C 5,6 °C 4,8 km/h (1 Bft)
11.04.2019 05:07 5,6 °C 94 % 1010,8 hPa 0,0 mm 5,8 km/h (2 Bft) N 11 ° 0 min 0,000 mm 0,0 UV-I 0 W/m² 4,7 °C 4,5 °C 6,4 km/h (2 Bft)
11.04.2019 05:08 5,6 °C 94 % 1010,9 hPa 0,0 mm 2,1 km/h (1 Bft) NO 35 ° 0 min 0,000 mm 0,0 UV-I 0 W/m² 4,7 °C 5,6 °C 3,2 km/h (1 Bft)
11.04.2019 05:09 5,6 °C 94 % 1010,8 hPa 0,0 mm 0,4 km/h (0 Bft) NO 35 ° 0 min 0,000 mm 0,0 UV-I 0 W/m² 4,7 °C 5,6 °C 1,6 km/h (1 Bft)
11.04.2019 05:10 5,6 °C 94 % 1010,9 hPa 0,0 mm 1,4 km/h (1 Bft) N-NW 345 ° 0 min 0,000 mm 0,0 UV-I 0 W/m² 4,7 °C 5,6 °C 4,8 km/h (1 Bft)
11.04.2019 05:11 5,6 °C 94 % 1010,9 hPa 0,0 mm 0,1 km/h (0 Bft) N-NW 345 ° 0 min 0,000 mm 0,0 UV-I 0 W/m² 4,7 °C 5,6 °C 1,6 km/h (1 Bft)
11.04.2019 05:12 5,6 °C 94 % 1010,9 hPa 0,0 mm 1,7 km/h (1 Bft) N-NW 335 ° 0 min 0,000 mm 0,0 UV-I 0 W/m² 4,7 °C 5,6 °C 4,8 km/h (1 Bft)
11.04.2019 05:13 5,6 °C 94 % 1010,9 hPa 0,0 mm 4,4 km/h (1 Bft) N-NO 12 ° 0 min 0,000 mm 0,0 UV-I 0 W/m² 4,7 °C 5,6 °C 8,0 km/h (2 Bft)
11.04.2019 05:14 5,6 °C 94 % 1010,9 hPa 0,0 mm 0,9 km/h (0 Bft) NO 44 ° 0 min 0,000 mm 0,0 UV-I 0 W/m² 4,7 °C 5,6 °C 4,8 km/h (1 Bft)
11.04.2019 05:15 5,6 °C 94 % 1010,9 hPa 0,0 mm 1,8 km/h (1 Bft) NO 50 ° 0 min 0,000 mm 0,0 UV-I 0 W/m² 4,7 °C 5,6 °C 4,8 km/h (1 Bft)
11.04.2019 05:16 5,6 °C 94 % 1010,9 hPa 0,0 mm 0,3 km/h (0 Bft) NO 42 ° 0 min 0,000 mm 0,0 UV-I 0 W/m² 4,7 °C 5,6 °C 4,8 km/h (1 Bft)
11.04.2019 05:17 5,6 °C 94 % 1010,9 hPa 0,0 mm 7,2 km/h (2 Bft) N-NO 29 ° 0 min 0,000 mm 0,0 UV-I 0 W/m² 4,7 °C 4,1 °C 11,3 km/h (2 Bft)
11.04.2019 05:18 5,6 °C 94 % 1010,9 hPa 0,0 mm 4,4 km/h (1 Bft) N-NO 18 ° 0 min 0,000 mm 0,0 UV-I 0 W/m² 4,7 °C 5,6 °C 6,4 km/h (2 Bft)
11.04.2019 05:19 5,6 °C 94 % 1010,9 hPa 0,0 mm 1,2 km/h (1 Bft) N-NO 31 ° 0 min 0,000 mm 0,0 UV-I 0 W/m² 4,7 °C 5,6 °C 4,8 km/h (1 Bft)
11.04.2019 05:20 5,6 °C 94 % 1010,9 hPa 0,0 mm 5,1 km/h (1 Bft) N-NO 22 ° 0 min 0,000 mm 0,0 UV-I 0 W/m² 4,7 °C 4,7 °C 9,7 km/h (2 Bft)
11.04.2019 05:21 5,5 °C 94 % 1011,0 hPa 0,0 mm 3,5 km/h (1 Bft) NO 46 ° 0 min 0,000 mm 0,0 UV-I 0 W/m² 4,6 °C 5,5 °C 8,0 km/h (2 Bft)
11.04.2019 05:22 5,6 °C 94 % 1011,0 hPa 0,0 mm 0,7 km/h (0 Bft) N 360 ° 0 min 0,000 mm 0,0 UV-I 0 W/m² 4,7 °C 5,6 °C 1,6 km/h (1 Bft)
11.04.2019 05:23 5,5 °C 94 % 1010,9 hPa 0,0 mm 1,5 km/h (1 Bft) N-NO 23 ° 0 min 0,000 mm 0,0 UV-I 0 W/m² 4,6 °C 5,5 °C 3,2 km/h (1 Bft)
11.04.2019 05:24 5,5 °C 94 % 1010,9 hPa 0,0 mm 5,8 km/h (2 Bft) N 360 ° 0 min 0,000 mm 0,0 UV-I 0 W/m² 4,6 °C 4,4 °C 9,7 km/h (2 Bft)
11.04.2019 05:25 5,5 °C 94 % 1010,9 hPa 0,0 mm 4,4 km/h (1 Bft) N-NO 12 ° 0 min 0,000 mm 0,0 UV-I 0 W/m² 4,6 °C 5,5 °C 6,4 km/h (2 Bft)
11.04.2019 05:26 5,5 °C 94 % 1010,9 hPa 0,0 mm 5,3 km/h (1 Bft) N-NO 22 ° 0 min 0,000 mm 0,0 UV-I 0 W/m² 4,6 °C 4,5 °C 8,0 km/h (2 Bft)
11.04.2019 05:27 5,5 °C 94 % 1010,9 hPa 0,0 mm 5,2 km/h (1 Bft) N 355 ° 0 min 0,000 mm 0,0 UV-I 0 W/m² 4,6 °C 4,6 °C 8,0 km/h (2 Bft)
11.04.2019 05:28 5,5 °C 94 % 1010,9 hPa 0,0 mm 0,5 km/h (0 Bft) N-NO 18 ° 0 min 0,000 mm 0,0 UV-I 0 W/m² 4,6 °C 5,5 °C 1,6 km/h (1 Bft)
11.04.2019 05:29 5,5 °C 94 % 1010,9 hPa 0,0 mm 7,5 km/h (2 Bft) N-NO 30 ° 0 min 0,000 mm 0,0 UV-I 0 W/m² 4,6 °C 3,9 °C 12,9 km/h (3 Bft)
11.04.2019 05:30 5,5 °C 95 % 1011,0 hPa 0,0 mm 3,7 km/h (1 Bft) NO 36 ° 0 min 0,000 mm 0,0 UV-I 0 W/m² 4,8 °C 5,5 °C 4,8 km/h (1 Bft)
11.04.2019 05:31 5,4 °C 95 % 1010,9 hPa 0,0 mm 4,8 km/h (1 Bft) N-NO 19 ° 0 min 0,000 mm 0,0 UV-I 0 W/m² 4,7 °C 4,6 °C 8,0 km/h (2 Bft)
11.04.2019 05:32 5,4 °C 95 % 1011,0 hPa 0,0 mm 3,9 km/h (1 Bft) N-NO 27 ° 0 min 0,000 mm 0,0 UV-I 0 W/m² 4,7 °C 5,4 °C 8,0 km/h (2 Bft)
11.04.2019 05:33 5,4 °C 94 % 1011,1 hPa 0,0 mm 4,4 km/h (1 Bft) N-NO 16 ° 0 min 0,000 mm 0,0 UV-I 0 W/m² 4,5 °C 5,4 °C 8,0 km/h (2 Bft)
11.04.2019 05:34 5,4 °C 94 % 1011,1 hPa 0,0 mm 7,1 km/h (2 Bft) N-NO 31 ° 0 min 0,000 mm 0,0 UV-I 0 W/m² 4,5 °C 3,8 °C 14,5 km/h (3 Bft)
11.04.2019 05:35 5,4 °C 94 % 1011,1 hPa 0,0 mm 5,6 km/h (1 Bft) NO 42 ° 0 min 0,000 mm 0,0 UV-I 0 W/m² 4,5 °C 4,3 °C 9,7 km/h (2 Bft)
11.04.2019 05:36 5,4 °C 94 % 1011,1 hPa 0,0 mm 4,1 km/h (1 Bft) O 81 ° 0 min 0,000 mm 0,0 UV-I 0 W/m² 4,5 °C 5,4 °C 8,0 km/h (2 Bft)
11.04.2019 05:37 5,4 °C 94 % 1011,1 hPa 0,0 mm 2,6 km/h (1 Bft) N 355 ° 0 min 0,000 mm 0,0 UV-I 0 W/m² 4,5 °C 5,4 °C 6,4 km/h (2 Bft)
11.04.2019 05:38 5,4 °C 94 % 1011,1 hPa 0,0 mm 4,4 km/h (1 Bft) N 5 ° 0 min 0,000 mm 0,0 UV-I 0 W/m² 4,5 °C 5,4 °C 8,0 km/h (2 Bft)
11.04.2019 05:39 5,4 °C 94 % 1011,1 hPa 0,0 mm 3,5 km/h (1 Bft) N 355 ° 0 min 0,000 mm 0,0 UV-I 0 W/m² 4,5 °C 5,4 °C 8,0 km/h (2 Bft)
11.04.2019 05:40 5,4 °C 94 % 1011,1 hPa 0,0 mm 6,8 km/h (2 Bft) N 355 ° 0 min 0,000 mm 0,0 UV-I 0 W/m² 4,5 °C 3,9 °C 12,9 km/h (3 Bft)
11.04.2019 05:41 5,4 °C 94 % 1011,1 hPa 0,0 mm 3,4 km/h (1 Bft) N-NO 24 ° 0 min 0,000 mm 0,0 UV-I 0 W/m² 4,5 °C 5,4 °C 6,4 km/h (2 Bft)
11.04.2019 05:42 5,4 °C 94 % 1011,1 hPa 0,0 mm 4,1 km/h (1 Bft) N-NO 33 ° 0 min 0,000 mm 0,0 UV-I 0 W/m² 4,5 °C 5,4 °C 8,0 km/h (2 Bft)
11.04.2019 05:43 5,3 °C 94 % 1011,1 hPa 0,0 mm 3,1 km/h (1 Bft) NO 44 ° 0 min 0,000 mm 0,0 UV-I 0 W/m² 4,4 °C 5,3 °C 6,4 km/h (2 Bft)
11.04.2019 05:44 5,3 °C 94 % 1011,1 hPa 0,0 mm 3,5 km/h (1 Bft) N 5 ° 0 min 0,000 mm 0,0 UV-I 0 W/m² 4,4 °C 5,3 °C 8,0 km/h (2 Bft)
11.04.2019 05:45 5,4 °C 94 % 1011,1 hPa 0,0 mm 2,5 km/h (1 Bft) N 360 ° 0 min 0,000 mm 0,0 UV-I 0 W/m² 4,5 °C 5,4 °C 8,0 km/h (2 Bft)
11.04.2019 05:46 5,3 °C 94 % 1011,1 hPa 0,0 mm 8,1 km/h (2 Bft) NO 42 ° 0 min 0,000 mm 0,0 UV-I 0 W/m² 4,4 °C 3,5 °C 14,5 km/h (3 Bft)
11.04.2019 05:47 5,3 °C 94 % 1011,1 hPa 0,0 mm 5,6 km/h (1 Bft) NO 51 ° 0 min 0,000 mm 0,0 UV-I 0 W/m² 4,4 °C 4,2 °C 8,0 km/h (2 Bft)
11.04.2019 05:48 5,3 °C 94 % 1011,1 hPa 0,0 mm 5,6 km/h (1 Bft) N-NO 25 ° 0 min 0,000 mm 0,0 UV-I 0 W/m² 4,4 °C 4,2 °C 8,0 km/h (2 Bft)
11.04.2019 05:49 5,3 °C 94 % 1011,1 hPa 0,0 mm 6,0 km/h (2 Bft) N 11 ° 0 min 0,000 mm 0,0 UV-I 0 W/m² 4,4 °C 4,1 °C 8,0 km/h (2 Bft)
11.04.2019 05:50 5,3 °C 94 % 1011,1 hPa 0,0 mm 4,0 km/h (1 Bft) NO 38 ° 0 min 0,000 mm 0,0 UV-I 0 W/m² 4,4 °C 5,3 °C 4,8 km/h (1 Bft)
11.04.2019 05:51 5,3 °C 94 % 1011,1 hPa 0,0 mm 4,7 km/h (1 Bft) NO 35 ° 0 min 0,000 mm 0,0 UV-I 0 W/m² 4,4 °C 4,5 °C 6,4 km/h (2 Bft)
11.04.2019 05:52 5,3 °C 94 % 1011,1 hPa 0,0 mm 4,0 km/h (1 Bft) N 5 ° 0 min 0,000 mm 0,0 UV-I 0 W/m² 4,4 °C 5,3 °C 4,8 km/h (1 Bft)
11.04.2019 05:53 5,3 °C 94 % 1011,1 hPa 0,0 mm 6,4 km/h (2 Bft) NO 40 ° 0 min 0,000 mm 0,0 UV-I 0 W/m² 4,4 °C 3,9 °C 8,0 km/h (2 Bft)
11.04.2019 05:54 5,3 °C 94 % 1011,2 hPa 0,0 mm 6,4 km/h (2 Bft) NO 49 ° 0 min 0,000 mm 0,0 UV-I 0 W/m² 4,4 °C 3,9 °C 8,0 km/h (2 Bft)
11.04.2019 05:55 5,3 °C 94 % 1011,2 hPa 0,0 mm 3,5 km/h (1 Bft) N-NO 29 ° 0 min 0,000 mm 0,0 UV-I 0 W/m² 4,4 °C 5,3 °C 4,8 km/h (1 Bft)
11.04.2019 05:56 5,3 °C 94 % 1011,2 hPa 0,0 mm 5,6 km/h (1 Bft) N-NO 30 ° 0 min 0,000 mm 0,0 UV-I 0 W/m² 4,4 °C 4,2 °C 6,4 km/h (2 Bft)
11.04.2019 05:57 5,3 °C 94 % 1011,1 hPa 0,0 mm 3,5 km/h (1 Bft) N-NO 30 ° 0 min 0,000 mm 0,0 UV-I 0 W/m² 4,4 °C 5,3 °C 6,4 km/h (2 Bft)
11.04.2019 05:58 5,3 °C 94 % 1011,1 hPa 0,0 mm 1,3 km/h (1 Bft) N-NO 30 ° 0 min 0,000 mm 0,0 UV-I 0 W/m² 4,4 °C 5,3 °C 4,8 km/h (1 Bft)
11.04.2019 05:59 5,3 °C 94 % 1011,1 hPa 0,0 mm 2,4 km/h (1 Bft) NO 52 ° 0 min 0,000 mm 0,0 UV-I 0 W/m² 4,4 °C 5,3 °C 6,4 km/h (2 Bft)
11.04.2019 06:00 5,3 °C 94 % 1011,1 hPa 0,0 mm 0,3 km/h (0 Bft) N-NO 30 ° 0 min 0,000 mm 0,0 UV-I 0 W/m² 4,4 °C 5,3 °C 1,6 km/h (1 Bft)
11.04.2019 06:01 5,3 °C 94 % 1011,2 hPa 0,0 mm 1,8 km/h (1 Bft) N-NO 25 ° 0 min 0,000 mm 0,0 UV-I 0 W/m² 4,4 °C 5,3 °C 8,0 km/h (2 Bft)
11.04.2019 06:02 5,3 °C 94 % 1011,2 hPa 0,0 mm 6,1 km/h (2 Bft) N-NO 17 ° 0 min 0,000 mm 0,0 UV-I 0 W/m² 4,4 °C 4,0 °C 8,0 km/h (2 Bft)
11.04.2019 06:03 5,3 °C 94 % 1011,2 hPa 0,0 mm 6,2 km/h (2 Bft) N-NO 24 ° 0 min 0,000 mm 0,0 UV-I 0 W/m² 4,4 °C 4,0 °C 11,3 km/h (2 Bft)
11.04.2019 06:04 5,3 °C 94 % 1011,2 hPa 0,0 mm 5,2 km/h (1 Bft) NO 42 ° 0 min 0,000 mm 0,0 UV-I 0 W/m² 4,4 °C 4,3 °C 8,0 km/h (2 Bft)
11.04.2019 06:05 5,2 °C 95 % 1011,2 hPa 0,0 mm 3,5 km/h (1 Bft) N-NO 26 ° 0 min 0,000 mm 0,0 UV-I 0 W/m² 4,5 °C 5,2 °C 6,4 km/h (2 Bft)
11.04.2019 06:06 5,3 °C 94 % 1011,2 hPa 0,0 mm 3,8 km/h (1 Bft) NO 36 ° 0 min 0,000 mm 0,0 UV-I 0 W/m² 4,4 °C 5,3 °C 9,7 km/h (2 Bft)
11.04.2019 06:07 5,2 °C 95 % 1011,2 hPa 0,0 mm 0,3 km/h (0 Bft) N-NO 22 ° 0 min 0,000 mm 0,0 UV-I 0 W/m² 4,5 °C 5,2 °C 1,6 km/h (1 Bft)
11.04.2019 06:08 5,2 °C 95 % 1011,2 hPa 0,0 mm 0,0 km/h (0 Bft) N 355 ° 0 min 0,000 mm 0,0 UV-I 0 W/m² 4,5 °C 5,2 °C 0,0 km/h (0 Bft)
11.04.2019 06:09 5,2 °C 95 % 1011,2 hPa 0,0 mm 0,0 km/h (0 Bft) N 351 ° 0 min 0,000 mm 0,0 UV-I 0 W/m² 4,5 °C 5,2 °C 0,0 km/h (0 Bft)
11.04.2019 06:10 5,2 °C 95 % 1011,2 hPa 0,0 mm 0,6 km/h (0 Bft) NO 34 ° 0 min 0,000 mm 0,0 UV-I 0 W/m² 4,5 °C 5,2 °C 4,8 km/h (1 Bft)
11.04.2019 06:11 5,2 °C 95 % 1011,2 hPa 0,0 mm 1,5 km/h (1 Bft) NO 55 ° 0 min 0,000 mm 0,0 UV-I 0 W/m² 4,5 °C 5,2 °C 6,4 km/h (2 Bft)
11.04.2019 06:12 5,2 °C 95 % 1011,2 hPa 0,0 mm 4,9 km/h (1 Bft) N-NO 13 ° 0 min 0,000 mm 0,0 UV-I 0 W/m² 4,5 °C 4,3 °C 8,0 km/h (2 Bft)
11.04.2019 06:13 5,2 °C 95 % 1011,2 hPa 0,0 mm 5,7 km/h (1 Bft) N-NO 15 ° 0 min 0,000 mm 0,0 UV-I 0 W/m² 4,5 °C 4,1 °C 8,0 km/h (2 Bft)
11.04.2019 06:14 5,2 °C 95 % 1011,2 hPa 0,0 mm 6,2 km/h (2 Bft) N 360 ° 0 min 0,000 mm 0,0 UV-I 0 W/m² 4,5 °C 3,9 °C 11,3 km/h (2 Bft)
11.04.2019 06:15 5,1 °C 95 % 1011,3 hPa 0,0 mm 1,9 km/h (1 Bft) N-NO 12 ° 0 min 0,000 mm 0,0 UV-I 0 W/m² 4,4 °C 5,1 °C 6,4 km/h (2 Bft)
11.04.2019 06:16 5,1 °C 94 % 1011,3 hPa 0,0 mm 2,9 km/h (1 Bft) NO 36 ° 0 min 0,000 mm 0,0 UV-I 0 W/m² 4,2 °C 5,1 °C 4,8 km/h (1 Bft)
11.04.2019 06:17 5,1 °C 94 % 1011,3 hPa 0,0 mm 2,5 km/h (1 Bft) N-NO 23 ° 0 min 0,000 mm 0,0 UV-I 0 W/m² 4,2 °C 5,1 °C 6,4 km/h (2 Bft)
11.04.2019 06:18 5,1 °C 94 % 1011,3 hPa 0,0 mm 7,9 km/h (2 Bft) N-NW 342 ° 0 min 0,000 mm 0,0 UV-I 0 W/m² 4,2 °C 3,3 °C 16,1 km/h (3 Bft)
11.04.2019 06:19 5,0 °C 94 % 1011,3 hPa 0,0 mm 6,6 km/h (2 Bft) N 360 ° 0 min 0,000 mm 0,0 UV-I 0 W/m² 4,1 °C 3,5 °C 8,0 km/h (2 Bft)
11.04.2019 06:20 4,9 °C 94 % 1011,4 hPa 0,0 mm 6,3 km/h (2 Bft) NO 45 ° 0 min 0,000 mm 0,0 UV-I 0 W/m² 4,0 °C 3,5 °C 9,7 km/h (2 Bft)
11.04.2019 06:21 4,9 °C 95 % 1011,3 hPa 0,0 mm 6,4 km/h (2 Bft) N 349 ° 0 min 0,000 mm 0,0 UV-I 0 W/m² 4,2 °C 3,5 °C 12,9 km/h (3 Bft)
11.04.2019 06:22 4,9 °C 95 % 1011,4 hPa 0,0 mm 4,8 km/h (1 Bft) N 5 ° 0 min 0,000 mm 0,0 UV-I 0 W/m² 4,2 °C 4,0 °C 9,7 km/h (2 Bft)
11.04.2019 06:23 4,9 °C 95 % 1011,4 hPa 0,0 mm 2,3 km/h (1 Bft) NO 51 ° 0 min 0,000 mm 0,0 UV-I 0 W/m² 4,2 °C 4,9 °C 6,4 km/h (2 Bft)
11.04.2019 06:24 4,9 °C 95 % 1011,4 hPa 0,0 mm 1,1 km/h (1 Bft) N-NO 24 ° 0 min 0,000 mm 0,0 UV-I 0 W/m² 4,2 °C 4,9 °C 4,8 km/h (1 Bft)
11.04.2019 06:25 4,9 °C 95 % 1011,5 hPa 0,0 mm 5,1 km/h (1 Bft) NO 42 ° 0 min 0,000 mm 0,0 UV-I 0 W/m² 4,2 °C 3,9 °C 8,0 km/h (2 Bft)
11.04.2019 06:26 4,9 °C 95 % 1011,4 hPa 0,0 mm 4,0 km/h (1 Bft) NO 40 ° 0 min 0,000 mm 0,0 UV-I 0 W/m² 4,2 °C 4,9 °C 8,0 km/h (2 Bft)
11.04.2019 06:27 4,9 °C 95 % 1011,5 hPa 0,0 mm 0,0 km/h (0 Bft) NO 40 ° 0 min 0,000 mm 0,0 UV-I 0 W/m² 4,2 °C 4,9 °C 0,0 km/h (0 Bft)
11.04.2019 06:28 4,9 °C 95 % 1011,5 hPa 0,0 mm 1,1 km/h (1 Bft) N-NO 31 ° 0 min 0,000 mm 0,0 UV-I 0 W/m² 4,2 °C 4,9 °C 3,2 km/h (1 Bft)
11.04.2019 06:29 4,9 °C 95 % 1011,5 hPa 0,0 mm 3,0 km/h (1 Bft) N-NO 15 ° 0 min 0,000 mm 0,0 UV-I 0 W/m² 4,2 °C 4,9 °C 4,8 km/h (1 Bft)
11.04.2019 06:30 4,9 °C 95 % 1011,5 hPa 0,0 mm 5,6 km/h (1 Bft) N-NO 15 ° 0 min 0,000 mm 0,0 UV-I 0 W/m² 4,2 °C 3,7 °C 8,0 km/h (2 Bft)
11.04.2019 06:31 4,9 °C 95 % 1011,5 hPa 0,0 mm 1,1 km/h (1 Bft) N-NO 15 ° 0 min 0,000 mm 0,0 UV-I 0 W/m² 4,2 °C 4,9 °C 4,8 km/h (1 Bft)
11.04.2019 06:32 4,8 °C 95 % 1011,5 hPa 0,0 mm 0,0 km/h (0 Bft) N-NO 15 ° 0 min 0,000 mm 0,0 UV-I 0 W/m² 4,1 °C 4,8 °C 0,0 km/h (0 Bft)
11.04.2019 06:33 4,8 °C 95 % 1011,5 hPa 0,0 mm 0,1 km/h (0 Bft) N-NO 15 ° 0 min 0,000 mm 0,0 UV-I 0 W/m² 4,1 °C 4,8 °C 1,6 km/h (1 Bft)
11.04.2019 06:34 4,8 °C 95 % 1011,6 hPa 0,0 mm 3,2 km/h (1 Bft) N-NO 29 ° 0 min 0,000 mm 0,0 UV-I 0 W/m² 4,1 °C 4,8 °C 8,0 km/h (2 Bft)
11.04.2019 06:35 4,9 °C 95 % 1011,6 hPa 0,0 mm 6,4 km/h (2 Bft) N-NO 29 ° 0 min 0,000 mm 0,0 UV-I 0 W/m² 4,2 °C 3,5 °C 8,0 km/h (2 Bft)
11.04.2019 06:36 4,9 °C 95 % 1011,6 hPa 0,0 mm 4,5 km/h (1 Bft) NO 54 ° 0 min 0,000 mm 0,0 UV-I 0 W/m² 4,2 °C 4,9 °C 8,0 km/h (2 Bft)
11.04.2019 06:37 4,8 °C 95 % 1011,6 hPa 0,0 mm 3,8 km/h (1 Bft) NO 50 ° 0 min 0,000 mm 0,0 UV-I 0 W/m² 4,1 °C 4,8 °C 8,0 km/h (2 Bft)
11.04.2019 06:38 4,8 °C 95 % 1011,6 hPa 0,0 mm 1,4 km/h (1 Bft) NO 49 ° 0 min 0,000 mm 0,0 UV-I 0 W/m² 4,1 °C 4,8 °C 3,2 km/h (1 Bft)
11.04.2019 06:39 4,9 °C 95 % 1011,6 hPa 0,0 mm 3,0 km/h (1 Bft) N 355 ° 0 min 0,000 mm 0,0 UV-I 0 W/m² 4,2 °C 4,9 °C 4,8 km/h (1 Bft)
11.04.2019 06:40 4,8 °C 95 % 1011,6 hPa 0,0 mm 2,6 km/h (1 Bft) N-NO 15 ° 0 min 0,000 mm 0,0 UV-I 0 W/m² 4,1 °C 4,8 °C 8,0 km/h (2 Bft)
11.04.2019 06:41 4,8 °C 95 % 1011,6 hPa 0,0 mm 4,6 km/h (1 Bft) N-NO 29 ° 0 min 0,000 mm 0,0 UV-I 0 W/m² 4,1 °C 4,0 °C 8,0 km/h (2 Bft)
11.04.2019 06:42 4,8 °C 95 % 1011,6 hPa 0,0 mm 2,7 km/h (1 Bft) NO 38 ° 0 min 0,000 mm 0,0 UV-I 0 W/m² 4,1 °C 4,8 °C 6,4 km/h (2 Bft)
11.04.2019 06:43 4,8 °C 95 % 1011,6 hPa 0,0 mm 1,3 km/h (1 Bft) NO 38 ° 0 min 0,000 mm 0,0 UV-I 0 W/m² 4,1 °C 4,8 °C 4,8 km/h (1 Bft)
11.04.2019 06:44 4,8 °C 95 % 1011,6 hPa 0,0 mm 1,9 km/h (1 Bft) NO 42 ° 0 min 0,000 mm 0,0 UV-I 0 W/m² 4,1 °C 4,8 °C 4,8 km/h (1 Bft)
11.04.2019 06:45 4,8 °C 95 % 1011,6 hPa 0,0 mm 1,9 km/h (1 Bft) NO 40 ° 0 min 0,000 mm 0,0 UV-I 0 W/m² 4,1 °C 4,8 °C 4,8 km/h (1 Bft)
11.04.2019 06:46 4,8 °C 95 % 1011,6 hPa 0,0 mm 0,5 km/h (0 Bft) NO 40 ° 0 min 0,000 mm 0,0 UV-I 0 W/m² 4,1 °C 4,8 °C 3,2 km/h (1 Bft)
11.04.2019 06:47 4,8 °C 95 % 1011,6 hPa 0,0 mm 2,6 km/h (1 Bft) N 360 ° 0 min 0,000 mm 0,0 UV-I 0 W/m² 4,1 °C 4,8 °C 4,8 km/h (1 Bft)
11.04.2019 06:48 4,8 °C 95 % 1011,6 hPa 0,0 mm 1,5 km/h (1 Bft) N 355 ° 0 min 0,000 mm 0,0 UV-I 0 W/m² 4,1 °C 4,8 °C 4,8 km/h (1 Bft)
11.04.2019 06:49 4,8 °C 95 % 1011,6 hPa 0,0 mm 0,0 km/h (0 Bft) N 355 ° 0 min 0,000 mm 0,0 UV-I 0 W/m² 4,1 °C 4,8 °C 0,0 km/h (0 Bft)
11.04.2019 06:50 4,8 °C 95 % 1011,6 hPa 0,0 mm 0,0 km/h (0 Bft) N 355 ° 0 min 0,000 mm 0,0 UV-I 0 W/m² 4,1 °C 4,8 °C 0,0 km/h (0 Bft)
11.04.2019 06:51 4,8 °C 95 % 1011,7 hPa 0,0 mm 0,2 km/h (0 Bft) O-NO 69 ° 0 min 0,000 mm 0,0 UV-I 0 W/m² 4,1 °C 4,8 °C 1,6 km/h (1 Bft)
11.04.2019 06:52 4,8 °C 95 % 1011,7 hPa 0,0 mm 1,4 km/h (1 Bft) NO 49 ° 0 min 0,000 mm 0,0 UV-I 0 W/m² 4,1 °C 4,8 °C 4,8 km/h (1 Bft)
11.04.2019 06:53 4,8 °C 95 % 1011,7 hPa 0,0 mm 1,3 km/h (1 Bft) NO 55 ° 0 min 0,000 mm 0,0 UV-I 0 W/m² 4,1 °C 4,8 °C 3,2 km/h (1 Bft)
11.04.2019 06:54 4,8 °C 95 % 1011,7 hPa 0,0 mm 0,6 km/h (0 Bft) NO 55 ° 0 min 0,000 mm 0,0 UV-I 0 W/m² 4,1 °C 4,8 °C 3,2 km/h (1 Bft)
11.04.2019 06:55 4,8 °C 95 % 1011,7 hPa 0,0 mm 0,0 km/h (0 Bft) NO 55 ° 0 min 0,000 mm 0,0 UV-I 0 W/m² 4,1 °C 4,8 °C 0,0 km/h (0 Bft)
11.04.2019 06:56 4,8 °C 95 % 1011,7 hPa 0,0 mm 0,8 km/h (0 Bft) N 355 ° 0 min 0,000 mm 0,0 UV-I 0 W/m² 4,1 °C 4,8 °C 4,8 km/h (1 Bft)
11.04.2019 06:57 4,8 °C 95 % 1011,7 hPa 0,0 mm 1,3 km/h (1 Bft) N-NW 330 ° 0 min 0,000 mm 0,0 UV-I 0 W/m² 4,1 °C 4,8 °C 4,8 km/h (1 Bft)
11.04.2019 06:58 4,8 °C 95 % 1011,7 hPa 0,0 mm 3,6 km/h (1 Bft) N-NO 28 ° 0 min 0,000 mm 0,0 UV-I 0 W/m² 4,1 °C 4,8 °C 9,7 km/h (2 Bft)
11.04.2019 06:59 4,7 °C 94 % 1011,7 hPa 0,0 mm 4,0 km/h (1 Bft) N-NO 28 ° 0 min 0,000 mm 0,0 UV-I 0 W/m² 3,8 °C 4,7 °C 8,0 km/h (2 Bft)
11.04.2019 07:00 4,7 °C 94 % 1011,7 hPa 0,0 mm 0,3 km/h (0 Bft) N-NO 26 ° 0 min 0,000 mm 0,0 UV-I 0 W/m² 3,8 °C 4,7 °C 1,6 km/h (1 Bft)
11.04.2019 07:01 4,7 °C 94 % 1011,7 hPa 0,0 mm 0,6 km/h (0 Bft) N-NO 26 ° 0 min 0,000 mm 0,0 UV-I 0 W/m² 3,8 °C 4,7 °C 3,2 km/h (1 Bft)
11.04.2019 07:02 4,7 °C 94 % 1011,7 hPa 0,0 mm 0,0 km/h (0 Bft) NO 39 ° 0 min 0,000 mm 0,0 UV-I 0 W/m² 3,8 °C 4,7 °C 0,0 km/h (0 Bft)
11.04.2019 07:03 4,7 °C 94 % 1011,7 hPa 0,0 mm 0,0 km/h (0 Bft) NO 39 ° 0 min 0,000 mm 0,0 UV-I 0 W/m² 3,8 °C 4,7 °C 0,0 km/h (0 Bft)
11.04.2019 07:04 4,7 °C 95 % 1011,7 hPa 0,0 mm 1,7 km/h (1 Bft) NO 52 ° 0 min 0,000 mm 0,0 UV-I 0 W/m² 4,0 °C 4,7 °C 4,8 km/h (1 Bft)
11.04.2019 07:05 4,7 °C 95 % 1011,7 hPa 0,0 mm 0,7 km/h (0 Bft) NO 51 ° 0 min 0,000 mm 0,0 UV-I 0 W/m² 4,0 °C 4,7 °C 3,2 km/h (1 Bft)
11.04.2019 07:06 4,7 °C 95 % 1011,7 hPa 0,0 mm 2,2 km/h (1 Bft) O-NO 63 ° 0 min 0,000 mm 0,0 UV-I 0 W/m² 4,0 °C 4,7 °C 6,4 km/h (2 Bft)
11.04.2019 07:07 4,7 °C 95 % 1011,8 hPa 0,0 mm 6,2 km/h (2 Bft) N-NO 24 ° 0 min 0,000 mm 0,0 UV-I 0 W/m² 4,0 °C 3,3 °C 9,7 km/h (2 Bft)
11.04.2019 07:08 4,6 °C 95 % 1011,7 hPa 0,0 mm 0,9 km/h (0 Bft) O-NO 74 ° 0 min 0,000 mm 0,0 UV-I 0 W/m² 3,9 °C 4,6 °C 3,2 km/h (1 Bft)
11.04.2019 07:09 4,6 °C 95 % 1011,8 hPa 0,0 mm 2,2 km/h (1 Bft) O 94 ° 0 min 0,000 mm 0,0 UV-I 0 W/m² 3,9 °C 4,6 °C 6,4 km/h (2 Bft)
11.04.2019 07:10 4,6 °C 95 % 1011,8 hPa 0,0 mm 2,9 km/h (1 Bft) NO 39 ° 0 min 0,000 mm 0,0 UV-I 0 W/m² 3,9 °C 4,6 °C 6,4 km/h (2 Bft)
11.04.2019 07:11 4,6 °C 95 % 1011,7 hPa 0,0 mm 2,9 km/h (1 Bft) O-NO 76 ° 0 min 0,000 mm 0,0 UV-I 0 W/m² 3,9 °C 4,6 °C 6,4 km/h (2 Bft)
11.04.2019 07:12 4,6 °C 95 % 1011,7 hPa 0,0 mm 3,6 km/h (1 Bft) O-NO 78 ° 0 min 0,000 mm 0,0 UV-I 5 W/m² 3,9 °C 4,6 °C 4,8 km/h (1 Bft)
11.04.2019 07:13 4,6 °C 95 % 1011,7 hPa 0,0 mm 0,2 km/h (0 Bft) O-NO 78 ° 0 min 0,000 mm 0,0 UV-I 5 W/m² 3,9 °C 4,6 °C 1,6 km/h (1 Bft)
11.04.2019 07:14 4,6 °C 95 % 1011,7 hPa 0,0 mm 2,4 km/h (1 Bft) O-NO 59 ° 0 min 0,000 mm 0,0 UV-I 5 W/m² 3,9 °C 4,6 °C 6,4 km/h (2 Bft)
11.04.2019 07:15 4,6 °C 95 % 1011,8 hPa 0,0 mm 5,4 km/h (1 Bft) NO 53 ° 0 min 0,000 mm 0,0 UV-I 5 W/m² 3,9 °C 3,5 °C 8,0 km/h (2 Bft)
11.04.2019 07:16 4,6 °C 95 % 1011,8 hPa 0,0 mm 4,6 km/h (1 Bft) O-NO 61 ° 0 min 0,000 mm 0,0 UV-I 5 W/m² 3,9 °C 3,8 °C 8,0 km/h (2 Bft)
11.04.2019 07:17 4,6 °C 95 % 1011,8 hPa 0,0 mm 2,6 km/h (1 Bft) O-NO 74 ° 0 min 0,000 mm 0,0 UV-I 5 W/m² 3,9 °C 4,6 °C 8,0 km/h (2 Bft)
11.04.2019 07:18 4,6 °C 95 % 1011,8 hPa 0,0 mm 0,1 km/h (0 Bft) O-NO 73 ° 0 min 0,000 mm 0,0 UV-I 7 W/m² 3,9 °C 4,6 °C 1,6 km/h (1 Bft)
11.04.2019 07:19 4,6 °C 95 % 1011,8 hPa 0,0 mm 1,8 km/h (1 Bft) O-SO 108 ° 0 min 0,000 mm 0,0 UV-I 7 W/m² 3,9 °C 4,6 °C 4,8 km/h (1 Bft)
11.04.2019 07:20 4,6 °C 95 % 1011,8 hPa 0,0 mm 2,6 km/h (1 Bft) O 84 ° 0 min 0,000 mm 0,0 UV-I 7 W/m² 3,9 °C 4,6 °C 6,4 km/h (2 Bft)
11.04.2019 07:21 4,5 °C 95 % 1011,8 hPa 0,0 mm 1,5 km/h (1 Bft) O-NO 74 ° 0 min 0,000 mm 0,0 UV-I 7 W/m² 3,8 °C 4,5 °C 4,8 km/h (1 Bft)
11.04.2019 07:22 4,5 °C 95 % 1011,8 hPa 0,0 mm 0,0 km/h (0 Bft) O-NO 67 ° 0 min 0,000 mm 0,0 UV-I 7 W/m² 3,8 °C 4,5 °C 0,0 km/h (0 Bft)
11.04.2019 07:23 4,5 °C 95 % 1011,7 hPa 0,0 mm 2,4 km/h (1 Bft) N-NO 23 ° 0 min 0,000 mm 0,0 UV-I 7 W/m² 3,8 °C 4,5 °C 8,0 km/h (2 Bft)
11.04.2019 07:24 4,5 °C 95 % 1011,7 hPa 0,0 mm 3,6 km/h (1 Bft) N 9 ° 0 min 0,000 mm 0,0 UV-I 7 W/m² 3,8 °C 4,5 °C 6,4 km/h (2 Bft)
11.04.2019 07:25 4,5 °C 95 % 1011,8 hPa 0,0 mm 1,9 km/h (1 Bft) N-NO 26 ° 0 min 0,000 mm 0,0 UV-I 7 W/m² 3,8 °C 4,5 °C 3,2 km/h (1 Bft)
11.04.2019 07:26 4,5 °C 95 % 1011,8 hPa 0,0 mm 2,3 km/h (1 Bft) O 86 ° 0 min 0,000 mm 0,0 UV-I 7 W/m² 3,8 °C 4,5 °C 4,8 km/h (1 Bft)
11.04.2019 07:27 4,5 °C 95 % 1011,8 hPa 0,0 mm 0,0 km/h (0 Bft) O 86 ° 0 min 0,000 mm 0,0 UV-I 9 W/m² 3,8 °C 4,5 °C 0,0 km/h (0 Bft)
11.04.2019 07:28 4,5 °C 95 % 1011,7 hPa 0,0 mm 3,7 km/h (1 Bft) O-NO 68 ° 0 min 0,000 mm 0,0 UV-I 9 W/m² 3,8 °C 4,5 °C 6,4 km/h (2 Bft)
11.04.2019 07:29 4,5 °C 95 % 1011,7 hPa 0,0 mm 4,8 km/h (1 Bft) O-NO 78 ° 0 min 0,000 mm 0,0 UV-I 7 W/m² 3,8 °C 3,6 °C 8,0 km/h (2 Bft)
11.04.2019 07:30 4,5 °C 95 % 1011,8 hPa 0,0 mm 5,3 km/h (1 Bft) NO 35 ° 0 min 0,000 mm 0,0 UV-I 7 W/m² 3,8 °C 3,4 °C 9,7 km/h (2 Bft)
11.04.2019 07:31 4,5 °C 95 % 1011,8 hPa 0,0 mm 0,1 km/h (0 Bft) NO 39 ° 0 min 0,000 mm 0,0 UV-I 9 W/m² 3,8 °C 4,5 °C 1,6 km/h (1 Bft)
11.04.2019 07:32 4,5 °C 95 % 1011,8 hPa 0,0 mm 2,9 km/h (1 Bft) O-NO 61 ° 0 min 0,000 mm 0,0 UV-I 9 W/m² 3,8 °C 4,5 °C 6,4 km/h (2 Bft)
11.04.2019 07:33 4,5 °C 95 % 1011,8 hPa 0,0 mm 0,2 km/h (0 Bft) O-NO 59 ° 0 min 0,000 mm 0,0 UV-I 9 W/m² 3,8 °C 4,5 °C 1,6 km/h (1 Bft)
11.04.2019 07:34 4,4 °C 95 % 1011,8 hPa 0,0 mm 0,9 km/h (0 Bft) NO 55 ° 0 min 0,000 mm 0,0 UV-I 9 W/m² 3,7 °C 4,4 °C 3,2 km/h (1 Bft)
11.04.2019 07:35 4,4 °C 95 % 1011,8 hPa 0,0 mm 0,0 km/h (0 Bft) NO 55 ° 0 min 0,000 mm 0,0 UV-I 11 W/m² 3,7 °C 4,4 °C 0,0 km/h (0 Bft)
11.04.2019 07:36 4,5 °C 95 % 1011,8 hPa 0,0 mm 0,0 km/h (0 Bft) NO 55 ° 0 min 0,000 mm 0,0 UV-I 11 W/m² 3,8 °C 4,5 °C 0,0 km/h (0 Bft)
11.04.2019 07:37 4,5 °C 95 % 1011,8 hPa 0,0 mm 2,2 km/h (1 Bft) O 93 ° 0 min 0,000 mm 0,0 UV-I 9 W/m² 3,8 °C 4,5 °C 6,4 km/h (2 Bft)
11.04.2019 07:38 4,5 °C 95 % 1011,8 hPa 0,0 mm 2,1 km/h (1 Bft) O-NO 68 ° 0 min 0,000 mm 0,0 UV-I 9 W/m² 3,8 °C 4,5 °C 6,4 km/h (2 Bft)
11.04.2019 07:39 4,5 °C 95 % 1011,8 hPa 0,0 mm 5,1 km/h (1 Bft) O-NO 73 ° 0 min 0,000 mm 0,0 UV-I 9 W/m² 3,8 °C 3,5 °C 8,0 km/h (2 Bft)
11.04.2019 07:40 4,5 °C 95 % 1011,8 hPa 0,0 mm 3,7 km/h (1 Bft) O-NO 67 ° 0 min 0,000 mm 0,0 UV-I 11 W/m² 3,8 °C 4,5 °C 4,8 km/h (1 Bft)
11.04.2019 07:41 4,4 °C 95 % 1011,8 hPa 0,0 mm 0,1 km/h (0 Bft) O-NO 67 ° 0 min 0,000 mm 0,0 UV-I 11 W/m² 3,7 °C 4,4 °C 1,6 km/h (1 Bft)
11.04.2019 07:42 4,4 °C 95 % 1011,8 hPa 0,0 mm 0,2 km/h (0 Bft) O-NO 63 ° 0 min 0,000 mm 0,0 UV-I 9 W/m² 3,7 °C 4,4 °C 1,6 km/h (1 Bft)
11.04.2019 07:43 4,4 °C 95 % 1011,9 hPa 0,0 mm 2,1 km/h (1 Bft) NO 51 ° 0 min 0,000 mm 0,0 UV-I 7 W/m² 3,7 °C 4,4 °C 4,8 km/h (1 Bft)
11.04.2019 07:44 4,4 °C 95 % 1011,9 hPa 0,0 mm 0,7 km/h (0 Bft) O-SO 119 ° 0 min 0,000 mm 0,0 UV-I 7 W/m² 3,7 °C 4,4 °C 3,2 km/h (1 Bft)
11.04.2019 07:45 4,5 °C 95 % 1011,9 hPa 0,0 mm 0,4 km/h (0 Bft) O-NO 57 ° 0 min 0,000 mm 0,0 UV-I 7 W/m² 3,8 °C 4,5 °C 3,2 km/h (1 Bft)
11.04.2019 07:46 4,5 °C 95 % 1011,8 hPa 0,0 mm 3,8 km/h (1 Bft) O-NO 77 ° 0 min 0,000 mm 0,0 UV-I 7 W/m² 3,8 °C 4,5 °C 6,4 km/h (2 Bft)
11.04.2019 07:47 4,5 °C 95 % 1011,9 hPa 0,0 mm 2,4 km/h (1 Bft) O-NO 65 ° 0 min 0,000 mm 0,0 UV-I 7 W/m² 3,8 °C 4,5 °C 6,4 km/h (2 Bft)
11.04.2019 07:48 4,5 °C 95 % 1011,9 hPa 0,0 mm 0,0 km/h (0 Bft) O-NO 65 ° 0 min 0,000 mm 0,0 UV-I 9 W/m² 3,8 °C 4,5 °C 0,0 km/h (0 Bft)
11.04.2019 07:49 4,4 °C 95 % 1011,9 hPa 0,0 mm 0,0 km/h (0 Bft) O-NO 65 ° 0 min 0,000 mm 0,0 UV-I 11 W/m² 3,7 °C 4,4 °C 0,0 km/h (0 Bft)
11.04.2019 07:50 4,4 °C 95 % 1011,9 hPa 0,0 mm 2,2 km/h (1 Bft) O-NO 67 ° 0 min 0,000 mm 0,0 UV-I 11 W/m² 3,7 °C 4,4 °C 6,4 km/h (2 Bft)
11.04.2019 07:51 4,4 °C 95 % 1011,9 hPa 0,0 mm 2,4 km/h (1 Bft) O-NO 67 ° 0 min 0,000 mm 0,0 UV-I 11 W/m² 3,7 °C 4,4 °C 4,8 km/h (1 Bft)
11.04.2019 07:52 4,4 °C 95 % 1011,9 hPa 0,0 mm 1,3 km/h (1 Bft) O-NO 74 ° 0 min 0,000 mm 0,0 UV-I 11 W/m² 3,7 °C 4,4 °C 4,8 km/h (1 Bft)
11.04.2019 07:53 4,4 °C 95 % 1011,9 hPa 0,0 mm 1,4 km/h (1 Bft) O-NO 63 ° 0 min 0,000 mm 0,0 UV-I 11 W/m² 3,7 °C 4,4 °C 4,8 km/h (1 Bft)
11.04.2019 07:54 4,4 °C 95 % 1012,0 hPa 0,0 mm 3,3 km/h (1 Bft) O-SO 106 ° 0 min 0,000 mm 0,0 UV-I 11 W/m² 3,7 °C 4,4 °C 6,4 km/h (2 Bft)
11.04.2019 07:55 4,4 °C 95 % 1012,0 hPa 0,0 mm 3,9 km/h (1 Bft) SO 144 ° 0 min 0,000 mm 0,0 UV-I 9 W/m² 3,7 °C 4,4 °C 6,4 km/h (2 Bft)
11.04.2019 07:56 4,4 °C 95 % 1011,9 hPa 0,0 mm 2,1 km/h (1 Bft) O 95 ° 0 min 0,000 mm 0,0 UV-I 9 W/m² 3,7 °C 4,4 °C 4,8 km/h (1 Bft)
11.04.2019 07:57 4,4 °C 95 % 1011,9 hPa 0,0 mm 2,7 km/h (1 Bft) O-NO 63 ° 0 min 0,000 mm 0,0 UV-I 9 W/m² 3,7 °C 4,4 °C 6,4 km/h (2 Bft)
11.04.2019 07:58 4,4 °C 95 % 1012,0 hPa 0,0 mm 1,9 km/h (1 Bft) O-SO 107 ° 0 min 0,000 mm 0,0 UV-I 9 W/m² 3,7 °C 4,4 °C 4,8 km/h (1 Bft)
11.04.2019 07:59 4,4 °C 95 % 1012,0 hPa 0,0 mm 0,0 km/h (0 Bft) O-SO 107 ° 0 min 0,000 mm 0,0 UV-I 9 W/m² 3,7 °C 4,4 °C 0,0 km/h (0 Bft)
11.04.2019 08:00 4,4 °C 95 % 1012,0 hPa 0,0 mm 0,0 km/h (0 Bft) O-SO 103 ° 0 min 0,000 mm 0,0 UV-I 9 W/m² 3,7 °C 4,4 °C 0,0 km/h (0 Bft)
11.04.2019 08:01 4,3 °C 95 % 1012,0 hPa 0,0 mm 0,7 km/h (0 Bft) SO 137 ° 0 min 0,000 mm 0,0 UV-I 11 W/m² 3,6 °C 4,3 °C 3,2 km/h (1 Bft)
11.04.2019 08:02 4,3 °C 95 % 1012,0 hPa 0,0 mm 0,0 km/h (0 Bft) O-SO 109 ° 0 min 0,000 mm 0,0 UV-I 11 W/m² 3,6 °C 4,3 °C 0,0 km/h (0 Bft)
11.04.2019 08:03 4,3 °C 95 % 1012,0 hPa 0,0 mm 0,0 km/h (0 Bft) O-SO 105 ° 0 min 0,000 mm 0,0 UV-I 11 W/m² 3,6 °C 4,3 °C 0,0 km/h (0 Bft)
11.04.2019 08:04 4,3 °C 95 % 1012,0 hPa 0,0 mm 0,1 km/h (0 Bft) O-SO 105 ° 0 min 0,000 mm 0,0 UV-I 11 W/m² 3,6 °C 4,3 °C 1,6 km/h (1 Bft)
11.04.2019 08:05 4,3 °C 95 % 1012,0 hPa 0,0 mm 4,2 km/h (1 Bft) O 84 ° 0 min 0,000 mm 0,0 UV-I 12 W/m² 3,6 °C 4,3 °C 6,4 km/h (2 Bft)
11.04.2019 08:06 4,3 °C 95 % 1012,0 hPa 0,0 mm 0,6 km/h (0 Bft) O-NO 69 ° 0 min 0,000 mm 0,0 UV-I 14 W/m² 3,6 °C 4,3 °C 4,8 km/h (1 Bft)
11.04.2019 08:07 4,3 °C 95 % 1012,0 hPa 0,0 mm 0,0 km/h (0 Bft) O-NO 69 ° 0 min 0,000 mm 0,0 UV-I 14 W/m² 3,6 °C 4,3 °C 0,0 km/h (0 Bft)
11.04.2019 08:08 4,3 °C 95 % 1012,0 hPa 0,0 mm 0,1 km/h (0 Bft) O-NO 69 ° 0 min 0,000 mm 0,0 UV-I 14 W/m² 3,6 °C 4,3 °C 1,6 km/h (1 Bft)
11.04.2019 08:09 4,3 °C 95 % 1012,0 hPa 0,0 mm 0,1 km/h (0 Bft) O-NO 69 ° 0 min 0,000 mm 0,0 UV-I 12 W/m² 3,6 °C 4,3 °C 1,6 km/h (1 Bft)
11.04.2019 08:10 4,3 °C 95 % 1012,0 hPa 0,0 mm 0,0 km/h (0 Bft) O-NO 69 ° 0 min 0,000 mm 0,0 UV-I 12 W/m² 3,6 °C 4,3 °C 0,0 km/h (0 Bft)
11.04.2019 08:11 4,3 °C 95 % 1012,0 hPa 0,0 mm 0,0 km/h (0 Bft) O-NO 69 ° 0 min 0,000 mm 0,0 UV-I 12 W/m² 3,6 °C 4,3 °C 0,0 km/h (0 Bft)
11.04.2019 08:12 4,3 °C 95 % 1012,0 hPa 0,0 mm 0,0 km/h (0 Bft) O-NO 68 ° 0 min 0,000 mm 0,0 UV-I 12 W/m² 3,6 °C 4,3 °C 0,0 km/h (0 Bft)
11.04.2019 08:13 4,3 °C 95 % 1012,0 hPa 0,0 mm 0,0 km/h (0 Bft) O-NO 68 ° 0 min 0,000 mm 0,0 UV-I 12 W/m² 3,6 °C 4,3 °C 0,0 km/h (0 Bft)
11.04.2019 08:14 4,3 °C 95 % 1012,0 hPa 0,0 mm 0,0 km/h (0 Bft) O-NO 68 ° 0 min 0,000 mm 0,0 UV-I 12 W/m² 3,6 °C 4,3 °C 0,0 km/h (0 Bft)
11.04.2019 08:15 4,3 °C 95 % 1012,0 hPa 0,0 mm 0,1 km/h (0 Bft) O-NO 68 ° 0 min 0,000 mm 0,0 UV-I 11 W/m² 3,6 °C 4,3 °C 1,6 km/h (1 Bft)
11.04.2019 08:16 4,3 °C 95 % 1012,0 hPa 0,0 mm 0,0 km/h (0 Bft) O-NO 69 ° 0 min 0,000 mm 0,0 UV-I 12 W/m² 3,6 °C 4,3 °C 0,0 km/h (0 Bft)
11.04.2019 08:17 4,3 °C 95 % 1012,0 hPa 0,0 mm 0,0 km/h (0 Bft) O-NO 69 ° 0 min 0,000 mm 0,0 UV-I 11 W/m² 3,6 °C 4,3 °C 0,0 km/h (0 Bft)
11.04.2019 08:18 4,3 °C 95 % 1012,0 hPa 0,0 mm 0,0 km/h (0 Bft) O-NO 69 ° 0 min 0,000 mm 0,0 UV-I 12 W/m² 3,6 °C 4,3 °C 0,0 km/h (0 Bft)
11.04.2019 08:19 4,3 °C 95 % 1012,1 hPa 0,0 mm 1,3 km/h (1 Bft) O-NO 67 ° 0 min 0,000 mm 0,0 UV-I 12 W/m² 3,6 °C 4,3 °C 4,8 km/h (1 Bft)
11.04.2019 08:20 4,3 °C 95 % 1012,1 hPa 0,0 mm 3,8 km/h (1 Bft) O 80 ° 0 min 0,000 mm 0,0 UV-I 11 W/m² 3,6 °C 4,3 °C 4,8 km/h (1 Bft)
11.04.2019 08:21 4,3 °C 95 % 1012,1 hPa 0,0 mm 4,7 km/h (1 Bft) O-NO 64 ° 0 min 0,000 mm 0,0 UV-I 11 W/m² 3,6 °C 3,4 °C 6,4 km/h (2 Bft)
11.04.2019 08:22 4,3 °C 95 % 1012,1 hPa 0,0 mm 1,9 km/h (1 Bft) O-NO 65 ° 0 min 0,000 mm 0,0 UV-I 11 W/m² 3,6 °C 4,3 °C 4,8 km/h (1 Bft)
11.04.2019 08:23 4,2 °C 95 % 1012,1 hPa 0,0 mm 2,3 km/h (1 Bft) O-NO 58 ° 0 min 0,000 mm 0,0 UV-I 12 W/m² 3,5 °C 4,2 °C 4,8 km/h (1 Bft)
11.04.2019 08:24 4,2 °C 95 % 1012,1 hPa 0,0 mm 2,0 km/h (1 Bft) O-NO 64 ° 0 min 0,000 mm 0,0 UV-I 12 W/m² 3,5 °C 4,2 °C 3,2 km/h (1 Bft)
11.04.2019 08:25 4,2 °C 95 % 1012,1 hPa 0,0 mm 0,0 km/h (0 Bft) O-NO 64 ° 0 min 0,000 mm 0,0 UV-I 12 W/m² 3,5 °C 4,2 °C 0,0 km/h (0 Bft)
11.04.2019 08:26 4,2 °C 94 % 1012,1 hPa 0,0 mm 0,5 km/h (0 Bft) O-NO 64 ° 0 min 0,000 mm 0,0 UV-I 12 W/m² 3,3 °C 4,2 °C 3,2 km/h (1 Bft)
11.04.2019 08:27 4,2 °C 94 % 1012,1 hPa 0,0 mm 2,5 km/h (1 Bft) O 81 ° 0 min 0,000 mm 0,0 UV-I 12 W/m² 3,3 °C 4,2 °C 6,4 km/h (2 Bft)
11.04.2019 08:28 4,2 °C 94 % 1012,1 hPa 0,0 mm 3,1 km/h (1 Bft) O 90 ° 0 min 0,000 mm 0,0 UV-I 14 W/m² 3,3 °C 4,2 °C 4,8 km/h (1 Bft)
11.04.2019 08:29 4,2 °C 94 % 1012,2 hPa 0,0 mm 0,5 km/h (0 Bft) O 90 ° 0 min 0,000 mm 0,0 UV-I 14 W/m² 3,3 °C 4,2 °C 3,2 km/h (1 Bft)
11.04.2019 08:30 4,2 °C 94 % 1012,2 hPa 0,0 mm 0,0 km/h (0 Bft) O 88 ° 0 min 0,000 mm 0,0 UV-I 14 W/m² 3,3 °C 4,2 °C 0,0 km/h (0 Bft)
11.04.2019 08:31 4,2 °C 94 % 1012,1 hPa 0,0 mm 0,0 km/h (0 Bft) O 88 ° 0 min 0,000 mm 0,0 UV-I 14 W/m² 3,3 °C 4,2 °C 0,0 km/h (0 Bft)
11.04.2019 08:32 4,1 °C 95 % 1012,1 hPa 0,0 mm 0,0 km/h (0 Bft) O 88 ° 0 min 0,000 mm 0,0 UV-I 16 W/m² 3,4 °C 4,1 °C 0,0 km/h (0 Bft)
11.04.2019 08:33 4,1 °C 95 % 1012,2 hPa 0,0 mm 2,1 km/h (1 Bft) O-SO 120 ° 0 min 0,000 mm 0,0 UV-I 16 W/m² 3,4 °C 4,1 °C 6,4 km/h (2 Bft)
11.04.2019 08:34 4,1 °C 94 % 1012,1 hPa 0,0 mm 0,3 km/h (0 Bft) O-SO 119 ° 0 min 0,000 mm 0,0 UV-I 16 W/m² 3,2 °C 4,1 °C 1,6 km/h (1 Bft)
11.04.2019 08:35 4,1 °C 94 % 1012,1 hPa 0,0 mm 0,1 km/h (0 Bft) O-SO 112 ° 0 min 0,000 mm 0,0 UV-I 16 W/m² 3,2 °C 4,1 °C 1,6 km/h (1 Bft)
11.04.2019 08:36 4,1 °C 94 % 1012,2 hPa 0,0 mm 5,6 km/h (1 Bft) O-NO 75 ° 0 min 0,000 mm 0,0 UV-I 16 W/m² 3,2 °C 2,8 °C 6,4 km/h (2 Bft)
11.04.2019 08:37 4,1 °C 94 % 1012,2 hPa 0,0 mm 2,7 km/h (1 Bft) O 82 ° 0 min 0,000 mm 0,0 UV-I 18 W/m² 3,2 °C 4,1 °C 4,8 km/h (1 Bft)
11.04.2019 08:38 4,1 °C 94 % 1012,2 hPa 0,0 mm 0,3 km/h (0 Bft) O 82 ° 0 min 0,000 mm 0,0 UV-I 19 W/m² 3,2 °C 4,1 °C 3,2 km/h (1 Bft)
11.04.2019 08:39 4,1 °C 94 % 1012,2 hPa 0,0 mm 0,3 km/h (0 Bft) O 82 ° 0 min 0,000 mm 0,0 UV-I 21 W/m² 3,2 °C 4,1 °C 1,6 km/h (1 Bft)
11.04.2019 08:40 4,1 °C 94 % 1012,2 hPa 0,0 mm 0,0 km/h (0 Bft) O 82 ° 0 min 0,000 mm 0,0 UV-I 21 W/m² 3,2 °C 4,1 °C 0,0 km/h (0 Bft)
11.04.2019 08:41 4,0 °C 95 % 1012,2 hPa 0,0 mm 0,7 km/h (0 Bft) O 82 ° 0 min 0,000 mm 0,0 UV-I 21 W/m² 3,3 °C 4,0 °C 1,6 km/h (1 Bft)
11.04.2019 08:42 4,0 °C 95 % 1012,2 hPa 0,0 mm 1,1 km/h (1 Bft) O-NO 70 ° 0 min 0,000 mm 0,0 UV-I 21 W/m² 3,3 °C 4,0 °C 6,4 km/h (2 Bft)
11.04.2019 08:43 4,0 °C 95 % 1012,2 hPa 0,0 mm 1,2 km/h (1 Bft) O-NO 63 ° 0 min 0,000 mm 0,0 UV-I 23 W/m² 3,3 °C 4,0 °C 4,8 km/h (1 Bft)
11.04.2019 08:44 4,1 °C 95 % 1012,2 hPa 0,0 mm 4,0 km/h (1 Bft) O-NO 72 ° 0 min 0,000 mm 0,0 UV-I 23 W/m² 3,4 °C 4,1 °C 6,4 km/h (2 Bft)
11.04.2019 08:45 4,0 °C 95 % 1012,2 hPa 0,0 mm 1,6 km/h (1 Bft) O-NO 74 ° 0 min 0,000 mm 0,0 UV-I 23 W/m² 3,3 °C 4,0 °C 6,4 km/h (2 Bft)
11.04.2019 08:46 4,0 °C 95 % 1012,2 hPa 0,0 mm 0,8 km/h (0 Bft) O 81 ° 0 min 0,000 mm 0,0 UV-I 23 W/m² 3,3 °C 4,0 °C 3,2 km/h (1 Bft)
11.04.2019 08:47 4,0 °C 95 % 1012,2 hPa 0,0 mm 4,5 km/h (1 Bft) O-NO 74 ° 0 min 0,000 mm 0,0 UV-I 23 W/m² 3,3 °C 4,0 °C 6,4 km/h (2 Bft)
11.04.2019 08:48 4,0 °C 95 % 1012,2 hPa 0,0 mm 7,5 km/h (2 Bft) O 80 ° 0 min 0,000 mm 0,0 UV-I 25 W/m² 3,3 °C 2,1 °C 12,9 km/h (3 Bft)
11.04.2019 08:49 4,0 °C 95 % 1012,2 hPa 0,0 mm 3,6 km/h (1 Bft) O-NO 64 ° 0 min 0,000 mm 0,0 UV-I 26 W/m² 3,3 °C 4,0 °C 4,8 km/h (1 Bft)
11.04.2019 08:50 4,0 °C 95 % 1012,3 hPa 0,0 mm 4,0 km/h (1 Bft) O-NO 69 ° 0 min 0,000 mm 0,0 UV-I 25 W/m² 3,3 °C 4,0 °C 6,4 km/h (2 Bft)
11.04.2019 08:51 4,0 °C 95 % 1012,3 hPa 0,0 mm 4,7 km/h (1 Bft) O 85 ° 0 min 0,000 mm 0,0 UV-I 26 W/m² 3,3 °C 3,1 °C 6,4 km/h (2 Bft)
11.04.2019 08:52 4,0 °C 95 % 1012,3 hPa 0,0 mm 2,7 km/h (1 Bft) O-NO 65 ° 0 min 0,000 mm 0,0 UV-I 26 W/m² 3,3 °C 4,0 °C 4,8 km/h (1 Bft)
11.04.2019 08:53 3,9 °C 95 % 1012,3 hPa 0,0 mm 1,5 km/h (1 Bft) O-NO 64 ° 0 min 0,000 mm 0,0 UV-I 26 W/m² 3,2 °C 3,9 °C 3,2 km/h (1 Bft)
11.04.2019 08:54 3,9 °C 95 % 1012,2 hPa 0,0 mm 1,1 km/h (1 Bft) NO 54 ° 0 min 0,000 mm 0,0 UV-I 28 W/m² 3,2 °C 3,9 °C 3,2 km/h (1 Bft)
11.04.2019 08:55 3,9 °C 95 % 1012,2 hPa 0,0 mm 1,5 km/h (1 Bft) O-NO 57 ° 0 min 0,000 mm 0,0 UV-I 26 W/m² 3,2 °C 3,9 °C 6,4 km/h (2 Bft)
11.04.2019 08:56 3,9 °C 95 % 1012,2 hPa 0,0 mm 3,7 km/h (1 Bft) O-NO 78 ° 0 min 0,000 mm 0,0 UV-I 26 W/m² 3,2 °C 3,9 °C 4,8 km/h (1 Bft)
11.04.2019 08:57 3,9 °C 95 % 1012,3 hPa 0,0 mm 0,2 km/h (0 Bft) NO 55 ° 0 min 0,000 mm 0,0 UV-I 23 W/m² 3,2 °C 3,9 °C 1,6 km/h (1 Bft)
11.04.2019 08:58 4,0 °C 95 % 1012,3 hPa 0,0 mm 0,0 km/h (0 Bft) O-NO 57 ° 0 min 0,000 mm 0,0 UV-I 21 W/m² 3,3 °C 4,0 °C 0,0 km/h (0 Bft)
11.04.2019 08:59 3,9 °C 95 % 1012,3 hPa 0,0 mm 0,0 km/h (0 Bft) O-NO 57 ° 0 min 0,000 mm 0,0 UV-I 21 W/m² 3,2 °C 3,9 °C 0,0 km/h (0 Bft)
11.04.2019 09:00 3,9 °C 95 % 1012,2 hPa 0,0 mm 3,1 km/h (1 Bft) O-NO 68 ° 0 min 0,000 mm 0,0 UV-I 21 W/m² 3,2 °C 3,9 °C 6,4 km/h (2 Bft)
11.04.2019 09:01 3,9 °C 95 % 1012,3 hPa 0,0 mm 4,0 km/h (1 Bft) O-NO 61 ° 0 min 0,000 mm 0,0 UV-I 23 W/m² 3,2 °C 3,9 °C 6,4 km/h (2 Bft)
11.04.2019 09:02 3,9 °C 95 % 1012,3 hPa 0,0 mm 3,7 km/h (1 Bft) O-NO 66 ° 0 min 0,000 mm 0,0 UV-I 23 W/m² 3,2 °C 3,9 °C 6,4 km/h (2 Bft)
11.04.2019 09:03 3,9 °C 95 % 1012,3 hPa 0,0 mm 4,4 km/h (1 Bft) NO 45 ° 0 min 0,000 mm 0,0 UV-I 26 W/m² 3,2 °C 3,9 °C 8,0 km/h (2 Bft)
11.04.2019 09:04 3,9 °C 95 % 1012,3 hPa 0,0 mm 5,6 km/h (1 Bft) NO 46 ° 0 min 0,000 mm 0,0 UV-I 28 W/m² 3,2 °C 2,6 °C 6,4 km/h (2 Bft)
11.04.2019 09:05 3,9 °C 95 % 1012,3 hPa 0,0 mm 3,6 km/h (1 Bft) NO 56 ° 0 min 0,000 mm 0,0 UV-I 28 W/m² 3,2 °C 3,9 °C 6,4 km/h (2 Bft)
11.04.2019 09:06 3,9 °C 95 % 1012,3 hPa 0,0 mm 1,1 km/h (1 Bft) O-NO 62 ° 0 min 0,000 mm 0,0 UV-I 30 W/m² 3,2 °C 3,9 °C 6,4 km/h (2 Bft)
11.04.2019 09:07 3,9 °C 95 % 1012,3 hPa 0,0 mm 4,7 km/h (1 Bft) O-NO 63 ° 0 min 0,000 mm 0,0 UV-I 32 W/m² 3,2 °C 3,0 °C 6,4 km/h (2 Bft)
11.04.2019 09:08 3,8 °C 95 % 1012,4 hPa 0,0 mm 1,1 km/h (1 Bft) O-NO 63 ° 0 min 0,000 mm 0,0 UV-I 33 W/m² 3,1 °C 3,8 °C 3,2 km/h (1 Bft)
11.04.2019 09:09 3,8 °C 95 % 1012,3 hPa 0,0 mm 0,5 km/h (0 Bft) O-NO 63 ° 0 min 0,000 mm 0,0 UV-I 33 W/m² 3,1 °C 3,8 °C 3,2 km/h (1 Bft)
11.04.2019 09:10 3,8 °C 95 % 1012,3 hPa 0,0 mm 1,7 km/h (1 Bft) O-NO 63 ° 0 min 0,000 mm 0,0 UV-I 35 W/m² 3,1 °C 3,8 °C 4,8 km/h (1 Bft)
11.04.2019 09:11 3,8 °C 95 % 1012,4 hPa 0,0 mm 0,0 km/h (0 Bft) O-NO 63 ° 0 min 0,000 mm 0,0 UV-I 35 W/m² 3,1 °C 3,8 °C 0,0 km/h (0 Bft)
11.04.2019 09:12 3,8 °C 95 % 1012,4 hPa 0,0 mm 2,3 km/h (1 Bft) O-SO 109 ° 0 min 0,000 mm 0,0 UV-I 33 W/m² 3,1 °C 3,8 °C 4,8 km/h (1 Bft)
11.04.2019 09:13 3,8 °C 95 % 1012,4 hPa 0,0 mm 0,3 km/h (0 Bft) O 100 ° 0 min 0,000 mm 0,0 UV-I 37 W/m² 3,1 °C 3,8 °C 3,2 km/h (1 Bft)
11.04.2019 09:14 3,8 °C 95 % 1012,4 hPa 0,0 mm 3,8 km/h (1 Bft) O 86 ° 0 min 0,000 mm 0,0 UV-I 37 W/m² 3,1 °C 3,8 °C 9,7 km/h (2 Bft)
11.04.2019 09:15 3,8 °C 95 % 1012,4 hPa 0,0 mm 3,9 km/h (1 Bft) O-NO 74 ° 0 min 0,000 mm 0,0 UV-I 35 W/m² 3,1 °C 3,8 °C 6,4 km/h (2 Bft)
11.04.2019 09:16 3,8 °C 94 % 1012,5 hPa 0,0 mm 5,2 km/h (1 Bft) O 96 ° 0 min 0,000 mm 0,0 UV-I 35 W/m² 2,9 °C 2,6 °C 9,7 km/h (2 Bft)
11.04.2019 09:17 3,8 °C 94 % 1012,4 hPa 0,0 mm 1,9 km/h (1 Bft) O-NO 78 ° 0 min 0,000 mm 0,0 UV-I 35 W/m² 2,9 °C 3,8 °C 6,4 km/h (2 Bft)
11.04.2019 09:18 3,7 °C 94 % 1012,5 hPa 0,0 mm 2,5 km/h (1 Bft) O-NO 66 ° 0 min 0,000 mm 0,0 UV-I 35 W/m² 2,8 °C 3,7 °C 4,8 km/h (1 Bft)
11.04.2019 09:19 3,7 °C 94 % 1012,5 hPa 0,0 mm 4,3 km/h (1 Bft) O-NO 69 ° 0 min 0,000 mm 0,0 UV-I 33 W/m² 2,8 °C 3,7 °C 6,4 km/h (2 Bft)
11.04.2019 09:20 3,7 °C 94 % 1012,5 hPa 0,0 mm 2,6 km/h (1 Bft) O-NO 65 ° 0 min 0,000 mm 0,0 UV-I 33 W/m² 2,8 °C 3,7 °C 6,4 km/h (2 Bft)
11.04.2019 09:21 3,7 °C 94 % 1012,5 hPa 0,0 mm 3,1 km/h (1 Bft) O-NO 74 ° 0 min 0,000 mm 0,0 UV-I 33 W/m² 2,8 °C 3,7 °C 6,4 km/h (2 Bft)
11.04.2019 09:22 3,7 °C 95 % 1012,5 hPa 0,0 mm 0,1 km/h (0 Bft) O-NO 71 ° 0 min 0,000 mm 0,0 UV-I 32 W/m² 3,0 °C 3,7 °C 1,6 km/h (1 Bft)
11.04.2019 09:23 3,7 °C 95 % 1012,5 hPa 0,0 mm 3,9 km/h (1 Bft) O 88 ° 0 min 0,000 mm 0,0 UV-I 32 W/m² 3,0 °C 3,7 °C 4,8 km/h (1 Bft)
11.04.2019 09:24 3,7 °C 95 % 1012,5 hPa 0,0 mm 3,2 km/h (1 Bft) O 90 ° 0 min 0,000 mm 0,0 UV-I 33 W/m² 3,0 °C 3,7 °C 6,4 km/h (2 Bft)
11.04.2019 09:25 3,7 °C 94 % 1012,6 hPa 0,0 mm 0,7 km/h (0 Bft) O 80 ° 0 min 0,000 mm 0,0 UV-I 33 W/m² 2,8 °C 3,7 °C 3,2 km/h (1 Bft)
11.04.2019 09:26 3,7 °C 94 % 1012,5 hPa 0,0 mm 1,6 km/h (1 Bft) O 82 ° 0 min 0,000 mm 0,0 UV-I 33 W/m² 2,8 °C 3,7 °C 4,8 km/h (1 Bft)
11.04.2019 09:27 3,7 °C 94 % 1012,6 hPa 0,0 mm 4,0 km/h (1 Bft) NO 51 ° 0 min 0,000 mm 0,0 UV-I 33 W/m² 2,8 °C 3,7 °C 8,0 km/h (2 Bft)
11.04.2019 09:28 3,7 °C 95 % 1012,5 hPa 0,0 mm 3,8 km/h (1 Bft) NO 55 ° 0 min 0,000 mm 0,0 UV-I 33 W/m² 3,0 °C 3,7 °C 6,4 km/h (2 Bft)
11.04.2019 09:29 3,7 °C 95 % 1012,6 hPa 0,0 mm 2,0 km/h (1 Bft) O-NO 61 ° 0 min 0,000 mm 0,0 UV-I 33 W/m² 3,0 °C 3,7 °C 4,8 km/h (1 Bft)
11.04.2019 09:30 3,7 °C 95 % 1012,5 hPa 0,0 mm 0,4 km/h (0 Bft) O-NO 61 ° 0 min 0,000 mm 0,0 UV-I 35 W/m² 3,0 °C 3,7 °C 1,6 km/h (1 Bft)
11.04.2019 09:31 3,7 °C 95 % 1012,5 hPa 0,0 mm 0,7 km/h (0 Bft) O-NO 61 ° 0 min 0,000 mm 0,0 UV-I 35 W/m² 3,0 °C 3,7 °C 1,6 km/h (1 Bft)
11.04.2019 09:32 3,7 °C 94 % 1012,6 hPa 0,0 mm 4,3 km/h (1 Bft) NO 42 ° 0 min 0,000 mm 0,0 UV-I 37 W/m² 2,8 °C 3,7 °C 6,4 km/h (2 Bft)
11.04.2019 09:33 3,7 °C 94 % 1012,6 hPa 0,0 mm 5,5 km/h (1 Bft) O-NO 76 ° 0 min 0,000 mm 0,0 UV-I 37 W/m² 2,8 °C 2,4 °C 6,4 km/h (2 Bft)
11.04.2019 09:34 3,7 °C 95 % 1012,6 hPa 0,0 mm 4,0 km/h (1 Bft) O-NO 76 ° 0 min 0,000 mm 0,0 UV-I 35 W/m² 3,0 °C 3,7 °C 6,4 km/h (2 Bft)
11.04.2019 09:35 3,7 °C 94 % 1012,6 hPa 0,0 mm 2,1 km/h (1 Bft) NO 53 ° 0 min 0,000 mm 0,0 UV-I 33 W/m² 2,8 °C 3,7 °C 4,8 km/h (1 Bft)
11.04.2019 09:36 3,7 °C 95 % 1012,6 hPa 0,0 mm 0,9 km/h (0 Bft) O-NO 57 ° 0 min 0,000 mm 0,0 UV-I 33 W/m² 3,0 °C 3,7 °C 4,8 km/h (1 Bft)
11.04.2019 09:37 3,7 °C 95 % 1012,6 hPa 0,0 mm 3,8 km/h (1 Bft) O-NO 61 ° 0 min 0,000 mm 0,0 UV-I 33 W/m² 3,0 °C 3,7 °C 4,8 km/h (1 Bft)
11.04.2019 09:38 3,7 °C 94 % 1012,6 hPa 0,0 mm 1,4 km/h (1 Bft) O-NO 61 ° 0 min 0,000 mm 0,0 UV-I 33 W/m² 2,8 °C 3,7 °C 3,2 km/h (1 Bft)
11.04.2019 09:39 3,7 °C 95 % 1012,6 hPa 0,0 mm 0,6 km/h (0 Bft) O-NO 61 ° 0 min 0,000 mm 0,0 UV-I 33 W/m² 3,0 °C 3,7 °C 1,6 km/h (1 Bft)
11.04.2019 09:40 3,7 °C 95 % 1012,7 hPa 0,0 mm 2,6 km/h (1 Bft) O 83 ° 0 min 0,000 mm 0,0 UV-I 35 W/m² 3,0 °C 3,7 °C 6,4 km/h (2 Bft)
11.04.2019 09:41 3,7 °C 95 % 1012,7 hPa 0,0 mm 6,9 km/h (2 Bft) O-NO 61 ° 0 min 0,000 mm 0,0 UV-I 35 W/m² 3,0 °C 1,9 °C 9,7 km/h (2 Bft)
11.04.2019 09:42 3,7 °C 95 % 1012,7 hPa 0,0 mm 3,2 km/h (1 Bft) O-NO 63 ° 0 min 0,000 mm 0,0 UV-I 35 W/m² 3,0 °C 3,7 °C 8,0 km/h (2 Bft)
11.04.2019 09:43 3,7 °C 94 % 1012,7 hPa 0,0 mm 1,0 km/h (0 Bft) O-NO 64 ° 0 min 0,000 mm 0,0 UV-I 35 W/m² 2,8 °C 3,7 °C 3,2 km/h (1 Bft)
11.04.2019 09:44 3,7 °C 94 % 1012,7 hPa 0,0 mm 4,6 km/h (1 Bft) O-NO 65 ° 0 min 0,000 mm 0,0 UV-I 35 W/m² 2,8 °C 2,8 °C 6,4 km/h (2 Bft)
11.04.2019 09:45 3,7 °C 94 % 1012,7 hPa 0,0 mm 3,9 km/h (1 Bft) O-NO 65 ° 0 min 0,000 mm 0,0 UV-I 35 W/m² 2,8 °C 3,7 °C 6,4 km/h (2 Bft)
11.04.2019 09:46 3,7 °C 95 % 1012,7 hPa 0,0 mm 2,7 km/h (1 Bft) O 80 ° 0 min 0,000 mm 0,0 UV-I 33 W/m² 3,0 °C 3,7 °C 4,8 km/h (1 Bft)
11.04.2019 09:47 3,7 °C 94 % 1012,7 hPa 0,0 mm 2,9 km/h (1 Bft) O-NO 74 ° 0 min 0,000 mm 0,0 UV-I 35 W/m² 2,8 °C 3,7 °C 4,8 km/h (1 Bft)
11.04.2019 09:48 3,7 °C 94 % 1012,7 hPa 0,0 mm 3,1 km/h (1 Bft) O 82 ° 0 min 0,000 mm 0,0 UV-I 33 W/m² 2,8 °C 3,7 °C 3,2 km/h (1 Bft)
11.04.2019 09:49 3,7 °C 94 % 1012,7 hPa 0,0 mm 3,4 km/h (1 Bft) O-NO 71 ° 0 min 0,000 mm 0,0 UV-I 33 W/m² 2,8 °C 3,7 °C 6,4 km/h (2 Bft)
11.04.2019 09:50 3,7 °C 94 % 1012,8 hPa 0,0 mm 4,8 km/h (1 Bft) O 84 ° 0 min 0,000 mm 0,0 UV-I 39 W/m² 2,8 °C 2,7 °C 6,4 km/h (2 Bft)
11.04.2019 09:51 3,7 °C 94 % 1012,8 hPa 0,0 mm 3,2 km/h (1 Bft) O 80 ° 0 min 0,000 mm 0,0 UV-I 39 W/m² 2,8 °C 3,7 °C 6,4 km/h (2 Bft)
11.04.2019 09:52 3,7 °C 94 % 1012,7 hPa 0,0 mm 2,2 km/h (1 Bft) O 80 ° 0 min 0,000 mm 0,0 UV-I 40 W/m² 2,8 °C 3,7 °C 4,8 km/h (1 Bft)
11.04.2019 09:53 3,6 °C 94 % 1012,8 hPa 0,0 mm 0,9 km/h (0 Bft) O-NO 66 ° 0 min 0,000 mm 0,0 UV-I 42 W/m² 2,7 °C 3,6 °C 3,2 km/h (1 Bft)
11.04.2019 09:54 3,6 °C 94 % 1012,8 hPa 0,0 mm 4,4 km/h (1 Bft) NO 37 ° 0 min 0,000 mm 0,0 UV-I 44 W/m² 2,7 °C 3,6 °C 8,0 km/h (2 Bft)
11.04.2019 09:55 3,7 °C 94 % 1012,7 hPa 0,0 mm 3,4 km/h (1 Bft) O 85 ° 0 min 0,000 mm 0,0 UV-I 47 W/m² 2,8 °C 3,7 °C 6,4 km/h (2 Bft)
11.04.2019 09:56 3,7 °C 95 % 1012,8 hPa 0,0 mm 3,7 km/h (1 Bft) O-NO 76 ° 0 min 0,000 mm 0,0 UV-I 51 W/m² 3,0 °C 3,7 °C 6,4 km/h (2 Bft)
11.04.2019 09:57 3,7 °C 95 % 1012,8 hPa 0,0 mm 4,3 km/h (1 Bft) O-NO 78 ° 0 min 0,000 mm 0,0 UV-I 53 W/m² 3,0 °C 3,7 °C 8,0 km/h (2 Bft)
11.04.2019 09:58 3,6 °C 95 % 1012,8 hPa 0,0 mm 1,4 km/h (1 Bft) O-NO 76 ° 0 min 0,000 mm 0,0 UV-I 53 W/m² 2,9 °C 3,6 °C 4,8 km/h (1 Bft)
11.04.2019 09:59 3,6 °C 95 % 1012,8 hPa 0,0 mm 3,8 km/h (1 Bft) O-NO 69 ° 0 min 0,000 mm 0,0 UV-I 53 W/m² 2,9 °C 3,6 °C 6,4 km/h (2 Bft)
11.04.2019 10:00 3,7 °C 95 % 1012,8 hPa 0,0 mm 0,9 km/h (0 Bft) O-NO 67 ° 0 min 0,000 mm 0,0 UV-I 54 W/m² 3,0 °C 3,7 °C 1,6 km/h (1 Bft)
11.04.2019 10:01 3,7 °C 95 % 1012,8 hPa 0,0 mm 2,9 km/h (1 Bft) O-NO 66 ° 0 min 0,025 mm 0,0 UV-I 58 W/m² 3,0 °C 3,7 °C 4,8 km/h (1 Bft)
11.04.2019 10:02 3,7 °C 95 % 1012,8 hPa 0,0 mm 4,0 km/h (1 Bft) NO 51 ° 0 min 0,000 mm 0,0 UV-I 60 W/m² 3,0 °C 3,7 °C 6,4 km/h (2 Bft)
11.04.2019 10:03 3,7 °C 94 % 1012,8 hPa 0,0 mm 4,9 km/h (1 Bft) O-NO 73 ° 0 min 0,000 mm 0,0 UV-I 62 W/m² 2,8 °C 2,6 °C 8,0 km/h (2 Bft)
11.04.2019 10:04 3,6 °C 94 % 1012,9 hPa 0,0 mm 3,7 km/h (1 Bft) NO 55 ° 0 min 0,000 mm 0,0 UV-I 60 W/m² 2,7 °C 3,6 °C 8,0 km/h (2 Bft)
11.04.2019 10:05 3,6 °C 94 % 1012,8 hPa 0,0 mm 3,4 km/h (1 Bft) O-NO 70 ° 0 min 0,000 mm 0,0 UV-I 60 W/m² 2,7 °C 3,6 °C 6,4 km/h (2 Bft)
11.04.2019 10:06 3,6 °C 94 % 1012,9 hPa 0,0 mm 5,1 km/h (1 Bft) O-NO 69 ° 0 min 0,000 mm 0,0 UV-I 60 W/m² 2,7 °C 2,5 °C 11,3 km/h (2 Bft)
11.04.2019 10:07 3,6 °C 94 % 1012,9 hPa 0,0 mm 6,4 km/h (2 Bft) O-NO 61 ° 0 min 0,000 mm 0,0 UV-I 62 W/m² 2,7 °C 2,0 °C 11,3 km/h (2 Bft)
11.04.2019 10:08 3,6 °C 94 % 1012,9 hPa 0,0 mm 6,6 km/h (2 Bft) NO 55 ° 0 min 0,000 mm 0,0 UV-I 58 W/m² 2,7 °C 1,9 °C 11,3 km/h (2 Bft)
11.04.2019 10:09 3,6 °C 94 % 1012,9 hPa 0,0 mm 3,5 km/h (1 Bft) O-NO 67 ° 0 min 0,000 mm 0,0 UV-I 62 W/m² 2,7 °C 3,6 °C 6,4 km/h (2 Bft)
11.04.2019 10:10 3,6 °C 94 % 1012,9 hPa 0,0 mm 6,5 km/h (2 Bft) O 82 ° 0 min 0,000 mm 0,0 UV-I 62 W/m² 2,7 °C 1,9 °C 9,7 km/h (2 Bft)
11.04.2019 10:11 3,6 °C 94 % 1012,9 hPa 0,0 mm 7,3 km/h (2 Bft) O-NO 70 ° 0 min 0,000 mm 0,0 UV-I 63 W/m² 2,7 °C 1,7 °C 9,7 km/h (2 Bft)
11.04.2019 10:12 3,5 °C 94 % 1012,9 hPa 0,0 mm 6,7 km/h (2 Bft) O-NO 58 ° 0 min 0,000 mm 0,5 UV-I 65 W/m² 2,6 °C 1,8 °C 8,0 km/h (2 Bft)
11.04.2019 10:13 3,5 °C 94 % 1012,9 hPa 0,0 mm 4,8 km/h (1 Bft) O-NO 62 ° 0 min 0,000 mm 0,5 UV-I 67 W/m² 2,6 °C 2,5 °C 6,4 km/h (2 Bft)
11.04.2019 10:14 3,5 °C 94 % 1012,9 hPa 0,0 mm 4,7 km/h (1 Bft) O 79 ° 0 min 0,000 mm 0,5 UV-I 69 W/m² 2,6 °C 2,5 °C 8,0 km/h (2 Bft)
11.04.2019 10:15 3,4 °C 94 % 1012,9 hPa 0,0 mm 3,5 km/h (1 Bft) O-NO 59 ° 0 min 0,000 mm 0,5 UV-I 70 W/m² 2,5 °C 3,4 °C 4,8 km/h (1 Bft)
11.04.2019 10:16 3,5 °C 94 % 1012,9 hPa 0,0 mm 1,4 km/h (1 Bft) O-NO 57 ° 0 min 0,000 mm 0,5 UV-I 72 W/m² 2,6 °C 3,5 °C 3,2 km/h (1 Bft)
11.04.2019 10:17 3,5 °C 94 % 1012,9 hPa 0,0 mm 5,7 km/h (1 Bft) O-NO 76 ° 0 min 0,000 mm 0,5 UV-I 70 W/m² 2,6 °C 2,1 °C 11,3 km/h (2 Bft)
11.04.2019 10:18 3,4 °C 94 % 1012,9 hPa 0,0 mm 5,6 km/h (1 Bft) O 80 ° 0 min 0,000 mm 0,5 UV-I 70 W/m² 2,5 °C 2,0 °C 6,4 km/h (2 Bft)
11.04.2019 10:19 3,5 °C 94 % 1012,9 hPa 0,0 mm 5,0 km/h (1 Bft) O 79 ° 0 min 0,000 mm 0,5 UV-I 69 W/m² 2,6 °C 2,4 °C 8,0 km/h (2 Bft)
11.04.2019 10:20 3,5 °C 94 % 1013,0 hPa 0,0 mm 6,5 km/h (2 Bft) O-NO 76 ° 0 min 0,000 mm 0,5 UV-I 65 W/m² 2,6 °C 1,8 °C 9,7 km/h (2 Bft)
11.04.2019 10:21 3,4 °C 94 % 1013,0 hPa 0,0 mm 6,4 km/h (2 Bft) O-NO 74 ° 0 min 0,000 mm 0,5 UV-I 65 W/m² 2,5 °C 1,7 °C 8,0 km/h (2 Bft)
11.04.2019 10:22 3,5 °C 94 % 1013,0 hPa 0,0 mm 4,9 km/h (1 Bft) O-NO 62 ° 0 min 0,000 mm 0,5 UV-I 65 W/m² 2,6 °C 2,4 °C 6,4 km/h (2 Bft)
11.04.2019 10:23 3,5 °C 94 % 1013,0 hPa 0,0 mm 6,4 km/h (2 Bft) N-NO 22 ° 0 min 0,000 mm 0,5 UV-I 62 W/m² 2,6 °C 1,9 °C 8,0 km/h (2 Bft)
11.04.2019 10:24 3,5 °C 94 % 1012,9 hPa 0,0 mm 2,7 km/h (1 Bft) O-NO 61 ° 0 min 0,000 mm 0,5 UV-I 62 W/m² 2,6 °C 3,5 °C 4,8 km/h (1 Bft)
11.04.2019 10:25 3,5 °C 94 % 1012,9 hPa 0,0 mm 3,2 km/h (1 Bft) NO 48 ° 0 min 0,000 mm 0,5 UV-I 63 W/m² 2,6 °C 3,5 °C 4,8 km/h (1 Bft)
11.04.2019 10:26 3,5 °C 94 % 1013,0 hPa 0,0 mm 5,2 km/h (1 Bft) NO 53 ° 0 min 0,000 mm 0,5 UV-I 67 W/m² 2,6 °C 2,3 °C 8,0 km/h (2 Bft)
11.04.2019 10:27 3,5 °C 94 % 1013,0 hPa 0,0 mm 9,2 km/h (2 Bft) N-NO 22 ° 0 min 0,000 mm 0,5 UV-I 69 W/m² 2,6 °C 1,1 °C 11,3 km/h (2 Bft)
11.04.2019 10:28 3,5 °C 94 % 1013,0 hPa 0,0 mm 6,0 km/h (2 Bft) NO 34 ° 0 min 0,000 mm 0,5 UV-I 69 W/m² 2,6 °C 2,0 °C 9,7 km/h (2 Bft)
11.04.2019 10:29 3,5 °C 94 % 1013,0 hPa 0,0 mm 7,0 km/h (2 Bft) NO 49 ° 0 min 0,000 mm 0,5 UV-I 72 W/m² 2,6 °C 1,7 °C 9,7 km/h (2 Bft)
11.04.2019 10:30 3,5 °C 94 % 1013,0 hPa 0,0 mm 5,4 km/h (1 Bft) O-NO 74 ° 0 min 0,000 mm 0,5 UV-I 72 W/m² 2,6 °C 2,2 °C 9,7 km/h (2 Bft)
11.04.2019 10:31 3,5 °C 94 % 1013,0 hPa 0,0 mm 1,9 km/h (1 Bft) O-NO 59 ° 0 min 0,000 mm 0,5 UV-I 70 W/m² 2,6 °C 3,5 °C 4,8 km/h (1 Bft)
11.04.2019 10:32 3,5 °C 94 % 1013,0 hPa 0,0 mm 1,7 km/h (1 Bft) O-NO 68 ° 0 min 0,000 mm 0,5 UV-I 69 W/m² 2,6 °C 3,5 °C 6,4 km/h (2 Bft)
11.04.2019 10:33 3,5 °C 94 % 1013,1 hPa 0,0 mm 6,0 km/h (2 Bft) O-NO 65 ° 0 min 0,000 mm 0,5 UV-I 69 W/m² 2,6 °C 2,0 °C 11,3 km/h (2 Bft)
11.04.2019 10:34 3,5 °C 94 % 1013,1 hPa 0,0 mm 3,0 km/h (1 Bft) O-NO 64 ° 0 min 0,000 mm 0,5 UV-I 69 W/m² 2,6 °C 3,5 °C 4,8 km/h (1 Bft)
11.04.2019 10:35 3,5 °C 94 % 1013,1 hPa 0,0 mm 2,2 km/h (1 Bft) O-NO 67 ° 0 min 0,000 mm 0,5 UV-I 69 W/m² 2,6 °C 3,5 °C 4,8 km/h (1 Bft)
11.04.2019 10:36 3,6 °C 94 % 1013,1 hPa 0,0 mm 4,9 km/h (1 Bft) O-NO 75 ° 0 min 0,000 mm 0,5 UV-I 67 W/m² 2,7 °C 2,5 °C 6,4 km/h (2 Bft)
11.04.2019 10:37 3,6 °C 94 % 1013,1 hPa 0,0 mm 4,7 km/h (1 Bft) O 88 ° 0 min 0,000 mm 0,5 UV-I 67 W/m² 2,7 °C 2,6 °C 8,0 km/h (2 Bft)
11.04.2019 10:38 3,5 °C 94 % 1013,1 hPa 0,0 mm 7,0 km/h (2 Bft) O-NO 75 ° 0 min 0,000 mm 0,5 UV-I 65 W/m² 2,6 °C 1,7 °C 8,0 km/h (2 Bft)
11.04.2019 10:39 3,5 °C 94 % 1013,2 hPa 0,0 mm 6,0 km/h (2 Bft) O-NO 67 ° 0 min 0,000 mm 0,5 UV-I 63 W/m² 2,6 °C 2,0 °C 8,0 km/h (2 Bft)
11.04.2019 10:40 3,4 °C 94 % 1013,1 hPa 0,0 mm 2,9 km/h (1 Bft) NO 44 ° 0 min 0,000 mm 0,5 UV-I 62 W/m² 2,5 °C 3,4 °C 6,4 km/h (2 Bft)
11.04.2019 10:41 3,4 °C 94 % 1013,1 hPa 0,0 mm 5,8 km/h (2 Bft) NO 48 ° 0 min 0,000 mm 0,5 UV-I 60 W/m² 2,5 °C 2,0 °C 8,0 km/h (2 Bft)
11.04.2019 10:42 3,4 °C 94 % 1013,2 hPa 0,0 mm 0,7 km/h (0 Bft) O-NO 78 ° 0 min 0,000 mm 0,5 UV-I 62 W/m² 2,5 °C 3,4 °C 3,2 km/h (1 Bft)
11.04.2019 10:43 3,5 °C 94 % 1013,1 hPa 0,0 mm 3,0 km/h (1 Bft) O-NO 70 ° 0 min 0,000 mm 0,5 UV-I 70 W/m² 2,6 °C 3,5 °C 4,8 km/h (1 Bft)
11.04.2019 10:44 3,5 °C 94 % 1013,2 hPa 0,0 mm 1,7 km/h (1 Bft) NO 51 ° 0 min 0,000 mm 0,6 UV-I 72 W/m² 2,6 °C 3,5 °C 6,4 km/h (2 Bft)
11.04.2019 10:45 3,5 °C 94 % 1013,2 hPa 0,0 mm 5,6 km/h (1 Bft) NO 54 ° 0 min 0,000 mm 0,6 UV-I 74 W/m² 2,6 °C 2,1 °C 8,0 km/h (2 Bft)
11.04.2019 10:46 3,4 °C 94 % 1013,2 hPa 0,0 mm 3,0 km/h (1 Bft) O-NO 61 ° 0 min 0,000 mm 0,6 UV-I 74 W/m² 2,5 °C 3,4 °C 6,4 km/h (2 Bft)
11.04.2019 10:47 3,4 °C 94 % 1013,2 hPa 0,0 mm 2,3 km/h (1 Bft) O 80 ° 0 min 0,000 mm 0,6 UV-I 72 W/m² 2,5 °C 3,4 °C 6,4 km/h (2 Bft)
11.04.2019 10:48 3,5 °C 94 % 1013,2 hPa 0,0 mm 1,8 km/h (1 Bft) O 81 ° 0 min 0,000 mm 0,6 UV-I 72 W/m² 2,6 °C 3,5 °C 4,8 km/h (1 Bft)
11.04.2019 10:49 3,5 °C 94 % 1013,2 hPa 0,0 mm 5,0 km/h (1 Bft) O 88 ° 0 min 0,000 mm 0,5 UV-I 72 W/m² 2,6 °C 2,4 °C 6,4 km/h (2 Bft)
11.04.2019 10:50 3,4 °C 94 % 1013,2 hPa 0,0 mm 2,7 km/h (1 Bft) O 94 ° 0 min 0,000 mm 0,6 UV-I 76 W/m² 2,5 °C 3,4 °C 6,4 km/h (2 Bft)
11.04.2019 10:51 3,5 °C 94 % 1013,3 hPa 0,0 mm 1,8 km/h (1 Bft) O 94 ° 0 min 0,000 mm 0,6 UV-I 74 W/m² 2,6 °C 3,5 °C 4,8 km/h (1 Bft)
11.04.2019 10:52 3,4 °C 94 % 1013,2 hPa 0,0 mm 2,1 km/h (1 Bft) NO 46 ° 0 min 0,000 mm 0,5 UV-I 72 W/m² 2,5 °C 3,4 °C 4,8 km/h (1 Bft)
11.04.2019 10:53 3,5 °C 94 % 1013,2 hPa 0,0 mm 2,6 km/h (1 Bft) O 86 ° 0 min 0,000 mm 0,5 UV-I 70 W/m² 2,6 °C 3,5 °C 6,4 km/h (2 Bft)
11.04.2019 10:54 3,5 °C 94 % 1013,3 hPa 0,0 mm 2,3 km/h (1 Bft) O 86 ° 0 min 0,000 mm 0,5 UV-I 63 W/m² 2,6 °C 3,5 °C 6,4 km/h (2 Bft)
11.04.2019 10:55 3,5 °C 94 % 1013,3 hPa 0,0 mm 1,2 km/h (1 Bft) O-NO 71 ° 0 min 0,000 mm 0,5 UV-I 63 W/m² 2,6 °C 3,5 °C 4,8 km/h (1 Bft)
11.04.2019 10:56 3,5 °C 94 % 1013,2 hPa 0,0 mm 0,0 km/h (0 Bft) O-NO 70 ° 0 min 0,000 mm 0,5 UV-I 63 W/m² 2,6 °C 3,5 °C 0,0 km/h (0 Bft)
11.04.2019 10:57 3,5 °C 94 % 1013,3 hPa 0,0 mm 5,6 km/h (1 Bft) NO 43 ° 0 min 0,000 mm 0,5 UV-I 63 W/m² 2,6 °C 2,1 °C 9,7 km/h (2 Bft)
11.04.2019 10:58 3,5 °C 94 % 1013,2 hPa 0,0 mm 4,3 km/h (1 Bft) N-NO 26 ° 0 min 0,000 mm 0,5 UV-I 63 W/m² 2,6 °C 3,5 °C 8,0 km/h (2 Bft)
11.04.2019 10:59 3,5 °C 94 % 1013,3 hPa 0,0 mm 5,4 km/h (1 Bft) NO 50 ° 0 min 0,000 mm 0,5 UV-I 63 W/m² 2,6 °C 2,2 °C 6,4 km/h (2 Bft)
11.04.2019 11:00 3,5 °C 94 % 1013,3 hPa 0,0 mm 2,4 km/h (1 Bft) O-NO 76 ° 0 min 0,000 mm 0,5 UV-I 63 W/m² 2,6 °C 3,5 °C 6,4 km/h (2 Bft)
11.04.2019 11:01 3,6 °C 94 % 1013,3 hPa 0,0 mm 0,1 km/h (0 Bft) O-NO 76 ° 0 min 0,026 mm 0,5 UV-I 63 W/m² 2,7 °C 3,6 °C 1,6 km/h (1 Bft)
11.04.2019 11:02 3,6 °C 94 % 1013,3 hPa 0,0 mm 1,1 km/h (1 Bft) O-NO 76 ° 0 min 0,000 mm 0,5 UV-I 65 W/m² 2,7 °C 3,6 °C 3,2 km/h (1 Bft)
11.04.2019 11:03 3,6 °C 94 % 1013,3 hPa 0,0 mm 3,4 km/h (1 Bft) N 11 ° 0 min 0,000 mm 0,5 UV-I 67 W/m² 2,7 °C 3,6 °C 8,0 km/h (2 Bft)
11.04.2019 11:04 3,6 °C 94 % 1013,3 hPa 0,0 mm 5,8 km/h (2 Bft) NO 46 ° 0 min 0,000 mm 0,5 UV-I 69 W/m² 2,7 °C 2,2 °C 8,0 km/h (2 Bft)
11.04.2019 11:05 3,6 °C 94 % 1013,3 hPa 0,0 mm 3,6 km/h (1 Bft) O-NO 57 ° 0 min 0,000 mm 0,5 UV-I 70 W/m² 2,7 °C 3,6 °C 4,8 km/h (1 Bft)
11.04.2019 11:06 3,6 °C 94 % 1013,3 hPa 0,0 mm 1,3 km/h (1 Bft) O-NO 57 ° 0 min 0,000 mm 0,5 UV-I 72 W/m² 2,7 °C 3,6 °C 4,8 km/h (1 Bft)
11.04.2019 11:07 3,6 °C 94 % 1013,3 hPa 0,0 mm 4,1 km/h (1 Bft) NO 55 ° 0 min 0,000 mm 0,5 UV-I 76 W/m² 2,7 °C 3,6 °C 6,4 km/h (2 Bft)
11.04.2019 11:08 3,6 °C 94 % 1013,3 hPa 0,0 mm 4,4 km/h (1 Bft) NO 40 ° 0 min 0,000 mm 0,6 UV-I 81 W/m² 2,7 °C 3,6 °C 8,0 km/h (2 Bft)
11.04.2019 11:09 3,6 °C 94 % 1013,3 hPa 0,0 mm 6,3 km/h (2 Bft) O-NO 69 ° 0 min 0,000 mm 0,6 UV-I 84 W/m² 2,7 °C 2,0 °C 8,0 km/h (2 Bft)
11.04.2019 11:10 3,5 °C 94 % 1013,3 hPa 0,0 mm 3,9 km/h (1 Bft) O-NO 70 ° 0 min 0,000 mm 0,6 UV-I 83 W/m² 2,6 °C 3,5 °C 6,4 km/h (2 Bft)
11.04.2019 11:11 3,5 °C 94 % 1013,3 hPa 0,0 mm 0,2 km/h (0 Bft) O-NO 64 ° 0 min 0,000 mm 0,6 UV-I 81 W/m² 2,6 °C 3,5 °C 1,6 km/h (1 Bft)
11.04.2019 11:12 3,5 °C 94 % 1013,3 hPa 0,0 mm 3,6 km/h (1 Bft) NO 54 ° 0 min 0,000 mm 0,6 UV-I 83 W/m² 2,6 °C 3,5 °C 8,0 km/h (2 Bft)
11.04.2019 11:13 3,5 °C 94 % 1013,3 hPa 0,0 mm 3,3 km/h (1 Bft) O-NO 78 ° 0 min 0,000 mm 0,6 UV-I 84 W/m² 2,6 °C 3,5 °C 6,4 km/h (2 Bft)
11.04.2019 11:14 3,5 °C 94 % 1013,3 hPa 0,0 mm 2,8 km/h (1 Bft) O-NO 71 ° 0 min 0,000 mm 0,6 UV-I 81 W/m² 2,6 °C 3,5 °C 6,4 km/h (2 Bft)
11.04.2019 11:15 3,4 °C 94 % 1013,4 hPa 0,0 mm 3,3 km/h (1 Bft) O-NO 62 ° 0 min 0,000 mm 0,6 UV-I 79 W/m² 2,5 °C 3,4 °C 8,0 km/h (2 Bft)
11.04.2019 11:16 3,5 °C 94 % 1013,3 hPa 0,0 mm 4,8 km/h (1 Bft) NO 40 ° 0 min 0,000 mm 0,6 UV-I 77 W/m² 2,6 °C 2,5 °C 6,4 km/h (2 Bft)
11.04.2019 11:17 3,5 °C 94 % 1013,4 hPa 0,0 mm 5,0 km/h (1 Bft) O-NO 60 ° 0 min 0,000 mm 0,6 UV-I 79 W/m² 2,6 °C 2,4 °C 9,7 km/h (2 Bft)
11.04.2019 11:18 3,5 °C 94 % 1013,3 hPa 0,0 mm 7,4 km/h (2 Bft) NO 38 ° 0 min 0,000 mm 0,6 UV-I 90 W/m² 2,6 °C 1,5 °C 11,3 km/h (2 Bft)
11.04.2019 11:19 3,5 °C 94 % 1013,4 hPa 0,0 mm 6,6 km/h (2 Bft) NO 34 ° 0 min 0,000 mm 0,7 UV-I 91 W/m² 2,6 °C 1,8 °C 9,7 km/h (2 Bft)
11.04.2019 11:20 3,5 °C 94 % 1013,3 hPa 0,0 mm 4,0 km/h (1 Bft) O-NO 76 ° 0 min 0,000 mm 0,6 UV-I 86 W/m² 2,6 °C 3,5 °C 8,0 km/h (2 Bft)
11.04.2019 11:21 3,5 °C 94 % 1013,4 hPa 0,0 mm 3,0 km/h (1 Bft) O 79 ° 0 min 0,000 mm 0,6 UV-I 86 W/m² 2,6 °C 3,5 °C 6,4 km/h (2 Bft)
11.04.2019 11:22 3,5 °C 94 % 1013,4 hPa 0,0 mm 4,7 km/h (1 Bft) O 84 ° 0 min 0,000 mm 0,7 UV-I 90 W/m² 2,6 °C 2,5 °C 14,5 km/h (3 Bft)
11.04.2019 11:23 3,5 °C 94 % 1013,4 hPa 0,0 mm 5,5 km/h (1 Bft) NO 38 ° 0 min 0,000 mm 0,7 UV-I 90 W/m² 2,6 °C 2,2 °C 14,5 km/h (3 Bft)
11.04.2019 11:24 3,5 °C 94 % 1013,5 hPa 0,0 mm 5,4 km/h (1 Bft) NO 52 ° 0 min 0,000 mm 0,7 UV-I 86 W/m² 2,6 °C 2,2 °C 11,3 km/h (2 Bft)
11.04.2019 11:25 3,5 °C 94 % 1013,5 hPa 0,0 mm 8,0 km/h (2 Bft) O-NO 58 ° 0 min 0,000 mm 0,6 UV-I 84 W/m² 2,6 °C 1,4 °C 11,3 km/h (2 Bft)
11.04.2019 11:26 3,5 °C 94 % 1013,5 hPa 0,0 mm 4,7 km/h (1 Bft) O 82 ° 0 min 0,000 mm 0,6 UV-I 83 W/m² 2,6 °C 2,5 °C 9,7 km/h (2 Bft)
11.04.2019 11:27 3,4 °C 94 % 1013,5 hPa 0,0 mm 4,4 km/h (1 Bft) NO 54 ° 0 min 0,000 mm 0,6 UV-I 83 W/m² 2,5 °C 3,4 °C 8,0 km/h (2 Bft)
11.04.2019 11:28 3,4 °C 94 % 1013,5 hPa 0,0 mm 4,4 km/h (1 Bft) O-NO 59 ° 0 min 0,000 mm 0,6 UV-I 83 W/m² 2,5 °C 3,4 °C 6,4 km/h (2 Bft)
11.04.2019 11:29 3,4 °C 94 % 1013,5 hPa 0,0 mm 4,1 km/h (1 Bft) O 80 ° 0 min 0,000 mm 0,6 UV-I 83 W/m² 2,5 °C 3,4 °C 8,0 km/h (2 Bft)
11.04.2019 11:30 3,4 °C 94 % 1013,4 hPa 0,0 mm 8,0 km/h (2 Bft) O-NO 70 ° 0 min 0,000 mm 0,6 UV-I 77 W/m² 2,5 °C 1,3 °C 11,3 km/h (2 Bft)
11.04.2019 11:31 3,3 °C 94 % 1013,5 hPa 0,0 mm 3,6 km/h (1 Bft) O-NO 58 ° 0 min 0,000 mm 0,6 UV-I 76 W/m² 2,4 °C 3,3 °C 4,8 km/h (1 Bft)
11.04.2019 11:32 3,3 °C 94 % 1013,5 hPa 0,0 mm 3,6 km/h (1 Bft) NO 51 ° 0 min 0,000 mm 0,6 UV-I 76 W/m² 2,4 °C 3,3 °C 6,4 km/h (2 Bft)
11.04.2019 11:33 3,3 °C 94 % 1013,5 hPa 0,0 mm 2,9 km/h (1 Bft) O 87 ° 0 min 0,000 mm 0,6 UV-I 76 W/m² 2,4 °C 3,3 °C 4,8 km/h (1 Bft)
11.04.2019 11:34 3,3 °C 94 % 1013,5 hPa 0,0 mm 2,6 km/h (1 Bft) O 94 ° 0 min 0,000 mm 0,6 UV-I 77 W/m² 2,4 °C 3,3 °C 9,7 km/h (2 Bft)
11.04.2019 11:35 3,4 °C 94 % 1013,5 hPa 0,0 mm 3,6 km/h (1 Bft) NO 48 ° 0 min 0,000 mm 0,6 UV-I 81 W/m² 2,5 °C 3,4 °C 6,4 km/h (2 Bft)
11.04.2019 11:36 3,4 °C 94 % 1013,5 hPa 0,0 mm 3,9 km/h (1 Bft) O-NO 63 ° 0 min 0,000 mm 0,6 UV-I 81 W/m² 2,5 °C 3,4 °C 4,8 km/h (1 Bft)
11.04.2019 11:37 3,4 °C 94 % 1013,5 hPa 0,0 mm 2,4 km/h (1 Bft) O-NO 63 ° 0 min 0,000 mm 0,6 UV-I 79 W/m² 2,5 °C 3,4 °C 4,8 km/h (1 Bft)
11.04.2019 11:38 3,5 °C 94 % 1013,5 hPa 0,0 mm 6,2 km/h (2 Bft) NO 36 ° 0 min 0,000 mm 0,6 UV-I 81 W/m² 2,6 °C 1,9 °C 9,7 km/h (2 Bft)
11.04.2019 11:39 3,5 °C 94 % 1013,5 hPa 0,0 mm 5,8 km/h (2 Bft) O 81 ° 0 min 0,000 mm 0,6 UV-I 79 W/m² 2,6 °C 2,1 °C 8,0 km/h (2 Bft)
11.04.2019 11:40 3,5 °C 94 % 1013,6 hPa 0,0 mm 3,8 km/h (1 Bft) O-NO 64 ° 0 min 0,000 mm 0,6 UV-I 77 W/m² 2,6 °C 3,5 °C 4,8 km/h (1 Bft)
11.04.2019 11:41 3,4 °C 94 % 1013,5 hPa 0,0 mm 4,7 km/h (1 Bft) O 94 ° 0 min 0,000 mm 0,6 UV-I 76 W/m² 2,5 °C 2,4 °C 6,4 km/h (2 Bft)
11.04.2019 11:42 3,4 °C 94 % 1013,5 hPa 0,0 mm 2,0 km/h (1 Bft) O-NO 60 ° 0 min 0,000 mm 0,6 UV-I 70 W/m² 2,5 °C 3,4 °C 4,8 km/h (1 Bft)
11.04.2019 11:43 3,4 °C 94 % 1013,5 hPa 0,0 mm 1,4 km/h (1 Bft) O-NO 60 ° 0 min 0,000 mm 0,5 UV-I 70 W/m² 2,5 °C 3,4 °C 3,2 km/h (1 Bft)
11.04.2019 11:44 3,4 °C 94 % 1013,5 hPa 0,0 mm 5,4 km/h (1 Bft) O-NO 69 ° 0 min 0,000 mm 0,6 UV-I 72 W/m² 2,5 °C 2,1 °C 11,3 km/h (2 Bft)
11.04.2019 11:45 3,5 °C 94 % 1013,5 hPa 0,0 mm 6,3 km/h (2 Bft) O-NO 74 ° 0 min 0,000 mm 0,6 UV-I 74 W/m² 2,6 °C 1,9 °C 8,0 km/h (2 Bft)
11.04.2019 11:46 3,4 °C 94 % 1013,5 hPa 0,0 mm 3,1 km/h (1 Bft) O-NO 76 ° 0 min 0,000 mm 0,6 UV-I 72 W/m² 2,5 °C 3,4 °C 6,4 km/h (2 Bft)
11.04.2019 11:47 3,4 °C 94 % 1013,5 hPa 0,0 mm 0,1 km/h (0 Bft) O-NO 57 ° 0 min 0,000 mm 0,6 UV-I 74 W/m² 2,5 °C 3,4 °C 3,2 km/h (1 Bft)
11.04.2019 11:48 3,4 °C 94 % 1013,6 hPa 0,0 mm 2,6 km/h (1 Bft) O-NO 63 ° 0 min 0,000 mm 0,6 UV-I 77 W/m² 2,5 °C 3,4 °C 6,4 km/h (2 Bft)
11.04.2019 11:49 3,4 °C 94 % 1013,6 hPa 0,0 mm 2,2 km/h (1 Bft) O-NO 75 ° 0 min 0,000 mm 0,6 UV-I 77 W/m² 2,5 °C 3,4 °C 4,8 km/h (1 Bft)
11.04.2019 11:50 3,4 °C 94 % 1013,5 hPa 0,0 mm 4,2 km/h (1 Bft) NO 53 ° 0 min 0,000 mm 0,6 UV-I 77 W/m² 2,5 °C 3,4 °C 6,4 km/h (2 Bft)
11.04.2019 11:51 3,4 °C 94 % 1013,6 hPa 0,0 mm 2,5 km/h (1 Bft) NO 52 ° 0 min 0,000 mm 0,6 UV-I 72 W/m² 2,5 °C 3,4 °C 4,8 km/h (1 Bft)
11.04.2019 11:52 3,5 °C 94 % 1013,5 hPa 0,0 mm 3,2 km/h (1 Bft) O 88 ° 0 min 0,000 mm 0,6 UV-I 72 W/m² 2,6 °C 3,5 °C 6,4 km/h (2 Bft)
11.04.2019 11:53 3,4 °C 94 % 1013,6 hPa 0,0 mm 2,6 km/h (1 Bft) O-NO 72 ° 0 min 0,000 mm 0,6 UV-I 72 W/m² 2,5 °C 3,4 °C 6,4 km/h (2 Bft)
11.04.2019 11:54 3,5 °C 94 % 1013,6 hPa 0,0 mm 3,8 km/h (1 Bft) O-NO 72 ° 0 min 0,000 mm 0,6 UV-I 72 W/m² 2,6 °C 3,5 °C 4,8 km/h (1 Bft)
11.04.2019 11:55 3,4 °C 94 % 1013,6 hPa 0,0 mm 5,0 km/h (1 Bft) O-NO 69 ° 0 min 0,000 mm 0,5 UV-I 69 W/m² 2,5 °C 2,3 °C 6,4 km/h (2 Bft)
11.04.2019 11:56 3,4 °C 94 % 1013,6 hPa 0,0 mm 6,2 km/h (2 Bft) NO 52 ° 0 min 0,000 mm 0,5 UV-I 69 W/m² 2,5 °C 1,8 °C 8,0 km/h (2 Bft)
11.04.2019 11:57 3,4 °C 94 % 1013,6 hPa 0,0 mm 5,7 km/h (1 Bft) NO 40 ° 0 min 0,000 mm 0,5 UV-I 70 W/m² 2,5 °C 2,0 °C 8,0 km/h (2 Bft)
11.04.2019 11:58 3,3 °C 94 % 1013,6 hPa 0,0 mm 3,5 km/h (1 Bft) N-NO 22 ° 0 min 0,000 mm 0,6 UV-I 70 W/m² 2,4 °C 3,3 °C 4,8 km/h (1 Bft)
11.04.2019 11:59 3,4 °C 94 % 1013,6 hPa 0,0 mm 4,0 km/h (1 Bft) O-NO 65 ° 0 min 0,000 mm 0,6 UV-I 76 W/m² 2,5 °C 3,4 °C 8,0 km/h (2 Bft)
11.04.2019 12:00 3,4 °C 94 % 1013,6 hPa 0,0 mm 4,8 km/h (1 Bft) O-NO 61 ° 0 min 0,000 mm 0,6 UV-I 74 W/m² 2,5 °C 2,4 °C 8,0 km/h (2 Bft)
11.04.2019 12:01 3,4 °C 94 % 1013,6 hPa 0,0 mm 5,0 km/h (1 Bft) N-NO 28 ° 0 min 0,025 mm 0,6 UV-I 74 W/m² 2,5 °C 2,3 °C 9,7 km/h (2 Bft)
11.04.2019 12:02 3,4 °C 94 % 1013,6 hPa 0,0 mm 3,0 km/h (1 Bft) O-NO 63 ° 0 min 0,000 mm 0,6 UV-I 77 W/m² 2,5 °C 3,4 °C 4,8 km/h (1 Bft)
11.04.2019 12:03 3,4 °C 94 % 1013,6 hPa 0,0 mm 4,1 km/h (1 Bft) N-NO 33 ° 0 min 0,000 mm 0,6 UV-I 76 W/m² 2,5 °C 3,4 °C 8,0 km/h (2 Bft)
11.04.2019 12:04 3,3 °C 94 % 1013,7 hPa 0,0 mm 0,9 km/h (0 Bft) N-NO 32 ° 0 min 0,000 mm 0,6 UV-I 74 W/m² 2,4 °C 3,3 °C 3,2 km/h (1 Bft)
11.04.2019 12:05 3,4 °C 94 % 1013,6 hPa 0,0 mm 5,2 km/h (1 Bft) NO 37 ° 0 min 0,000 mm 0,6 UV-I 72 W/m² 2,5 °C 2,2 °C 6,4 km/h (2 Bft)
11.04.2019 12:06 3,4 °C 94 % 1013,7 hPa 0,0 mm 4,5 km/h (1 Bft) NO 52 ° 0 min 0,000 mm 0,6 UV-I 72 W/m² 2,5 °C 3,4 °C 6,4 km/h (2 Bft)
11.04.2019 12:07 3,4 °C 94 % 1013,7 hPa 0,0 mm 3,6 km/h (1 Bft) NO 49 ° 0 min 0,000 mm 0,5 UV-I 72 W/m² 2,5 °C 3,4 °C 6,4 km/h (2 Bft)
11.04.2019 12:08 3,4 °C 94 % 1013,7 hPa 0,0 mm 1,4 km/h (1 Bft) NO 49 ° 0 min 0,000 mm 0,5 UV-I 69 W/m² 2,5 °C 3,4 °C 4,8 km/h (1 Bft)
11.04.2019 12:09 3,3 °C 94 % 1013,6 hPa 0,0 mm 0,0 km/h (0 Bft) NO 49 ° 0 min 0,000 mm 0,5 UV-I 65 W/m² 2,4 °C 3,3 °C 0,0 km/h (0 Bft)
11.04.2019 12:10 3,3 °C 94 % 1013,7 hPa 0,0 mm 2,0 km/h (1 Bft) NO 43 ° 0 min 0,000 mm 0,5 UV-I 65 W/m² 2,4 °C 3,3 °C 6,4 km/h (2 Bft)
11.04.2019 12:11 3,4 °C 94 % 1013,7 hPa 0,0 mm 5,8 km/h (2 Bft) O-NO 67 ° 0 min 0,000 mm 0,6 UV-I 77 W/m² 2,5 °C 2,0 °C 9,7 km/h (2 Bft)
11.04.2019 12:12 3,4 °C 94 % 1013,7 hPa 0,0 mm 5,2 km/h (1 Bft) NO 40 ° 0 min 0,000 mm 0,6 UV-I 81 W/m² 2,5 °C 2,2 °C 8,0 km/h (2 Bft)
11.04.2019 12:13 3,4 °C 94 % 1013,7 hPa 0,0 mm 7,5 km/h (2 Bft) NO 55 ° 0 min 0,000 mm 0,6 UV-I 83 W/m² 2,5 °C 1,4 °C 9,7 km/h (2 Bft)
11.04.2019 12:14 3,3 °C 94 % 1013,7 hPa 0,0 mm 4,4 km/h (1 Bft) N 360 ° 0 min 0,000 mm 0,6 UV-I 84 W/m² 2,4 °C 3,3 °C 6,4 km/h (2 Bft)
11.04.2019 12:15 3,4 °C 94 % 1013,7 hPa 0,0 mm 4,2 km/h (1 Bft) NO 41 ° 0 min 0,000 mm 0,6 UV-I 84 W/m² 2,5 °C 3,4 °C 6,4 km/h (2 Bft)
11.04.2019 12:16 3,4 °C 94 % 1013,7 hPa 0,0 mm 5,2 km/h (1 Bft) NO 44 ° 0 min 0,000 mm 0,7 UV-I 84 W/m² 2,5 °C 2,2 °C 6,4 km/h (2 Bft)
11.04.2019 12:17 3,4 °C 94 % 1013,7 hPa 0,0 mm 2,8 km/h (1 Bft) O-NO 57 ° 0 min 0,000 mm 0,7 UV-I 86 W/m² 2,5 °C 3,4 °C 4,8 km/h (1 Bft)
11.04.2019 12:18 3,4 °C 94 % 1013,7 hPa 0,0 mm 2,3 km/h (1 Bft) NO 39 ° 0 min 0,000 mm 0,7 UV-I 86 W/m² 2,5 °C 3,4 °C 4,8 km/h (1 Bft)
11.04.2019 12:19 3,4 °C 94 % 1013,7 hPa 0,0 mm 3,0 km/h (1 Bft) N 5 ° 0 min 0,000 mm 0,6 UV-I 86 W/m² 2,5 °C 3,4 °C 6,4 km/h (2 Bft)
11.04.2019 12:20 3,4 °C 94 % 1013,7 hPa 0,0 mm 1,3 km/h (1 Bft) O-NO 65 ° 0 min 0,000 mm 0,7 UV-I 84 W/m² 2,5 °C 3,4 °C 4,8 km/h (1 Bft)
11.04.2019 12:21 3,3 °C 94 % 1013,7 hPa 0,0 mm 2,7 km/h (1 Bft) N 5 ° 0 min 0,000 mm 0,6 UV-I 84 W/m² 2,4 °C 3,3 °C 8,0 km/h (2 Bft)
11.04.2019 12:22 3,3 °C 94 % 1013,7 hPa 0,0 mm 3,9 km/h (1 Bft) NO 37 ° 0 min 0,000 mm 0,6 UV-I 81 W/m² 2,4 °C 3,3 °C 4,8 km/h (1 Bft)
11.04.2019 12:23 3,4 °C 94 % 1013,7 hPa 0,0 mm 1,1 km/h (1 Bft) N-NO 22 ° 0 min 0,000 mm 0,6 UV-I 79 W/m² 2,5 °C 3,4 °C 3,2 km/h (1 Bft)
11.04.2019 12:24 3,4 °C 94 % 1013,7 hPa 0,0 mm 3,1 km/h (1 Bft) N-NO 23 ° 0 min 0,000 mm 0,6 UV-I 79 W/m² 2,5 °C 3,4 °C 4,8 km/h (1 Bft)
11.04.2019 12:25 3,4 °C 94 % 1013,7 hPa 0,0 mm 2,9 km/h (1 Bft) N-NO 31 ° 0 min 0,000 mm 0,6 UV-I 77 W/m² 2,5 °C 3,4 °C 3,2 km/h (1 Bft)
11.04.2019 12:26 3,4 °C 94 % 1013,7 hPa 0,0 mm 2,3 km/h (1 Bft) O-NO 71 ° 0 min 0,000 mm 0,6 UV-I 81 W/m² 2,5 °C 3,4 °C 4,8 km/h (1 Bft)
11.04.2019 12:27 3,4 °C 94 % 1013,7 hPa 0,0 mm 4,4 km/h (1 Bft) O-NO 71 ° 0 min 0,000 mm 0,7 UV-I 84 W/m² 2,5 °C 3,4 °C 8,0 km/h (2 Bft)
11.04.2019 12:28 3,4 °C 94 % 1013,7 hPa 0,0 mm 3,6 km/h (1 Bft) O-NO 67 ° 0 min 0,000 mm 0,6 UV-I 77 W/m² 2,5 °C 3,4 °C 4,8 km/h (1 Bft)
11.04.2019 12:29 3,3 °C 94 % 1013,7 hPa 0,0 mm 5,2 km/h (1 Bft) N 355 ° 0 min 0,000 mm 0,6 UV-I 70 W/m² 2,4 °C 2,1 °C 9,7 km/h (2 Bft)
11.04.2019 12:30 3,3 °C 94 % 1013,7 hPa 0,0 mm 4,3 km/h (1 Bft) NO 48 ° 0 min 0,000 mm 0,5 UV-I 69 W/m² 2,4 °C 3,3 °C 8,0 km/h (2 Bft)
11.04.2019 12:31 3,4 °C 94 % 1013,8 hPa 0,0 mm 3,0 km/h (1 Bft) O-NO 63 ° 0 min 0,000 mm 0,6 UV-I 70 W/m² 2,5 °C 3,4 °C 4,8 km/h (1 Bft)
11.04.2019 12:32 3,4 °C 94 % 1013,8 hPa 0,0 mm 1,7 km/h (1 Bft) O-NO 61 ° 0 min 0,000 mm 0,6 UV-I 70 W/m² 2,5 °C 3,4 °C 3,2 km/h (1 Bft)
11.04.2019 12:33 3,4 °C 94 % 1013,7 hPa 0,0 mm 2,4 km/h (1 Bft) O-NO 57 ° 0 min 0,000 mm 0,6 UV-I 70 W/m² 2,5 °C 3,4 °C 4,8 km/h (1 Bft)
11.04.2019 12:34 3,4 °C 94 % 1013,7 hPa 0,0 mm 7,9 km/h (2 Bft) O-NO 63 ° 0 min 0,000 mm 0,6 UV-I 72 W/m² 2,5 °C 1,3 °C 12,9 km/h (3 Bft)
11.04.2019 12:35 3,4 °C 94 % 1013,7 hPa 0,0 mm 5,0 km/h (1 Bft) O-NO 66 ° 0 min 0,000 mm 0,6 UV-I 72 W/m² 2,5 °C 2,3 °C 6,4 km/h (2 Bft)
11.04.2019 12:36 3,3 °C 94 % 1013,8 hPa 0,0 mm 6,6 km/h (2 Bft) O 84 ° 0 min 0,000 mm 0,6 UV-I 72 W/m² 2,4 °C 1,6 °C 8,0 km/h (2 Bft)
11.04.2019 12:37 3,3 °C 94 % 1013,8 hPa 0,0 mm 4,4 km/h (1 Bft) O-NO 73 ° 0 min 0,000 mm 0,6 UV-I 70 W/m² 2,4 °C 3,3 °C 8,0 km/h (2 Bft)
11.04.2019 12:38 3,3 °C 94 % 1013,8 hPa 0,0 mm 3,6 km/h (1 Bft) O-NO 71 ° 0 min 0,000 mm 0,6 UV-I 70 W/m² 2,4 °C 3,3 °C 6,4 km/h (2 Bft)
11.04.2019 12:39 3,3 °C 94 % 1013,8 hPa 0,0 mm 2,7 km/h (1 Bft) O-NO 58 ° 0 min 0,000 mm 0,6 UV-I 70 W/m² 2,4 °C 3,3 °C 4,8 km/h (1 Bft)
11.04.2019 12:40 3,3 °C 94 % 1013,8 hPa 0,0 mm 1,4 km/h (1 Bft) O-NO 58 ° 0 min 0,000 mm 0,5 UV-I 69 W/m² 2,4 °C 3,3 °C 4,8 km/h (1 Bft)
11.04.2019 12:41 3,3 °C 94 % 1013,8 hPa 0,0 mm 2,8 km/h (1 Bft) O-NO 73 ° 0 min 0,000 mm 0,5 UV-I 69 W/m² 2,4 °C 3,3 °C 8,0 km/h (2 Bft)
11.04.2019 12:42 3,3 °C 94 % 1013,8 hPa 0,0 mm 4,3 km/h (1 Bft) O-NO 66 ° 0 min 0,000 mm 0,6 UV-I 70 W/m² 2,4 °C 3,3 °C 6,4 km/h (2 Bft)
11.04.2019 12:43 3,3 °C 94 % 1013,8 hPa 0,0 mm 3,6 km/h (1 Bft) NO 42 ° 0 min 0,000 mm 0,6 UV-I 74 W/m² 2,4 °C 3,3 °C 4,8 km/h (1 Bft)
11.04.2019 12:44 3,3 °C 94 % 1013,8 hPa 0,0 mm 1,8 km/h (1 Bft) NO 42 ° 0 min 0,000 mm 0,6 UV-I 74 W/m² 2,4 °C 3,3 °C 4,8 km/h (1 Bft)
11.04.2019 12:45 3,3 °C 94 % 1013,9 hPa 0,0 mm 4,1 km/h (1 Bft) O 84 ° 0 min 0,000 mm 0,6 UV-I 74 W/m² 2,4 °C 3,3 °C 6,4 km/h (2 Bft)
11.04.2019 12:46 3,3 °C 94 % 1013,8 hPa 0,0 mm 3,8 km/h (1 Bft) O 84 ° 0 min 0,000 mm 0,6 UV-I 76 W/m² 2,4 °C 3,3 °C 6,4 km/h (2 Bft)
11.04.2019 12:47 3,3 °C 94 % 1013,9 hPa 0,0 mm 1,4 km/h (1 Bft) NO 51 ° 0 min 0,000 mm 0,6 UV-I 74 W/m² 2,4 °C 3,3 °C 4,8 km/h (1 Bft)
11.04.2019 12:48 3,3 °C 94 % 1013,8 hPa 0,0 mm 3,6 km/h (1 Bft) O 84 ° 0 min 0,000 mm 0,6 UV-I 74 W/m² 2,4 °C 3,3 °C 6,4 km/h (2 Bft)
11.04.2019 12:49 3,3 °C 94 % 1013,8 hPa 0,0 mm 6,1 km/h (2 Bft) O-NO 71 ° 0 min 0,000 mm 0,6 UV-I 76 W/m² 2,4 °C 1,7 °C 8,0 km/h (2 Bft)
11.04.2019 12:50 3,3 °C 94 % 1013,9 hPa 0,0 mm 1,5 km/h (1 Bft) O-NO 66 ° 0 min 0,000 mm 0,6 UV-I 77 W/m² 2,4 °C 3,3 °C 4,8 km/h (1 Bft)
11.04.2019 12:51 3,3 °C 94 % 1013,9 hPa 0,0 mm 6,1 km/h (2 Bft) O 79 ° 0 min 0,000 mm 0,6 UV-I 77 W/m² 2,4 °C 1,7 °C 11,3 km/h (2 Bft)
11.04.2019 12:52 3,3 °C 94 % 1013,9 hPa 0,0 mm 4,6 km/h (1 Bft) O-NO 69 ° 0 min 0,000 mm 0,6 UV-I 79 W/m² 2,4 °C 2,3 °C 8,0 km/h (2 Bft)
11.04.2019 12:53 3,3 °C 94 % 1013,9 hPa 0,0 mm 5,6 km/h (1 Bft) O 84 ° 0 min 0,000 mm 0,6 UV-I 79 W/m² 2,4 °C 1,9 °C 11,3 km/h (2 Bft)
11.04.2019 12:54 3,3 °C 94 % 1013,9 hPa 0,0 mm 1,4 km/h (1 Bft) O 84 ° 0 min 0,000 mm 0,6 UV-I 79 W/m² 2,4 °C 3,3 °C 4,8 km/h (1 Bft)
11.04.2019 12:55 3,3 °C 94 % 1013,9 hPa 0,0 mm 6,1 km/h (2 Bft) O 85 ° 0 min 0,000 mm 0,6 UV-I 77 W/m² 2,4 °C 1,7 °C 11,3 km/h (2 Bft)
11.04.2019 12:56 3,3 °C 94 % 1013,9 hPa 0,0 mm 6,4 km/h (2 Bft) O-NO 73 ° 0 min 0,000 mm 0,6 UV-I 76 W/m² 2,4 °C 1,6 °C 11,3 km/h (2 Bft)
11.04.2019 12:57 3,3 °C 94 % 1013,9 hPa 0,0 mm 4,9 km/h (1 Bft) O-NO 69 ° 0 min 0,000 mm 0,6 UV-I 74 W/m² 2,4 °C 2,2 °C 8,0 km/h (2 Bft)
11.04.2019 12:58 3,3 °C 94 % 1013,9 hPa 0,0 mm 4,4 km/h (1 Bft) O 90 ° 0 min 0,000 mm 0,5 UV-I 65 W/m² 2,4 °C 3,3 °C 6,4 km/h (2 Bft)
11.04.2019 12:59 3,3 °C 94 % 1013,9 hPa 0,0 mm 3,0 km/h (1 Bft) O-NO 59 ° 0 min 0,000 mm 0,5 UV-I 67 W/m² 2,4 °C 3,3 °C 4,8 km/h (1 Bft)
11.04.2019 13:00 3,3 °C 94 % 1013,9 hPa 0,0 mm 4,8 km/h (1 Bft) NO 34 ° 0 min 0,026 mm 0,5 UV-I 65 W/m² 2,4 °C 2,2 °C 8,0 km/h (2 Bft)
11.04.2019 13:01 3,3 °C 94 % 1013,9 hPa 0,0 mm 5,6 km/h (1 Bft) NO 55 ° 0 min 0,000 mm 0,5 UV-I 62 W/m² 2,4 °C 1,9 °C 9,7 km/h (2 Bft)
11.04.2019 13:02 3,3 °C 94 % 1014,0 hPa 0,0 mm 7,1 km/h (2 Bft) NO 40 ° 0 min 0,000 mm 0,5 UV-I 63 W/m² 2,4 °C 1,4 °C 9,7 km/h (2 Bft)
11.04.2019 13:03 3,3 °C 94 % 1014,0 hPa 0,0 mm 2,6 km/h (1 Bft) N 355 ° 0 min 0,000 mm 0,5 UV-I 65 W/m² 2,4 °C 3,3 °C 6,4 km/h (2 Bft)
11.04.2019 13:04 3,3 °C 94 % 1014,0 hPa 0,0 mm 6,2 km/h (2 Bft) N-NO 28 ° 0 min 0,000 mm 0,5 UV-I 67 W/m² 2,4 °C 1,7 °C 9,7 km/h (2 Bft)
11.04.2019 13:05 3,3 °C 94 % 1014,0 hPa 0,0 mm 4,8 km/h (1 Bft) O-NO 68 ° 0 min 0,000 mm 0,6 UV-I 69 W/m² 2,4 °C 2,2 °C 6,4 km/h (2 Bft)
11.04.2019 13:06 3,3 °C 94 % 1014,0 hPa 0,0 mm 4,6 km/h (1 Bft) N-NO 20 ° 0 min 0,000 mm 0,6 UV-I 70 W/m² 2,4 °C 2,3 °C 6,4 km/h (2 Bft)
11.04.2019 13:07 3,3 °C 94 % 1014,0 hPa 0,0 mm 4,4 km/h (1 Bft) N-NO 17 ° 0 min 0,000 mm 0,6 UV-I 70 W/m² 2,4 °C 3,3 °C 8,0 km/h (2 Bft)
11.04.2019 13:08 3,3 °C 94 % 1014,0 hPa 0,0 mm 4,8 km/h (1 Bft) NO 40 ° 0 min 0,000 mm 0,5 UV-I 67 W/m² 2,4 °C 2,2 °C 6,4 km/h (2 Bft)
11.04.2019 13:09 3,3 °C 94 % 1014,0 hPa 0,0 mm 3,6 km/h (1 Bft) N 355 ° 0 min 0,000 mm 0,5 UV-I 67 W/m² 2,4 °C 3,3 °C 4,8 km/h (1 Bft)
11.04.2019 13:10 3,3 °C 94 % 1014,0 hPa 0,0 mm 0,8 km/h (0 Bft) N-NO 20 ° 0 min 0,000 mm 0,5 UV-I 67 W/m² 2,4 °C 3,3 °C 3,2 km/h (1 Bft)
11.04.2019 13:11 3,3 °C 94 % 1014,0 hPa 0,0 mm 5,2 km/h (1 Bft) N 5 ° 0 min 0,000 mm 0,5 UV-I 69 W/m² 2,4 °C 2,1 °C 11,3 km/h (2 Bft)
11.04.2019 13:12 3,3 °C 94 % 1014,1 hPa 0,0 mm 5,4 km/h (1 Bft) N 5 ° 0 min 0,000 mm 0,6 UV-I 69 W/m² 2,4 °C 2,0 °C 6,4 km/h (2 Bft)
11.04.2019 13:13 3,3 °C 94 % 1014,0 hPa 0,0 mm 4,8 km/h (1 Bft) N-NO 13 ° 0 min 0,000 mm 0,6 UV-I 72 W/m² 2,4 °C 2,2 °C 6,4 km/h (2 Bft)
11.04.2019 13:14 3,3 °C 94 % 1014,1 hPa 0,0 mm 5,4 km/h (1 Bft) N-NO 32 ° 0 min 0,000 mm 0,6 UV-I 74 W/m² 2,4 °C 2,0 °C 6,4 km/h (2 Bft)
11.04.2019 13:15 3,3 °C 94 % 1014,0 hPa 0,0 mm 2,5 km/h (1 Bft) O 92 ° 0 min 0,000 mm 0,6 UV-I 81 W/m² 2,4 °C 3,3 °C 6,4 km/h (2 Bft)
11.04.2019 13:16 3,3 °C 94 % 1014,1 hPa 0,0 mm 5,3 km/h (1 Bft) NO 38 ° 0 min 0,000 mm 0,7 UV-I 83 W/m² 2,4 °C 2,0 °C 8,0 km/h (2 Bft)
11.04.2019 13:17 3,2 °C 94 % 1014,1 hPa 0,0 mm 2,2 km/h (1 Bft) O-NO 58 ° 0 min 0,000 mm 0,7 UV-I 83 W/m² 2,3 °C 3,2 °C 4,8 km/h (1 Bft)
11.04.2019 13:18 3,3 °C 94 % 1014,1 hPa 0,0 mm 1,3 km/h (1 Bft) O 87 ° 0 min 0,000 mm 0,7 UV-I 86 W/m² 2,4 °C 3,3 °C 4,8 km/h (1 Bft)
11.04.2019 13:19 3,3 °C 94 % 1014,1 hPa 0,0 mm 1,1 km/h (1 Bft) O 88 ° 0 min 0,000 mm 0,7 UV-I 86 W/m² 2,4 °C 3,3 °C 3,2 km/h (1 Bft)
11.04.2019 13:20 3,3 °C 94 % 1014,1 hPa 0,0 mm 2,7 km/h (1 Bft) O-NO 76 ° 0 min 0,000 mm 0,6 UV-I 83 W/m² 2,4 °C 3,3 °C 6,4 km/h (2 Bft)
11.04.2019 13:21 3,3 °C 94 % 1014,1 hPa 0,0 mm 0,7 km/h (0 Bft) O 101 ° 0 min 0,000 mm 0,6 UV-I 72 W/m² 2,4 °C 3,3 °C 3,2 km/h (1 Bft)
11.04.2019 13:22 3,2 °C 94 % 1014,1 hPa 0,0 mm 1,7 km/h (1 Bft) O-NO 74 ° 0 min 0,000 mm 0,5 UV-I 69 W/m² 2,3 °C 3,2 °C 4,8 km/h (1 Bft)
11.04.2019 13:23 3,3 °C 94 % 1014,2 hPa 0,0 mm 6,8 km/h (2 Bft) O 91 ° 0 min 0,000 mm 0,5 UV-I 67 W/m² 2,4 °C 1,5 °C 8,0 km/h (2 Bft)
11.04.2019 13:24 3,3 °C 94 % 1014,1 hPa 0,0 mm 7,1 km/h (2 Bft) NO 49 ° 0 min 0,000 mm 0,5 UV-I 65 W/m² 2,4 °C 1,4 °C 9,7 km/h (2 Bft)
11.04.2019 13:25 3,3 °C 94 % 1014,2 hPa 0,0 mm 5,9 km/h (2 Bft) O-NO 66 ° 0 min 0,000 mm 0,5 UV-I 63 W/m² 2,4 °C 1,8 °C 8,0 km/h (2 Bft)
11.04.2019 13:26 3,2 °C 94 % 1014,2 hPa 0,0 mm 3,4 km/h (1 Bft) O 83 ° 0 min 0,000 mm 0,5 UV-I 65 W/m² 2,3 °C 3,2 °C 6,4 km/h (2 Bft)
11.04.2019 13:27 3,2 °C 94 % 1014,2 hPa 0,0 mm 2,7 km/h (1 Bft) NO 45 ° 0 min 0,000 mm 0,5 UV-I 62 W/m² 2,3 °C 3,2 °C 6,4 km/h (2 Bft)
11.04.2019 13:28 3,3 °C 94 % 1014,2 hPa 0,0 mm 1,0 km/h (0 Bft) NO 47 ° 0 min 0,000 mm 0,5 UV-I 62 W/m² 2,4 °C 3,3 °C 4,8 km/h (1 Bft)
11.04.2019 13:29 3,2 °C 94 % 1014,1 hPa 0,0 mm 0,1 km/h (0 Bft) NO 47 ° 0 min 0,000 mm 0,0 UV-I 58 W/m² 2,3 °C 3,2 °C 1,6 km/h (1 Bft)
11.04.2019 13:30 3,3 °C 94 % 1014,2 hPa 0,0 mm 0,0 km/h (0 Bft) NO 47 ° 0 min 0,000 mm 0,0 UV-I 56 W/m² 2,4 °C 3,3 °C 0,0 km/h (0 Bft)
11.04.2019 13:31 3,3 °C 94 % 1014,2 hPa 0,0 mm 2,5 km/h (1 Bft) NO 52 ° 0 min 0,000 mm 0,5 UV-I 56 W/m² 2,4 °C 3,3 °C 6,4 km/h (2 Bft)
11.04.2019 13:32 3,3 °C 94 % 1014,3 hPa 0,0 mm 6,7 km/h (2 Bft) NO 52 ° 0 min 0,000 mm 0,5 UV-I 62 W/m² 2,4 °C 1,5 °C 9,7 km/h (2 Bft)
11.04.2019 13:33 3,2 °C 94 % 1014,3 hPa 0,0 mm 1,4 km/h (1 Bft) NO 52 ° 0 min 0,000 mm 0,5 UV-I 63 W/m² 2,3 °C 3,2 °C 4,8 km/h (1 Bft)
11.04.2019 13:34 3,2 °C 94 % 1014,3 hPa 0,0 mm 4,8 km/h (1 Bft) O-NO 57 ° 0 min 0,000 mm 0,5 UV-I 62 W/m² 2,3 °C 2,1 °C 8,0 km/h (2 Bft)
11.04.2019 13:35 3,2 °C 94 % 1014,3 hPa 0,0 mm 5,6 km/h (1 Bft) O-NO 63 ° 0 min 0,000 mm 0,5 UV-I 62 W/m² 2,3 °C 1,8 °C 9,7 km/h (2 Bft)
11.04.2019 13:36 3,2 °C 94 % 1014,3 hPa 0,0 mm 4,8 km/h (1 Bft) N-NO 24 ° 0 min 0,000 mm 0,5 UV-I 62 W/m² 2,3 °C 2,1 °C 6,4 km/h (2 Bft)
11.04.2019 13:37 3,2 °C 94 % 1014,2 hPa 0,0 mm 6,8 km/h (2 Bft) O-NO 65 ° 0 min 0,000 mm 0,5 UV-I 58 W/m² 2,3 °C 1,4 °C 9,7 km/h (2 Bft)
11.04.2019 13:38 3,2 °C 94 % 1014,3 hPa 0,0 mm 5,3 km/h (1 Bft) NO 44 ° 0 min 0,000 mm 0,5 UV-I 60 W/m² 2,3 °C 1,9 °C 9,7 km/h (2 Bft)
11.04.2019 13:39 3,2 °C 94 % 1014,3 hPa 0,0 mm 8,2 km/h (2 Bft) O-NO 58 ° 0 min 0,000 mm 0,5 UV-I 69 W/m² 2,3 °C 1,0 °C 11,3 km/h (2 Bft)
11.04.2019 13:40 3,2 °C 94 % 1014,3 hPa 0,0 mm 4,3 km/h (1 Bft) O-NO 60 ° 0 min 0,000 mm 0,5 UV-I 70 W/m² 2,3 °C 3,2 °C 8,0 km/h (2 Bft)
11.04.2019 13:41 3,1 °C 94 % 1014,3 hPa 0,0 mm 0,7 km/h (0 Bft) NO 34 ° 0 min 0,000 mm 0,6 UV-I 70 W/m² 2,2 °C 3,1 °C 4,8 km/h (1 Bft)
11.04.2019 13:42 3,2 °C 94 % 1014,3 hPa 0,0 mm 1,2 km/h (1 Bft) NO 49 ° 0 min 0,000 mm 0,5 UV-I 70 W/m² 2,3 °C 3,2 °C 3,2 km/h (1 Bft)
11.04.2019 13:43 3,2 °C 94 % 1014,3 hPa 0,0 mm 2,6 km/h (1 Bft) O 88 ° 0 min 0,000 mm 0,5 UV-I 67 W/m² 2,3 °C 3,2 °C 6,4 km/h (2 Bft)
11.04.2019 13:44 3,2 °C 95 % 1014,3 hPa 0,0 mm 5,7 km/h (1 Bft) O-NO 76 ° 0 min 0,000 mm 0,5 UV-I 63 W/m² 2,5 °C 1,8 °C 11,3 km/h (2 Bft)
11.04.2019 13:45 3,2 °C 95 % 1014,4 hPa 0,0 mm 5,2 km/h (1 Bft) O-NO 58 ° 0 min 0,000 mm 0,5 UV-I 65 W/m² 2,5 °C 2,0 °C 8,0 km/h (2 Bft)
11.04.2019 13:46 3,2 °C 94 % 1014,3 hPa 0,0 mm 5,3 km/h (1 Bft) O-NO 67 ° 0 min 0,000 mm 0,5 UV-I 62 W/m² 2,3 °C 1,9 °C 6,4 km/h (2 Bft)
11.04.2019 13:47 3,2 °C 94 % 1014,3 hPa 0,0 mm 1,0 km/h (0 Bft) O 90 ° 0 min 0,000 mm 0,5 UV-I 62 W/m² 2,3 °C 3,2 °C 4,8 km/h (1 Bft)
11.04.2019 13:48 3,2 °C 95 % 1014,3 hPa 0,0 mm 4,2 km/h (1 Bft) O-NO 68 ° 0 min 0,000 mm 0,5 UV-I 63 W/m² 2,5 °C 3,2 °C 6,4 km/h (2 Bft)
11.04.2019 13:49 3,2 °C 95 % 1014,4 hPa 0,0 mm 5,3 km/h (1 Bft) O 84 ° 0 min 0,000 mm 0,5 UV-I 65 W/m² 2,5 °C 1,9 °C 11,3 km/h (2 Bft)
11.04.2019 13:50 3,2 °C 95 % 1014,4 hPa 0,0 mm 3,2 km/h (1 Bft) O 88 ° 0 min 0,000 mm 0,5 UV-I 60 W/m² 2,5 °C 3,2 °C 8,0 km/h (2 Bft)
11.04.2019 13:51 3,2 °C 94 % 1014,4 hPa 0,0 mm 4,5 km/h (1 Bft) O-NO 75 ° 0 min 0,000 mm 0,5 UV-I 54 W/m² 2,3 °C 3,2 °C 6,4 km/h (2 Bft)
11.04.2019 13:52 3,2 °C 94 % 1014,5 hPa 0,0 mm 3,9 km/h (1 Bft) O 80 ° 0 min 0,000 mm 0,0 UV-I 54 W/m² 2,3 °C 3,2 °C 6,4 km/h (2 Bft)
11.04.2019 13:53 3,2 °C 94 % 1014,5 hPa 0,0 mm 2,7 km/h (1 Bft) O-NO 70 ° 0 min 0,000 mm 0,0 UV-I 54 W/m² 2,3 °C 3,2 °C 6,4 km/h (2 Bft)
11.04.2019 13:54 3,2 °C 95 % 1014,5 hPa 0,0 mm 0,8 km/h (0 Bft) NO 50 ° 0 min 0,000 mm 0,0 UV-I 51 W/m² 2,5 °C 3,2 °C 3,2 km/h (1 Bft)
11.04.2019 13:55 3,2 °C 95 % 1014,5 hPa 0,0 mm 1,6 km/h (1 Bft) NO 53 ° 0 min 0,000 mm 0,0 UV-I 47 W/m² 2,5 °C 3,2 °C 4,8 km/h (1 Bft)
11.04.2019 13:56 3,2 °C 95 % 1014,5 hPa 0,0 mm 5,3 km/h (1 Bft) O 86 ° 0 min 0,000 mm 0,0 UV-I 44 W/m² 2,5 °C 1,9 °C 9,7 km/h (2 Bft)
11.04.2019 13:57 3,2 °C 95 % 1014,5 hPa 0,0 mm 1,5 km/h (1 Bft) O-NO 71 ° 0 min 0,000 mm 0,0 UV-I 44 W/m² 2,5 °C 3,2 °C 4,8 km/h (1 Bft)
11.04.2019 13:58 3,2 °C 95 % 1014,5 hPa 0,0 mm 1,9 km/h (1 Bft) NO 44 ° 0 min 0,000 mm 0,0 UV-I 46 W/m² 2,5 °C 3,2 °C 4,8 km/h (1 Bft)
11.04.2019 13:59 3,2 °C 95 % 1014,5 hPa 0,0 mm 0,0 km/h (0 Bft) NO 44 ° 0 min 0,000 mm 0,0 UV-I 47 W/m² 2,5 °C 3,2 °C 0,0 km/h (0 Bft)
11.04.2019 14:00 3,2 °C 95 % 1014,5 hPa 0,0 mm 0,0 km/h (0 Bft) NO 44 ° 0 min 0,000 mm 0,0 UV-I 49 W/m² 2,5 °C 3,2 °C 0,0 km/h (0 Bft)
11.04.2019 14:01 3,3 °C 95 % 1014,6 hPa 0,0 mm 4,6 km/h (1 Bft) O 83 ° 0 min 0,025 mm 0,0 UV-I 47 W/m² 2,6 °C 2,3 °C 9,7 km/h (2 Bft)
11.04.2019 14:02 3,3 °C 95 % 1014,6 hPa 0,0 mm 4,5 km/h (1 Bft) O 90 ° 0 min 0,000 mm 0,0 UV-I 51 W/m² 2,6 °C 3,3 °C 6,4 km/h (2 Bft)
11.04.2019 14:03 3,2 °C 95 % 1014,5 hPa 0,0 mm 4,3 km/h (1 Bft) NO 45 ° 0 min 0,000 mm 0,0 UV-I 54 W/m² 2,5 °C 3,2 °C 8,0 km/h (2 Bft)
11.04.2019 14:04 3,2 °C 95 % 1014,6 hPa 0,0 mm 4,1 km/h (1 Bft) NO 47 ° 0 min 0,000 mm 0,0 UV-I 54 W/m² 2,5 °C 3,2 °C 6,4 km/h (2 Bft)
11.04.2019 14:05 3,2 °C 95 % 1014,6 hPa 0,0 mm 3,8 km/h (1 Bft) O 88 ° 0 min 0,000 mm 0,0 UV-I 53 W/m² 2,5 °C 3,2 °C 6,4 km/h (2 Bft)
11.04.2019 14:06 3,2 °C 95 % 1014,6 hPa 0,0 mm 0,7 km/h (0 Bft) O 82 ° 0 min 0,000 mm 0,0 UV-I 56 W/m² 2,5 °C 3,2 °C 3,2 km/h (1 Bft)
11.04.2019 14:07 3,2 °C 95 % 1014,6 hPa 0,0 mm 2,3 km/h (1 Bft) O-NO 69 ° 0 min 0,000 mm 0,0 UV-I 56 W/m² 2,5 °C 3,2 °C 6,4 km/h (2 Bft)
11.04.2019 14:08 3,2 °C 95 % 1014,6 hPa 0,0 mm 5,3 km/h (1 Bft) O-NO 74 ° 0 min 0,000 mm 0,5 UV-I 58 W/m² 2,5 °C 1,9 °C 8,0 km/h (2 Bft)
11.04.2019 14:09 3,2 °C 95 % 1014,7 hPa 0,0 mm 4,1 km/h (1 Bft) O 81 ° 0 min 0,000 mm 0,5 UV-I 58 W/m² 2,5 °C 3,2 °C 8,0 km/h (2 Bft)
11.04.2019 14:10 3,2 °C 95 % 1014,6 hPa 0,0 mm 5,2 km/h (1 Bft) O-SO 117 ° 0 min 0,000 mm 0,5 UV-I 60 W/m² 2,5 °C 2,0 °C 8,0 km/h (2 Bft)
11.04.2019 14:11 3,2 °C 95 % 1014,6 hPa 0,0 mm 0,9 km/h (0 Bft) O-SO 106 ° 0 min 0,000 mm 0,5 UV-I 62 W/m² 2,5 °C 3,2 °C 3,2 km/h (1 Bft)
11.04.2019 14:12 3,2 °C 95 % 1014,6 hPa 0,0 mm 1,8 km/h (1 Bft) O-NO 63 ° 0 min 0,000 mm 0,5 UV-I 63 W/m² 2,5 °C 3,2 °C 4,8 km/h (1 Bft)
11.04.2019 14:13 3,1 °C 95 % 1014,6 hPa 0,0 mm 5,5 km/h (1 Bft) O-NO 78 ° 0 min 0,000 mm 0,5 UV-I 63 W/m² 2,4 °C 1,7 °C 9,7 km/h (2 Bft)
11.04.2019 14:14 3,2 °C 94 % 1014,6 hPa 0,0 mm 5,6 km/h (1 Bft) O-NO 65 ° 0 min 0,000 mm 0,5 UV-I 63 W/m² 2,3 °C 1,8 °C 8,0 km/h (2 Bft)
11.04.2019 14:15 3,2 °C 94 % 1014,7 hPa 0,0 mm 5,0 km/h (1 Bft) O-NO 66 ° 0 min 0,000 mm 0,5 UV-I 67 W/m² 2,3 °C 2,0 °C 9,7 km/h (2 Bft)
11.04.2019 14:16 3,2 °C 95 % 1014,7 hPa 0,0 mm 4,5 km/h (1 Bft) O-NO 71 ° 0 min 0,000 mm 0,5 UV-I 69 W/m² 2,5 °C 3,2 °C 6,4 km/h (2 Bft)
11.04.2019 14:17 3,2 °C 95 % 1014,7 hPa 0,0 mm 5,3 km/h (1 Bft) O-NO 67 ° 0 min 0,000 mm 0,5 UV-I 63 W/m² 2,5 °C 1,9 °C 6,4 km/h (2 Bft)
11.04.2019 14:18 3,2 °C 95 % 1014,7 hPa 0,0 mm 8,0 km/h (2 Bft) O-SO 121 ° 0 min 0,000 mm 0,0 UV-I 60 W/m² 2,5 °C 1,0 °C 12,9 km/h (3 Bft)
11.04.2019 14:19 3,2 °C 95 % 1014,6 hPa 0,0 mm 3,4 km/h (1 Bft) O-NO 71 ° 0 min 0,000 mm 0,0 UV-I 56 W/m² 2,5 °C 3,2 °C 4,8 km/h (1 Bft)
11.04.2019 14:20 3,2 °C 95 % 1014,6 hPa 0,0 mm 2,3 km/h (1 Bft) O-NO 71 ° 0 min 0,000 mm 0,0 UV-I 58 W/m² 2,5 °C 3,2 °C 4,8 km/h (1 Bft)
11.04.2019 14:21 3,3 °C 95 % 1014,6 hPa 0,0 mm 1,5 km/h (1 Bft) O-NO 74 ° 0 min 0,000 mm 0,0 UV-I 58 W/m² 2,6 °C 3,3 °C 3,2 km/h (1 Bft)
11.04.2019 14:22 3,3 °C 95 % 1014,6 hPa 0,0 mm 1,4 km/h (1 Bft) O-NO 74 ° 0 min 0,000 mm 0,0 UV-I 60 W/m² 2,6 °C 3,3 °C 3,2 km/h (1 Bft)
11.04.2019 14:23 3,2 °C 95 % 1014,7 hPa 0,0 mm 2,9 km/h (1 Bft) NO 51 ° 0 min 0,000 mm 0,5 UV-I 60 W/m² 2,5 °C 3,2 °C 4,8 km/h (1 Bft)
11.04.2019 14:24 3,2 °C 95 % 1014,6 hPa 0,0 mm 2,5 km/h (1 Bft) N-NO 28 ° 0 min 0,000 mm 0,5 UV-I 63 W/m² 2,5 °C 3,2 °C 4,8 km/h (1 Bft)
11.04.2019 14:25 3,3 °C 95 % 1014,7 hPa 0,0 mm 1,3 km/h (1 Bft) N-NO 28 ° 0 min 0,000 mm 0,5 UV-I 63 W/m² 2,6 °C 3,3 °C 3,2 km/h (1 Bft)
11.04.2019 14:26 3,3 °C 95 % 1014,6 hPa 0,0 mm 2,2 km/h (1 Bft) N-NO 29 ° 0 min 0,000 mm 0,5 UV-I 67 W/m² 2,6 °C 3,3 °C 4,8 km/h (1 Bft)
11.04.2019 14:27 3,3 °C 95 % 1014,7 hPa 0,0 mm 3,0 km/h (1 Bft) N-NO 32 ° 0 min 0,000 mm 0,0 UV-I 62 W/m² 2,6 °C 3,3 °C 8,0 km/h (2 Bft)
11.04.2019 14:28 3,3 °C 95 % 1014,7 hPa 0,0 mm 5,8 km/h (2 Bft) N-NO 28 ° 0 min 0,000 mm 0,0 UV-I 56 W/m² 2,6 °C 1,8 °C 8,0 km/h (2 Bft)
11.04.2019 14:29 3,3 °C 95 % 1014,6 hPa 0,0 mm 4,9 km/h (1 Bft) N-NO 15 ° 0 min 0,000 mm 0,0 UV-I 54 W/m² 2,6 °C 2,2 °C 6,4 km/h (2 Bft)
11.04.2019 14:30 3,3 °C 95 % 1014,6 hPa 0,0 mm 4,7 km/h (1 Bft) NO 46 ° 0 min 0,000 mm 0,0 UV-I 53 W/m² 2,6 °C 2,3 °C 6,4 km/h (2 Bft)
11.04.2019 14:31 3,3 °C 95 % 1014,7 hPa 0,0 mm 4,1 km/h (1 Bft) N-NO 21 ° 0 min 0,000 mm 0,0 UV-I 51 W/m² 2,6 °C 3,3 °C 4,8 km/h (1 Bft)
11.04.2019 14:32 3,3 °C 95 % 1014,6 hPa 0,0 mm 0,5 km/h (0 Bft) NO 43 ° 0 min 0,000 mm 0,0 UV-I 47 W/m² 2,6 °C 3,3 °C 3,2 km/h (1 Bft)
11.04.2019 14:33 3,3 °C 95 % 1014,6 hPa 0,0 mm 1,8 km/h (1 Bft) O 94 ° 0 min 0,000 mm 0,0 UV-I 49 W/m² 2,6 °C 3,3 °C 4,8 km/h (1 Bft)
11.04.2019 14:34 3,3 °C 95 % 1014,7 hPa 0,0 mm 0,0 km/h (0 Bft) O 94 ° 0 min 0,000 mm 0,0 UV-I 47 W/m² 2,6 °C 3,3 °C 0,0 km/h (0 Bft)
11.04.2019 14:35 3,3 °C 95 % 1014,7 hPa 0,0 mm 0,0 km/h (0 Bft) O 94 ° 0 min 0,000 mm 0,0 UV-I 49 W/m² 2,6 °C 3,3 °C 0,0 km/h (0 Bft)
11.04.2019 14:36 3,3 °C 95 % 1014,7 hPa 0,0 mm 0,1 km/h (0 Bft) O 94 ° 0 min 0,000 mm 0,0 UV-I 54 W/m² 2,6 °C 3,3 °C 1,6 km/h (1 Bft)
11.04.2019 14:37 3,3 °C 95 % 1014,7 hPa 0,0 mm 0,0 km/h (0 Bft) O 94 ° 0 min 0,000 mm 0,0 UV-I 60 W/m² 2,6 °C 3,3 °C 0,0 km/h (0 Bft)
11.04.2019 14:38 3,3 °C 95 % 1014,7 hPa 0,0 mm 0,0 km/h (0 Bft) O 94 ° 0 min 0,000 mm 0,0 UV-I 58 W/m² 2,6 °C 3,3 °C 0,0 km/h (0 Bft)
11.04.2019 14:39 3,3 °C 95 % 1014,7 hPa 0,0 mm 0,0 km/h (0 Bft) O 94 ° 0 min 0,000 mm 0,0 UV-I 58 W/m² 2,6 °C 3,3 °C 0,0 km/h (0 Bft)
11.04.2019 14:40 3,3 °C 95 % 1014,7 hPa 0,0 mm 0,0 km/h (0 Bft) O 94 ° 0 min 0,000 mm 0,0 UV-I 58 W/m² 2,6 °C 3,3 °C 0,0 km/h (0 Bft)
11.04.2019 14:41 3,3 °C 95 % 1014,8 hPa 0,0 mm 0,0 km/h (0 Bft) O 94 ° 0 min 0,000 mm 0,0 UV-I 58 W/m² 2,6 °C 3,3 °C 0,0 km/h (0 Bft)
11.04.2019 14:42 3,3 °C 95 % 1014,8 hPa 0,0 mm 0,0 km/h (0 Bft) O 94 ° 0 min 0,000 mm 0,0 UV-I 54 W/m² 2,6 °C 3,3 °C 0,0 km/h (0 Bft)
11.04.2019 14:43 3,3 °C 95 % 1014,7 hPa 0,0 mm 0,0 km/h (0 Bft) O 94 ° 0 min 0,000 mm 0,0 UV-I 51 W/m² 2,6 °C 3,3 °C 0,0 km/h (0 Bft)
11.04.2019 14:44 3,3 °C 95 % 1014,7 hPa 0,0 mm 0,0 km/h (0 Bft) O 94 ° 0 min 0,000 mm 0,0 UV-I 51 W/m² 2,6 °C 3,3 °C 0,0 km/h (0 Bft)
11.04.2019 14:45 3,3 °C 95 % 1014,8 hPa 0,0 mm 0,0 km/h (0 Bft) O 94 ° 0 min 0,000 mm 0,0 UV-I 51 W/m² 2,6 °C 3,3 °C 0,0 km/h (0 Bft)
11.04.2019 14:46 3,4 °C 95 % 1014,8 hPa 0,0 mm 0,0 km/h (0 Bft) O 94 ° 0 min 0,000 mm 0,0 UV-I 54 W/m² 2,7 °C 3,4 °C 0,0 km/h (0 Bft)
11.04.2019 14:47 3,4 °C 95 % 1014,8 hPa 0,0 mm 0,0 km/h (0 Bft) O 94 ° 0 min 0,000 mm 0,0 UV-I 58 W/m² 2,7 °C 3,4 °C 0,0 km/h (0 Bft)
11.04.2019 14:48 3,4 °C 95 % 1014,7 hPa 0,0 mm 0,0 km/h (0 Bft) O 94 ° 0 min 0,000 mm 0,0 UV-I 58 W/m² 2,7 °C 3,4 °C 0,0 km/h (0 Bft)
11.04.2019 14:49 3,4 °C 95 % 1014,7 hPa 0,0 mm 0,0 km/h (0 Bft) O 94 ° 0 min 0,000 mm 0,0 UV-I 58 W/m² 2,7 °C 3,4 °C 0,0 km/h (0 Bft)
11.04.2019 14:50 3,4 °C 95 % 1014,7 hPa 0,0 mm 0,0 km/h (0 Bft) O 94 ° 0 min 0,000 mm 0,0 UV-I 58 W/m² 2,7 °C 3,4 °C 0,0 km/h (0 Bft)
11.04.2019 14:51 3,4 °C 95 % 1014,6 hPa 0,0 mm 0,0 km/h (0 Bft) O 94 ° 0 min 0,000 mm 0,0 UV-I 58 W/m² 2,7 °C 3,4 °C 0,0 km/h (0 Bft)
11.04.2019 14:52 3,4 °C 95 % 1014,7 hPa 0,0 mm 0,1 km/h (0 Bft) O 94 ° 0 min 0,000 mm 0,0 UV-I 60 W/m² 2,7 °C 3,4 °C 1,6 km/h (1 Bft)
11.04.2019 14:53 3,4 °C 95 % 1014,7 hPa 0,0 mm 0,0 km/h (0 Bft) O 94 ° 0 min 0,000 mm 0,5 UV-I 63 W/m² 2,7 °C 3,4 °C 0,0 km/h (0 Bft)
11.04.2019 14:54 3,4 °C 95 % 1014,7 hPa 0,0 mm 0,0 km/h (0 Bft) O 94 ° 0 min 0,000 mm 0,5 UV-I 69 W/m² 2,7 °C 3,4 °C 0,0 km/h (0 Bft)
11.04.2019 14:55 3,4 °C 95 % 1014,7 hPa 0,0 mm 0,0 km/h (0 Bft) O 94 ° 0 min 0,000 mm 0,5 UV-I 62 W/m² 2,7 °C 3,4 °C 0,0 km/h (0 Bft)
11.04.2019 14:56 3,4 °C 95 % 1014,7 hPa 0,0 mm 0,0 km/h (0 Bft) O 94 ° 0 min 0,000 mm 0,0 UV-I 58 W/m² 2,7 °C 3,4 °C 0,0 km/h (0 Bft)
11.04.2019 14:57 3,4 °C 95 % 1014,7 hPa 0,0 mm 0,0 km/h (0 Bft) O 94 ° 0 min 0,000 mm 0,0 UV-I 54 W/m² 2,7 °C 3,4 °C 0,0 km/h (0 Bft)
11.04.2019 14:58 3,4 °C 95 % 1014,7 hPa 0,0 mm 0,0 km/h (0 Bft) O 94 ° 0 min 0,000 mm 0,0 UV-I 54 W/m² 2,7 °C 3,4 °C 0,0 km/h (0 Bft)
11.04.2019 14:59 3,4 °C 95 % 1014,7 hPa 0,0 mm 0,0 km/h (0 Bft) O 94 ° 0 min 0,000 mm 0,0 UV-I 51 W/m² 2,7 °C 3,4 °C 0,0 km/h (0 Bft)
11.04.2019 15:00 3,4 °C 95 % 1014,7 hPa 0,0 mm 0,0 km/h (0 Bft) O 94 ° 0 min 0,025 mm 0,0 UV-I 54 W/m² 2,7 °C 3,4 °C 0,0 km/h (0 Bft)
11.04.2019 15:01 3,4 °C 95 % 1014,7 hPa 0,0 mm 0,0 km/h (0 Bft) O 94 ° 0 min 0,000 mm 0,0 UV-I 63 W/m² 2,7 °C 3,4 °C 0,0 km/h (0 Bft)
11.04.2019 15:02 3,5 °C 95 % 1014,7 hPa 0,0 mm 0,0 km/h (0 Bft) O 94 ° 0 min 0,000 mm 0,5 UV-I 69 W/m² 2,8 °C 3,5 °C 0,0 km/h (0 Bft)
11.04.2019 15:03 3,5 °C 95 % 1014,7 hPa 0,0 mm 0,0 km/h (0 Bft) O 94 ° 0 min 0,000 mm 0,5 UV-I 70 W/m² 2,8 °C 3,5 °C 0,0 km/h (0 Bft)
11.04.2019 15:04 3,5 °C 95 % 1014,6 hPa 0,0 mm 0,0 km/h (0 Bft) O 94 ° 0 min 0,000 mm 0,5 UV-I 70 W/m² 2,8 °C 3,5 °C 0,0 km/h (0 Bft)
11.04.2019 15:05 3,6 °C 95 % 1014,6 hPa 0,0 mm 0,0 km/h (0 Bft) O 94 ° 0 min 0,000 mm 0,5 UV-I 69 W/m² 2,9 °C 3,6 °C 0,0 km/h (0 Bft)
11.04.2019 15:06 3,6 °C 95 % 1014,6 hPa 0,0 mm 0,0 km/h (0 Bft) O 94 ° 0 min 0,000 mm 0,5 UV-I 69 W/m² 2,9 °C 3,6 °C 0,0 km/h (0 Bft)
11.04.2019 15:07 3,6 °C 95 % 1014,6 hPa 0,0 mm 0,0 km/h (0 Bft) O 94 ° 0 min 0,000 mm 0,5 UV-I 70 W/m² 2,9 °C 3,6 °C 0,0 km/h (0 Bft)
11.04.2019 15:08 3,7 °C 95 % 1014,6 hPa 0,0 mm 0,0 km/h (0 Bft) O 94 ° 0 min 0,000 mm 0,5 UV-I 70 W/m² 3,0 °C 3,7 °C 0,0 km/h (0 Bft)
11.04.2019 15:09 3,7 °C 95 % 1014,6 hPa 0,0 mm 0,0 km/h (0 Bft) O 94 ° 0 min 0,000 mm 0,5 UV-I 69 W/m² 3,0 °C 3,7 °C 0,0 km/h (0 Bft)
11.04.2019 15:10 3,7 °C 95 % 1014,6 hPa 0,0 mm 0,0 km/h (0 Bft) O 94 ° 0 min 0,000 mm 0,5 UV-I 70 W/m² 3,0 °C 3,7 °C 0,0 km/h (0 Bft)
11.04.2019 15:11 3,7 °C 95 % 1014,6 hPa 0,0 mm 0,0 km/h (0 Bft) O 94 ° 0 min 0,000 mm 0,5 UV-I 70 W/m² 3,0 °C 3,7 °C 0,0 km/h (0 Bft)
11.04.2019 15:12 3,8 °C 95 % 1014,6 hPa 0,0 mm 0,0 km/h (0 Bft) O 94 ° 0 min 0,000 mm 0,5 UV-I 70 W/m² 3,1 °C 3,8 °C 0,0 km/h (0 Bft)
11.04.2019 15:13 3,8 °C 95 % 1014,6 hPa 0,0 mm 0,0 km/h (0 Bft) O 94 ° 0 min 0,000 mm 0,5 UV-I 69 W/m² 3,1 °C 3,8 °C 0,0 km/h (0 Bft)
11.04.2019 15:14 3,8 °C 95 % 1014,7 hPa 0,0 mm 0,0 km/h (0 Bft) O 94 ° 0 min 0,000 mm 0,5 UV-I 67 W/m² 3,1 °C 3,8 °C 0,0 km/h (0 Bft)
11.04.2019 15:15 3,8 °C 95 % 1014,6 hPa 0,0 mm 0,0 km/h (0 Bft) O 94 ° 0 min 0,000 mm 0,5 UV-I 67 W/m² 3,1 °C 3,8 °C 0,0 km/h (0 Bft)
11.04.2019 15:16 3,9 °C 95 % 1014,6 hPa 0,0 mm 0,0 km/h (0 Bft) O 94 ° 0 min 0,000 mm 0,5 UV-I 63 W/m² 3,2 °C 3,9 °C 0,0 km/h (0 Bft)
11.04.2019 15:17 3,9 °C 95 % 1014,7 hPa 0,0 mm 0,0 km/h (0 Bft) O 94 ° 0 min 0,000 mm 0,0 UV-I 62 W/m² 3,2 °C 3,9 °C 0,0 km/h (0 Bft)
11.04.2019 15:18 3,9 °C 95 % 1014,7 hPa 0,0 mm 0,0 km/h (0 Bft) O 94 ° 0 min 0,000 mm 0,5 UV-I 63 W/m² 3,2 °C 3,9 °C 0,0 km/h (0 Bft)
11.04.2019 15:19 3,9 °C 95 % 1014,7 hPa 0,0 mm 0,0 km/h (0 Bft) O 94 ° 0 min 0,000 mm 0,5 UV-I 63 W/m² 3,2 °C 3,9 °C 0,0 km/h (0 Bft)
11.04.2019 15:20 3,9 °C 95 % 1014,7 hPa 0,0 mm 0,0 km/h (0 Bft) O 94 ° 0 min 0,000 mm 0,5 UV-I 67 W/m² 3,2 °C 3,9 °C 0,0 km/h (0 Bft)
11.04.2019 15:21 4,0 °C 95 % 1014,7 hPa 0,0 mm 0,0 km/h (0 Bft) O 94 ° 0 min 0,000 mm 0,5 UV-I 70 W/m² 3,3 °C 4,0 °C 0,0 km/h (0 Bft)
11.04.2019 15:22 4,0 °C 95 % 1014,7 hPa 0,0 mm 0,0 km/h (0 Bft) O 94 ° 0 min 0,000 mm 0,6 UV-I 70 W/m² 3,3 °C 4,0 °C 0,0 km/h (0 Bft)
11.04.2019 15:23 4,0 °C 95 % 1014,7 hPa 0,0 mm 0,0 km/h (0 Bft) O 94 ° 0 min 0,000 mm 0,5 UV-I 70 W/m² 3,3 °C 4,0 °C 0,0 km/h (0 Bft)
11.04.2019 15:24 4,1 °C 95 % 1014,6 hPa 0,0 mm 0,0 km/h (0 Bft) O 94 ° 0 min 0,000 mm 0,0 UV-I 63 W/m² 3,4 °C 4,1 °C 0,0 km/h (0 Bft)
11.04.2019 15:25 4,1 °C 95 % 1014,6 hPa 0,0 mm 0,0 km/h (0 Bft) O 94 ° 0 min 0,000 mm 0,6 UV-I 77 W/m² 3,4 °C 4,1 °C 0,0 km/h (0 Bft)
11.04.2019 15:26 4,0 °C 95 % 1014,7 hPa 0,0 mm 1,5 km/h (1 Bft) O-NO 67 ° 0 min 0,000 mm 0,7 UV-I 91 W/m² 3,3 °C 4,0 °C 4,8 km/h (1 Bft)
11.04.2019 15:27 4,0 °C 95 % 1014,6 hPa 0,0 mm 1,6 km/h (1 Bft) SO 146 ° 0 min 0,000 mm 0,7 UV-I 93 W/m² 3,3 °C 4,0 °C 3,2 km/h (1 Bft)
11.04.2019 15:28 4,1 °C 95 % 1014,7 hPa 0,0 mm 0,0 km/h (0 Bft) SO 146 ° 0 min 0,000 mm 0,6 UV-I 84 W/m² 3,4 °C 4,1 °C 0,0 km/h (0 Bft)
11.04.2019 15:29 4,1 °C 95 % 1014,7 hPa 0,0 mm 2,2 km/h (1 Bft) O-NO 57 ° 0 min 0,000 mm 0,7 UV-I 88 W/m² 3,4 °C 4,1 °C 3,2 km/h (1 Bft)
11.04.2019 15:30 4,1 °C 95 % 1014,6 hPa 0,0 mm 0,9 km/h (0 Bft) O-NO 57 ° 0 min 0,000 mm 0,7 UV-I 84 W/m² 3,4 °C 4,1 °C 4,8 km/h (1 Bft)
11.04.2019 15:31 4,1 °C 95 % 1014,6 hPa 0,0 mm 0,0 km/h (0 Bft) O-NO 57 ° 0 min 0,000 mm 0,5 UV-I 65 W/m² 3,4 °C 4,1 °C 0,0 km/h (0 Bft)
11.04.2019 15:32 4,2 °C 95 % 1014,6 hPa 0,0 mm 0,0 km/h (0 Bft) O-NO 57 ° 0 min 0,000 mm 0,0 UV-I 51 W/m² 3,5 °C 4,2 °C 0,0 km/h (0 Bft)
11.04.2019 15:33 4,2 °C 95 % 1014,7 hPa 0,0 mm 0,0 km/h (0 Bft) O-NO 57 ° 0 min 0,000 mm 0,0 UV-I 44 W/m² 3,5 °C 4,2 °C 0,0 km/h (0 Bft)
11.04.2019 15:34 4,2 °C 95 % 1014,6 hPa 0,0 mm 0,0 km/h (0 Bft) O-NO 57 ° 0 min 0,000 mm 0,0 UV-I 44 W/m² 3,5 °C 4,2 °C 0,0 km/h (0 Bft)
11.04.2019 15:35 4,3 °C 95 % 1014,6 hPa 0,0 mm 0,3 km/h (0 Bft) O-NO 57 ° 0 min 0,000 mm 0,0 UV-I 49 W/m² 3,6 °C 4,3 °C 1,6 km/h (1 Bft)
11.04.2019 15:36 4,3 °C 95 % 1014,7 hPa 0,0 mm 0,0 km/h (0 Bft) O-NO 57 ° 0 min 0,000 mm 0,0 UV-I 49 W/m² 3,6 °C 4,3 °C 0,0 km/h (0 Bft)
11.04.2019 15:37 4,2 °C 95 % 1014,6 hPa 0,0 mm 0,0 km/h (0 Bft) O-NO 57 ° 0 min 0,000 mm 0,0 UV-I 42 W/m² 3,5 °C 4,2 °C 0,0 km/h (0 Bft)
11.04.2019 15:38 4,2 °C 95 % 1014,6 hPa 0,0 mm 0,4 km/h (0 Bft) O-NO 57 ° 0 min 0,000 mm 0,0 UV-I 42 W/m² 3,5 °C 4,2 °C 1,6 km/h (1 Bft)
11.04.2019 15:39 4,3 °C 95 % 1014,7 hPa 0,0 mm 0,0 km/h (0 Bft) O-NO 57 ° 0 min 0,000 mm 0,0 UV-I 44 W/m² 3,6 °C 4,3 °C 0,0 km/h (0 Bft)
11.04.2019 15:40 4,3 °C 95 % 1014,7 hPa 0,0 mm 0,0 km/h (0 Bft) O-NO 57 ° 0 min 0,000 mm 0,0 UV-I 47 W/m² 3,6 °C 4,3 °C 0,0 km/h (0 Bft)
11.04.2019 15:41 4,3 °C 95 % 1014,7 hPa 0,0 mm 0,0 km/h (0 Bft) O-NO 57 ° 0 min 0,000 mm 0,0 UV-I 47 W/m² 3,6 °C 4,3 °C 0,0 km/h (0 Bft)
11.04.2019 15:42 4,3 °C 95 % 1014,7 hPa 0,0 mm 0,0 km/h (0 Bft) O-NO 57 ° 0 min 0,000 mm 0,0 UV-I 54 W/m² 3,6 °C 4,3 °C 0,0 km/h (0 Bft)
11.04.2019 15:43 4,3 °C 95 % 1014,7 hPa 0,0 mm 0,0 km/h (0 Bft) O-NO 57 ° 0 min 0,000 mm 0,0 UV-I 54 W/m² 3,6 °C 4,3 °C 0,0 km/h (0 Bft)
11.04.2019 15:44 4,3 °C 95 % 1014,6 hPa 0,0 mm 0,0 km/h (0 Bft) O 85 ° 0 min 0,000 mm 0,0 UV-I 53 W/m² 3,6 °C 4,3 °C 0,0 km/h (0 Bft)
11.04.2019 15:45 4,3 °C 95 % 1014,6 hPa 0,0 mm 0,0 km/h (0 Bft) O-NO 63 ° 0 min 0,000 mm 0,0 UV-I 51 W/m² 3,6 °C 4,3 °C 0,0 km/h (0 Bft)
11.04.2019 15:46 4,3 °C 95 % 1014,7 hPa 0,0 mm 0,0 km/h (0 Bft) O-NO 63 ° 0 min 0,000 mm 0,0 UV-I 54 W/m² 3,6 °C 4,3 °C 0,0 km/h (0 Bft)
11.04.2019 15:47 4,3 °C 95 % 1014,7 hPa 0,0 mm 0,0 km/h (0 Bft) O-NO 63 ° 0 min 0,000 mm 0,0 UV-I 54 W/m² 3,6 °C 4,3 °C 0,0 km/h (0 Bft)
11.04.2019 15:48 4,3 °C 95 % 1014,7 hPa 0,0 mm 0,0 km/h (0 Bft) O-NO 63 ° 0 min 0,000 mm 0,0 UV-I 51 W/m² 3,6 °C 4,3 °C 0,0 km/h (0 Bft)
11.04.2019 15:49 4,3 °C 94 % 1014,7 hPa 0,0 mm 0,0 km/h (0 Bft) O-NO 63 ° 0 min 0,000 mm 0,0 UV-I 53 W/m² 3,4 °C 4,3 °C 0,0 km/h (0 Bft)
11.04.2019 15:50 4,3 °C 95 % 1014,7 hPa 0,0 mm 0,0 km/h (0 Bft) O-NO 60 ° 0 min 0,000 mm 0,0 UV-I 62 W/m² 3,6 °C 4,3 °C 0,0 km/h (0 Bft)
11.04.2019 15:51 4,3 °C 94 % 1014,7 hPa 0,0 mm 0,0 km/h (0 Bft) O-NO 60 ° 0 min 0,000 mm 0,5 UV-I 70 W/m² 3,4 °C 4,3 °C 0,0 km/h (0 Bft)
11.04.2019 15:52 4,4 °C 94 % 1014,7 hPa 0,0 mm 0,0 km/h (0 Bft) O-NO 60 ° 0 min 0,000 mm 0,5 UV-I 76 W/m² 3,5 °C 4,4 °C 0,0 km/h (0 Bft)
11.04.2019 15:53 4,4 °C 94 % 1014,7 hPa 0,0 mm 0,0 km/h (0 Bft) O-NO 60 ° 0 min 0,000 mm 0,5 UV-I 79 W/m² 3,5 °C 4,4 °C 0,0 km/h (0 Bft)
11.04.2019 15:54 4,3 °C 94 % 1014,6 hPa 0,0 mm 0,0 km/h (0 Bft) O-NO 60 ° 0 min 0,000 mm 0,6 UV-I 90 W/m² 3,4 °C 4,3 °C 0,0 km/h (0 Bft)
11.04.2019 15:55 4,4 °C 94 % 1014,7 hPa 0,0 mm 0,0 km/h (0 Bft) O-NO 60 ° 0 min 0,000 mm 0,6 UV-I 95 W/m² 3,5 °C 4,4 °C 0,0 km/h (0 Bft)
11.04.2019 15:56 4,4 °C 94 % 1014,7 hPa 0,0 mm 0,0 km/h (0 Bft) O-NO 60 ° 0 min 0,000 mm 0,6 UV-I 97 W/m² 3,5 °C 4,4 °C 0,0 km/h (0 Bft)
11.04.2019 15:57 4,4 °C 95 % 1014,7 hPa 0,0 mm 0,0 km/h (0 Bft) O-NO 60 ° 0 min 0,000 mm 0,6 UV-I 97 W/m² 3,7 °C 4,4 °C 0,0 km/h (0 Bft)
11.04.2019 15:58 4,4 °C 95 % 1014,7 hPa 0,0 mm 0,0 km/h (0 Bft) O-NO 60 ° 0 min 0,000 mm 0,6 UV-I 97 W/m² 3,7 °C 4,4 °C 0,0 km/h (0 Bft)
11.04.2019 15:59 4,4 °C 94 % 1014,6 hPa 0,0 mm 0,0 km/h (0 Bft) O-NO 60 ° 0 min 0,000 mm 0,6 UV-I 104 W/m² 3,5 °C 4,4 °C 0,0 km/h (0 Bft)
11.04.2019 16:00 4,5 °C 94 % 1014,7 hPa 0,0 mm 0,0 km/h (0 Bft) O-NO 60 ° 0 min 0,000 mm 0,8 UV-I 114 W/m² 3,6 °C 4,5 °C 0,0 km/h (0 Bft)
11.04.2019 16:01 4,4 °C 94 % 1014,7 hPa 0,0 mm 0,0 km/h (0 Bft) O-NO 60 ° 0 min 0,026 mm 0,8 UV-I 127 W/m² 3,5 °C 4,4 °C 0,0 km/h (0 Bft)
11.04.2019 16:02 4,5 °C 94 % 1014,7 hPa 0,0 mm 0,0 km/h (0 Bft) O-NO 60 ° 0 min 0,000 mm 0,9 UV-I 135 W/m² 3,6 °C 4,5 °C 0,0 km/h (0 Bft)
11.04.2019 16:03 4,5 °C 94 % 1014,7 hPa 0,0 mm 0,0 km/h (0 Bft) O-NO 60 ° 0 min 0,000 mm 0,9 UV-I 142 W/m² 3,6 °C 4,5 °C 0,0 km/h (0 Bft)
11.04.2019 16:04 4,6 °C 94 % 1014,7 hPa 0,0 mm 0,0 km/h (0 Bft) O-NO 60 ° 0 min 0,000 mm 0,9 UV-I 146 W/m² 3,7 °C 4,6 °C 0,0 km/h (0 Bft)
11.04.2019 16:05 4,6 °C 94 % 1014,7 hPa 0,0 mm 1,1 km/h (1 Bft) O-NO 60 ° 0 min 0,000 mm 0,9 UV-I 146 W/m² 3,7 °C 4,6 °C 3,2 km/h (1 Bft)
11.04.2019 16:06 4,6 °C 94 % 1014,7 hPa 0,0 mm 0,1 km/h (0 Bft) O-NO 60 ° 0 min 0,000 mm 0,9 UV-I 149 W/m² 3,7 °C 4,6 °C 1,6 km/h (1 Bft)
11.04.2019 16:07 4,6 °C 94 % 1014,7 hPa 0,0 mm 0,0 km/h (0 Bft) O-NO 60 ° 0 min 0,000 mm 0,9 UV-I 151 W/m² 3,7 °C 4,6 °C 0,0 km/h (0 Bft)
11.04.2019 16:08 4,7 °C 94 % 1014,7 hPa 0,0 mm 0,0 km/h (0 Bft) O-NO 60 ° 0 min 0,000 mm 1,0 UV-I 153 W/m² 3,8 °C 4,7 °C 0,0 km/h (0 Bft)
11.04.2019 16:09 4,7 °C 94 % 1014,7 hPa 0,0 mm 0,0 km/h (0 Bft) O-NO 60 ° 0 min 0,000 mm 1,0 UV-I 160 W/m² 3,8 °C 4,7 °C 0,0 km/h (0 Bft)
11.04.2019 16:10 4,8 °C 94 % 1014,7 hPa 0,0 mm 0,0 km/h (0 Bft) O-NO 60 ° 0 min 0,000 mm 1,1 UV-I 172 W/m² 3,9 °C 4,8 °C 0,0 km/h (0 Bft)
11.04.2019 16:11 4,8 °C 94 % 1014,7 hPa 0,0 mm 0,0 km/h (0 Bft) O-NO 60 ° 0 min 0,000 mm 1,1 UV-I 176 W/m² 3,9 °C 4,8 °C 0,0 km/h (0 Bft)
11.04.2019 16:12 4,8 °C 94 % 1014,7 hPa 0,0 mm 0,0 km/h (0 Bft) O-NO 60 ° 0 min 0,000 mm 1,0 UV-I 169 W/m² 3,9 °C 4,8 °C 0,0 km/h (0 Bft)
11.04.2019 16:13 4,8 °C 94 % 1014,6 hPa 0,0 mm 0,0 km/h (0 Bft) O-NO 60 ° 0 min 0,000 mm 1,0 UV-I 169 W/m² 3,9 °C 4,8 °C 0,0 km/h (0 Bft)
11.04.2019 16:14 4,8 °C 94 % 1014,6 hPa 0,0 mm 0,0 km/h (0 Bft) O-NO 60 ° 0 min 0,000 mm 0,9 UV-I 165 W/m² 3,9 °C 4,8 °C 0,0 km/h (0 Bft)
11.04.2019 16:15 4,9 °C 94 % 1014,6 hPa 0,0 mm 0,0 km/h (0 Bft) O-NO 60 ° 0 min 0,000 mm 0,9 UV-I 156 W/m² 4,0 °C 4,9 °C 0,0 km/h (0 Bft)
11.04.2019 16:16 4,9 °C 94 % 1014,7 hPa 0,0 mm 0,3 km/h (0 Bft) O-NO 60 ° 0 min 0,000 mm 0,9 UV-I 149 W/m² 4,0 °C 4,9 °C 1,6 km/h (1 Bft)
11.04.2019 16:17 4,9 °C 94 % 1014,6 hPa 0,0 mm 0,6 km/h (0 Bft) O-NO 60 ° 0 min 0,000 mm 0,9 UV-I 155 W/m² 4,0 °C 4,9 °C 1,6 km/h (1 Bft)
11.04.2019 16:18 4,9 °C 94 % 1014,6 hPa 0,0 mm 0,2 km/h (0 Bft) O-NO 60 ° 0 min 0,000 mm 1,0 UV-I 163 W/m² 4,0 °C 4,9 °C 1,6 km/h (1 Bft)
11.04.2019 16:19 5,0 °C 94 % 1014,6 hPa 0,0 mm 1,6 km/h (1 Bft) O-NO 60 ° 0 min 0,000 mm 1,0 UV-I 171 W/m² 4,1 °C 5,0 °C 4,8 km/h (1 Bft)
11.04.2019 16:20 5,1 °C 94 % 1014,6 hPa 0,0 mm 4,3 km/h (1 Bft) O-NO 61 ° 0 min 0,000 mm 1,0 UV-I 176 W/m² 4,2 °C 5,1 °C 6,4 km/h (2 Bft)
11.04.2019 16:21 5,1 °C 94 % 1014,6 hPa 0,0 mm 1,0 km/h (0 Bft) O-NO 61 ° 0 min 0,000 mm 1,1 UV-I 183 W/m² 4,2 °C 5,1 °C 4,8 km/h (1 Bft)
11.04.2019 16:22 5,1 °C 94 % 1014,6 hPa 0,0 mm 0,0 km/h (0 Bft) O-NO 61 ° 0 min 0,000 mm 1,1 UV-I 190 W/m² 4,2 °C 5,1 °C 0,0 km/h (0 Bft)
11.04.2019 16:23 5,1 °C 94 % 1014,6 hPa 0,0 mm 0,0 km/h (0 Bft) O-NO 61 ° 0 min 0,000 mm 1,2 UV-I 204 W/m² 4,2 °C 5,1 °C 0,0 km/h (0 Bft)
11.04.2019 16:24 5,2 °C 94 % 1014,6 hPa 0,0 mm 0,1 km/h (0 Bft) O-NO 61 ° 0 min 0,000 mm 1,2 UV-I 202 W/m² 4,3 °C 5,2 °C 1,6 km/h (1 Bft)
11.04.2019 16:25 5,2 °C 94 % 1014,6 hPa 0,0 mm 0,0 km/h (0 Bft) O-NO 61 ° 0 min 0,000 mm 1,1 UV-I 192 W/m² 4,3 °C 5,2 °C 0,0 km/h (0 Bft)
11.04.2019 16:26 5,2 °C 93 % 1014,6 hPa 0,0 mm 0,0 km/h (0 Bft) O-NO 61 ° 0 min 0,000 mm 1,1 UV-I 183 W/m² 4,2 °C 5,2 °C 0,0 km/h (0 Bft)
11.04.2019 16:27 5,2 °C 93 % 1014,6 hPa 0,0 mm 0,0 km/h (0 Bft) O-NO 61 ° 0 min 0,000 mm 1,1 UV-I 186 W/m² 4,2 °C 5,2 °C 0,0 km/h (0 Bft)
11.04.2019 16:28 5,2 °C 93 % 1014,6 hPa 0,0 mm 0,0 km/h (0 Bft) O-NO 61 ° 0 min 0,000 mm 1,1 UV-I 193 W/m² 4,2 °C 5,2 °C 0,0 km/h (0 Bft)
11.04.2019 16:29 5,2 °C 93 % 1014,6 hPa 0,0 mm 3,5 km/h (1 Bft) O-NO 61 ° 0 min 0,000 mm 1,1 UV-I 197 W/m² 4,2 °C 5,2 °C 4,8 km/h (1 Bft)
11.04.2019 16:30 5,2 °C 93 % 1014,6 hPa 0,0 mm 0,0 km/h (0 Bft) O-NO 61 ° 0 min 0,000 mm 1,1 UV-I 190 W/m² 4,2 °C 5,2 °C 0,0 km/h (0 Bft)
11.04.2019 16:31 5,2 °C 93 % 1014,6 hPa 0,0 mm 0,0 km/h (0 Bft) O-NO 61 ° 0 min 0,000 mm 1,1 UV-I 183 W/m² 4,2 °C 5,2 °C 0,0 km/h (0 Bft)
11.04.2019 16:32 5,2 °C 93 % 1014,6 hPa 0,0 mm 0,2 km/h (0 Bft) O-NO 61 ° 0 min 0,000 mm 1,1 UV-I 185 W/m² 4,2 °C 5,2 °C 3,2 km/h (1 Bft)
11.04.2019 16:33 5,2 °C 93 % 1014,7 hPa 0,0 mm 0,1 km/h (0 Bft) O-NO 61 ° 0 min 0,000 mm 1,0 UV-I 183 W/m² 4,2 °C 5,2 °C 1,6 km/h (1 Bft)
11.04.2019 16:34 5,2 °C 93 % 1014,6 hPa 0,0 mm 0,0 km/h (0 Bft) O-NO 61 ° 0 min 0,000 mm 1,0 UV-I 178 W/m² 4,2 °C 5,2 °C 0,0 km/h (0 Bft)
11.04.2019 16:35 5,2 °C 93 % 1014,6 hPa 0,0 mm 0,0 km/h (0 Bft) O-NO 61 ° 0 min 0,000 mm 1,0 UV-I 181 W/m² 4,2 °C 5,2 °C 0,0 km/h (0 Bft)
11.04.2019 16:36 5,2 °C 93 % 1014,7 hPa 0,0 mm 0,0 km/h (0 Bft) O-NO 61 ° 0 min 0,000 mm 1,1 UV-I 188 W/m² 4,2 °C 5,2 °C 0,0 km/h (0 Bft)
11.04.2019 16:37 5,2 °C 93 % 1014,6 hPa 0,0 mm 0,0 km/h (0 Bft) O-NO 61 ° 0 min 0,000 mm 1,1 UV-I 195 W/m² 4,2 °C 5,2 °C 0,0 km/h (0 Bft)
11.04.2019 16:38 5,3 °C 93 % 1014,6 hPa 0,0 mm 0,0 km/h (0 Bft) O-NO 61 ° 0 min 0,000 mm 1,2 UV-I 206 W/m² 4,3 °C 5,3 °C 0,0 km/h (0 Bft)
11.04.2019 16:39 5,3 °C 93 % 1014,6 hPa 0,0 mm 1,0 km/h (0 Bft) O-NO 61 ° 0 min 0,000 mm 1,2 UV-I 214 W/m² 4,3 °C 5,3 °C 3,2 km/h (1 Bft)
11.04.2019 16:40 5,3 °C 93 % 1014,6 hPa 0,0 mm 0,1 km/h (0 Bft) O-NO 61 ° 0 min 0,000 mm 1,2 UV-I 220 W/m² 4,3 °C 5,3 °C 1,6 km/h (1 Bft)
11.04.2019 16:41 5,3 °C 93 % 1014,6 hPa 0,0 mm 0,0 km/h (0 Bft) O-NO 61 ° 0 min 0,000 mm 1,2 UV-I 220 W/m² 4,3 °C 5,3 °C 0,0 km/h (0 Bft)
11.04.2019 16:42 5,4 °C 93 % 1014,6 hPa 0,0 mm 0,0 km/h (0 Bft) O-NO 61 ° 0 min 0,000 mm 1,2 UV-I 218 W/m² 4,4 °C 5,4 °C 0,0 km/h (0 Bft)
11.04.2019 16:43 5,4 °C 93 % 1014,6 hPa 0,0 mm 0,0 km/h (0 Bft) O-NO 61 ° 0 min 0,000 mm 1,2 UV-I 216 W/m² 4,4 °C 5,4 °C 0,0 km/h (0 Bft)
11.04.2019 16:44 5,4 °C 93 % 1014,7 hPa 0,0 mm 0,0 km/h (0 Bft) O-NO 61 ° 0 min 0,000 mm 1,2 UV-I 216 W/m² 4,4 °C 5,4 °C 0,0 km/h (0 Bft)
11.04.2019 16:45 5,4 °C 92 % 1014,7 hPa 0,0 mm 0,0 km/h (0 Bft) O-NO 61 ° 0 min 0,000 mm 1,2 UV-I 218 W/m² 4,2 °C 5,4 °C 0,0 km/h (0 Bft)
11.04.2019 16:46 5,4 °C 92 % 1014,6 hPa 0,0 mm 0,0 km/h (0 Bft) O-NO 61 ° 0 min 0,000 mm 1,2 UV-I 216 W/m² 4,2 °C 5,4 °C 0,0 km/h (0 Bft)
11.04.2019 16:47 5,5 °C 92 % 1014,6 hPa 0,0 mm 0,0 km/h (0 Bft) O-NO 61 ° 0 min 0,000 mm 1,2 UV-I 213 W/m² 4,3 °C 5,5 °C 0,0 km/h (0 Bft)
11.04.2019 16:48 5,5 °C 92 % 1014,7 hPa 0,0 mm 0,0 km/h (0 Bft) O-NO 61 ° 0 min 0,000 mm 1,2 UV-I 209 W/m² 4,3 °C 5,5 °C 0,0 km/h (0 Bft)
11.04.2019 16:49 5,5 °C 92 % 1014,6 hPa 0,0 mm 0,0 km/h (0 Bft) O-NO 61 ° 0 min 0,000 mm 1,2 UV-I 209 W/m² 4,3 °C 5,5 °C 0,0 km/h (0 Bft)
11.04.2019 16:50 5,5 °C 92 % 1014,7 hPa 0,0 mm 0,0 km/h (0 Bft) O-NO 61 ° 0 min 0,000 mm 1,2 UV-I 209 W/m² 4,3 °C 5,5 °C 0,0 km/h (0 Bft)
11.04.2019 16:51 5,5 °C 92 % 1014,7 hPa 0,0 mm 0,0 km/h (0 Bft) O-NO 61 ° 0 min 0,000 mm 1,1 UV-I 207 W/m² 4,3 °C 5,5 °C 0,0 km/h (0 Bft)
11.04.2019 16:52 5,5 °C 92 % 1014,6 hPa 0,0 mm 0,0 km/h (0 Bft) O-NO 61 ° 0 min 0,000 mm 1,1 UV-I 202 W/m² 4,3 °C 5,5 °C 0,0 km/h (0 Bft)
11.04.2019 16:53 5,6 °C 92 % 1014,6 hPa 0,0 mm 0,0 km/h (0 Bft) O-NO 61 ° 0 min 0,000 mm 1,1 UV-I 200 W/m² 4,4 °C 5,6 °C 0,0 km/h (0 Bft)
11.04.2019 16:54 5,6 °C 92 % 1014,6 hPa 0,0 mm 0,0 km/h (0 Bft) O-NO 61 ° 0 min 0,000 mm 1,1 UV-I 197 W/m² 4,4 °C 5,6 °C 0,0 km/h (0 Bft)
11.04.2019 16:55 5,7 °C 92 % 1014,6 hPa 0,0 mm 2,1 km/h (1 Bft) O-NO 69 ° 0 min 0,000 mm 1,0 UV-I 190 W/m² 4,5 °C 5,7 °C 4,8 km/h (1 Bft)
11.04.2019 16:56 5,7 °C 92 % 1014,6 hPa 0,0 mm 3,8 km/h (1 Bft) O 82 ° 0 min 0,000 mm 1,0 UV-I 179 W/m² 4,5 °C 5,7 °C 4,8 km/h (1 Bft)
11.04.2019 16:57 5,7 °C 92 % 1014,6 hPa 0,0 mm 1,3 km/h (1 Bft) O 82 ° 0 min 0,000 mm 1,0 UV-I 171 W/m² 4,5 °C 5,7 °C 3,2 km/h (1 Bft)
11.04.2019 16:58 5,7 °C 92 % 1014,6 hPa 0,0 mm 0,0 km/h (0 Bft) O 82 ° 0 min 0,000 mm 1,0 UV-I 172 W/m² 4,5 °C 5,7 °C 0,0 km/h (0 Bft)
11.04.2019 16:59 5,6 °C 92 % 1014,6 hPa 0,0 mm 0,0 km/h (0 Bft) O 82 ° 0 min 0,000 mm 1,0 UV-I 174 W/m² 4,4 °C 5,6 °C 0,0 km/h (0 Bft)
11.04.2019 17:00 5,7 °C 92 % 1014,6 hPa 0,0 mm 0,0 km/h (0 Bft) O 82 ° 0 min 0,000 mm 1,0 UV-I 172 W/m² 4,5 °C 5,7 °C 0,0 km/h (0 Bft)
11.04.2019 17:01 5,7 °C 92 % 1014,6 hPa 0,0 mm 0,0 km/h (0 Bft) O 82 ° 0 min 0,076 mm 1,0 UV-I 169 W/m² 4,5 °C 5,7 °C 0,0 km/h (0 Bft)
11.04.2019 17:02 5,7 °C 91 % 1014,6 hPa 0,0 mm 0,0 km/h (0 Bft) O 82 ° 0 min 0,000 mm 1,0 UV-I 165 W/m² 4,3 °C 5,7 °C 0,0 km/h (0 Bft)
11.04.2019 17:03 5,7 °C 91 % 1014,6 hPa 0,0 mm 0,0 km/h (0 Bft) O 82 ° 0 min 0,000 mm 1,0 UV-I 165 W/m² 4,3 °C 5,7 °C 0,0 km/h (0 Bft)
11.04.2019 17:04 5,8 °C 92 % 1014,6 hPa 0,0 mm 0,0 km/h (0 Bft) O 82 ° 0 min 0,000 mm 1,0 UV-I 167 W/m² 4,6 °C 5,8 °C 0,0 km/h (0 Bft)
11.04.2019 17:05 5,8 °C 91 % 1014,6 hPa 0,0 mm 0,0 km/h (0 Bft) O 82 ° 0 min 0,000 mm 1,0 UV-I 169 W/m² 4,4 °C 5,8 °C 0,0 km/h (0 Bft)
11.04.2019 17:06 5,8 °C 92 % 1014,6 hPa 0,0 mm 0,0 km/h (0 Bft) O 82 ° 0 min 0,000 mm 0,9 UV-I 163 W/m² 4,6 °C 5,8 °C 0,0 km/h (0 Bft)
11.04.2019 17:07 5,8 °C 92 % 1014,6 hPa 0,0 mm 2,9 km/h (1 Bft) O 82 ° 0 min 0,000 mm 0,8 UV-I 151 W/m² 4,6 °C 5,8 °C 4,8 km/h (1 Bft)
11.04.2019 17:08 5,9 °C 92 % 1014,6 hPa 0,0 mm 0,8 km/h (0 Bft) O 82 ° 0 min 0,000 mm 0,7 UV-I 134 W/m² 4,7 °C 5,9 °C 3,2 km/h (1 Bft)
11.04.2019 17:09 5,9 °C 91 % 1014,6 hPa 0,0 mm 1,0 km/h (0 Bft) N-NO 33 ° 0 min 0,000 mm 0,7 UV-I 118 W/m² 4,5 °C 5,9 °C 3,2 km/h (1 Bft)
11.04.2019 17:10 5,9 °C 91 % 1014,6 hPa 0,0 mm 1,6 km/h (1 Bft) O-NO 72 ° 0 min 0,000 mm 0,6 UV-I 102 W/m² 4,5 °C 5,9 °C 4,8 km/h (1 Bft)
11.04.2019 17:11 5,9 °C 91 % 1014,6 hPa 0,0 mm 0,0 km/h (0 Bft) O-NO 72 ° 0 min 0,000 mm 0,6 UV-I 98 W/m² 4,5 °C 5,9 °C 0,0 km/h (0 Bft)
11.04.2019 17:12 5,9 °C 91 % 1014,6 hPa 0,0 mm 1,9 km/h (1 Bft) O-NO 72 ° 0 min 0,000 mm 0,6 UV-I 100 W/m² 4,5 °C 5,9 °C 3,2 km/h (1 Bft)
11.04.2019 17:13 5,9 °C 91 % 1014,7 hPa 0,0 mm 3,7 km/h (1 Bft) O 84 ° 0 min 0,000 mm 0,6 UV-I 102 W/m² 4,5 °C 5,9 °C 6,4 km/h (2 Bft)
11.04.2019 17:14 5,9 °C 91 % 1014,6 hPa 0,0 mm 1,1 km/h (1 Bft) O 84 ° 0 min 0,000 mm 0,6 UV-I 100 W/m² 4,5 °C 5,9 °C 3,2 km/h (1 Bft)
11.04.2019 17:15 5,9 °C 91 % 1014,7 hPa 0,0 mm 0,0 km/h (0 Bft) O 84 ° 0 min 0,000 mm 0,6 UV-I 97 W/m² 4,5 °C 5,9 °C 0,0 km/h (0 Bft)
11.04.2019 17:16 5,9 °C 91 % 1014,7 hPa 0,0 mm 0,0 km/h (0 Bft) O 84 ° 0 min 0,000 mm 0,6 UV-I 95 W/m² 4,5 °C 5,9 °C 0,0 km/h (0 Bft)
11.04.2019 17:17 5,9 °C 91 % 1014,7 hPa 0,0 mm 0,0 km/h (0 Bft) O 84 ° 0 min 0,000 mm 0,5 UV-I 90 W/m² 4,5 °C 5,9 °C 0,0 km/h (0 Bft)
11.04.2019 17:18 5,9 °C 91 % 1014,6 hPa 0,0 mm 0,0 km/h (0 Bft) O 84 ° 0 min 0,000 mm 0,5 UV-I 86 W/m² 4,5 °C 5,9 °C 0,0 km/h (0 Bft)
11.04.2019 17:19 6,0 °C 91 % 1014,7 hPa 0,0 mm 1,6 km/h (1 Bft) O 84 ° 0 min 0,000 mm 0,5 UV-I 84 W/m² 4,6 °C 6,0 °C 3,2 km/h (1 Bft)
11.04.2019 17:20 6,0 °C 91 % 1014,6 hPa 0,0 mm 0,0 km/h (0 Bft) O 84 ° 0 min 0,000 mm 0,6 UV-I 90 W/m² 4,6 °C 6,0 °C 0,0 km/h (0 Bft)
11.04.2019 17:21 6,0 °C 91 % 1014,7 hPa 0,0 mm 0,0 km/h (0 Bft) O 84 ° 0 min 0,000 mm 0,7 UV-I 111 W/m² 4,6 °C 6,0 °C 0,0 km/h (0 Bft)
11.04.2019 17:22 5,9 °C 91 % 1014,7 hPa 0,0 mm 0,0 km/h (0 Bft) O 84 ° 0 min 0,000 mm 0,7 UV-I 114 W/m² 4,5 °C 5,9 °C 0,0 km/h (0 Bft)
11.04.2019 17:23 5,9 °C 91 % 1014,6 hPa 0,0 mm 0,0 km/h (0 Bft) O 84 ° 0 min 0,000 mm 0,6 UV-I 105 W/m² 4,5 °C 5,9 °C 0,0 km/h (0 Bft)
11.04.2019 17:24 5,9 °C 91 % 1014,7 hPa 0,0 mm 0,2 km/h (0 Bft) O 84 ° 0 min 0,000 mm 0,6 UV-I 93 W/m² 4,5 °C 5,9 °C 1,6 km/h (1 Bft)
11.04.2019 17:25 5,9 °C 91 % 1014,7 hPa 0,0 mm 2,7 km/h (1 Bft) O 84 ° 0 min 0,000 mm 0,6 UV-I 88 W/m² 4,5 °C 5,9 °C 4,8 km/h (1 Bft)
11.04.2019 17:26 5,9 °C 91 % 1014,7 hPa 0,0 mm 2,5 km/h (1 Bft) O 84 ° 0 min 0,000 mm 0,6 UV-I 86 W/m² 4,5 °C 5,9 °C 3,2 km/h (1 Bft)
11.04.2019 17:27 6,0 °C 91 % 1014,7 hPa 0,0 mm 1,3 km/h (1 Bft) O 84 ° 0 min 0,000 mm 0,6 UV-I 90 W/m² 4,6 °C 6,0 °C 3,2 km/h (1 Bft)
11.04.2019 17:28 6,0 °C 91 % 1014,7 hPa 0,0 mm 0,8 km/h (0 Bft) O 84 ° 0 min 0,000 mm 0,6 UV-I 88 W/m² 4,6 °C 6,0 °C 3,2 km/h (1 Bft)
11.04.2019 17:29 6,0 °C 91 % 1014,7 hPa 0,0 mm 0,0 km/h (0 Bft) O 84 ° 0 min 0,000 mm 0,5 UV-I 83 W/m² 4,6 °C 6,0 °C 0,0 km/h (0 Bft)
11.04.2019 17:30 6,0 °C 91 % 1014,7 hPa 0,0 mm 2,3 km/h (1 Bft) O-NO 59 ° 0 min 0,000 mm 0,5 UV-I 76 W/m² 4,6 °C 6,0 °C 4,8 km/h (1 Bft)
11.04.2019 17:31 6,1 °C 91 % 1014,7 hPa 0,0 mm 5,4 km/h (1 Bft) NO 43 ° 0 min 0,000 mm 0,0 UV-I 67 W/m² 4,7 °C 5,2 °C 6,4 km/h (2 Bft)
11.04.2019 17:32 6,1 °C 90 % 1014,7 hPa 0,0 mm 4,4 km/h (1 Bft) NO 56 ° 0 min 0,000 mm 0,0 UV-I 58 W/m² 4,6 °C 6,1 °C 6,4 km/h (2 Bft)
11.04.2019 17:33 6,1 °C 90 % 1014,8 hPa 0,0 mm 2,5 km/h (1 Bft) NO 43 ° 0 min 0,000 mm 0,0 UV-I 54 W/m² 4,6 °C 6,1 °C 4,8 km/h (1 Bft)
11.04.2019 17:34 6,1 °C 90 % 1014,8 hPa 0,0 mm 1,2 km/h (1 Bft) NO 44 ° 0 min 0,000 mm 0,0 UV-I 60 W/m² 4,6 °C 6,1 °C 3,2 km/h (1 Bft)
11.04.2019 17:35 6,1 °C 90 % 1014,7 hPa 0,0 mm 2,7 km/h (1 Bft) NO 44 ° 0 min 0,000 mm 0,5 UV-I 67 W/m² 4,6 °C 6,1 °C 4,8 km/h (1 Bft)
11.04.2019 17:36 6,1 °C 90 % 1014,8 hPa 0,0 mm 2,5 km/h (1 Bft) NO 44 ° 0 min 0,000 mm 0,5 UV-I 70 W/m² 4,6 °C 6,1 °C 4,8 km/h (1 Bft)
11.04.2019 17:37 6,1 °C 90 % 1014,7 hPa 0,0 mm 2,2 km/h (1 Bft) NO 44 ° 0 min 0,000 mm 0,5 UV-I 72 W/m² 4,6 °C 6,1 °C 3,2 km/h (1 Bft)
11.04.2019 17:38 6,1 °C 90 % 1014,7 hPa 0,0 mm 0,0 km/h (0 Bft) NO 44 ° 0 min 0,000 mm 0,5 UV-I 72 W/m² 4,6 °C 6,1 °C 0,0 km/h (0 Bft)
11.04.2019 17:39 6,1 °C 90 % 1014,8 hPa 0,0 mm 0,1 km/h (0 Bft) NO 51 ° 0 min 0,000 mm 0,5 UV-I 69 W/m² 4,6 °C 6,1 °C 1,6 km/h (1 Bft)
11.04.2019 17:40 6,1 °C 90 % 1014,7 hPa 0,0 mm 0,0 km/h (0 Bft) NO 51 ° 0 min 0,000 mm 0,5 UV-I 67 W/m² 4,6 °C 6,1 °C 0,0 km/h (0 Bft)
11.04.2019 17:41 6,1 °C 90 % 1014,8 hPa 0,0 mm 2,2 km/h (1 Bft) O-NO 62 ° 0 min 0,000 mm 0,0 UV-I 65 W/m² 4,6 °C 6,1 °C 6,4 km/h (2 Bft)
11.04.2019 17:42 6,1 °C 90 % 1014,8 hPa 0,0 mm 5,4 km/h (1 Bft) NO 55 ° 0 min 0,000 mm 0,0 UV-I 63 W/m² 4,6 °C 5,2 °C 6,4 km/h (2 Bft)
11.04.2019 17:43 6,0 °C 90 % 1014,7 hPa 0,0 mm 2,3 km/h (1 Bft) NO 55 ° 0 min 0,000 mm 0,5 UV-I 63 W/m² 4,5 °C 6,0 °C 4,8 km/h (1 Bft)
11.04.2019 17:44 6,0 °C 90 % 1014,8 hPa 0,0 mm 0,1 km/h (0 Bft) NO 55 ° 0 min 0,000 mm 0,5 UV-I 67 W/m² 4,5 °C 6,0 °C 1,6 km/h (1 Bft)
11.04.2019 17:45 6,1 °C 90 % 1014,7 hPa 0,0 mm 1,7 km/h (1 Bft) NO 55 ° 0 min 0,000 mm 0,5 UV-I 69 W/m² 4,6 °C 6,1 °C 3,2 km/h (1 Bft)
11.04.2019 17:46 6,1 °C 90 % 1014,8 hPa 0,0 mm 2,2 km/h (1 Bft) NO 55 ° 0 min 0,000 mm 0,5 UV-I 67 W/m² 4,6 °C 6,1 °C 4,8 km/h (1 Bft)
11.04.2019 17:47 6,1 °C 90 % 1014,8 hPa 0,0 mm 0,2 km/h (0 Bft) NO 55 ° 0 min 0,000 mm 0,5 UV-I 67 W/m² 4,6 °C 6,1 °C 1,6 km/h (1 Bft)
11.04.2019 17:48 6,1 °C 90 % 1014,7 hPa 0,0 mm 0,0 km/h (0 Bft) NO 55 ° 0 min 0,000 mm 0,5 UV-I 65 W/m² 4,6 °C 6,1 °C 0,0 km/h (0 Bft)
11.04.2019 17:49 6,1 °C 90 % 1014,8 hPa 0,0 mm 0,0 km/h (0 Bft) NO 55 ° 0 min 0,000 mm 0,0 UV-I 63 W/m² 4,6 °C 6,1 °C 0,0 km/h (0 Bft)
11.04.2019 17:50 6,0 °C 90 % 1014,7 hPa 0,0 mm 0,0 km/h (0 Bft) NO 55 ° 0 min 0,000 mm 0,0 UV-I 62 W/m² 4,5 °C 6,0 °C 0,0 km/h (0 Bft)
11.04.2019 17:51 6,0 °C 90 % 1014,9 hPa 0,0 mm 1,3 km/h (1 Bft) NO 55 ° 0 min 0,000 mm 0,0 UV-I 60 W/m² 4,5 °C 6,0 °C 4,8 km/h (1 Bft)
11.04.2019 17:52 6,0 °C 90 % 1014,8 hPa 0,0 mm 2,3 km/h (1 Bft) NO 55 ° 0 min 0,000 mm 0,0 UV-I 60 W/m² 4,5 °C 6,0 °C 3,2 km/h (1 Bft)
11.04.2019 17:53 6,1 °C 90 % 1014,8 hPa 0,0 mm 3,2 km/h (1 Bft) NO 56 ° 0 min 0,000 mm 0,0 UV-I 58 W/m² 4,6 °C 6,1 °C 4,8 km/h (1 Bft)
11.04.2019 17:54 6,1 °C 90 % 1014,8 hPa 0,0 mm 3,0 km/h (1 Bft) NO 52 ° 0 min 0,000 mm 0,0 UV-I 58 W/m² 4,6 °C 6,1 °C 4,8 km/h (1 Bft)
11.04.2019 17:55 6,1 °C 90 % 1014,8 hPa 0,0 mm 0,5 km/h (0 Bft) NO 52 ° 0 min 0,000 mm 0,0 UV-I 56 W/m² 4,6 °C 6,1 °C 6,4 km/h (2 Bft)
11.04.2019 17:56 6,1 °C 90 % 1014,8 hPa 0,0 mm 0,0 km/h (0 Bft) NO 52 ° 0 min 0,000 mm 0,0 UV-I 56 W/m² 4,6 °C 6,1 °C 0,0 km/h (0 Bft)
11.04.2019 17:57 6,0 °C 90 % 1014,8 hPa 0,0 mm 0,0 km/h (0 Bft) NO 52 ° 0 min 0,000 mm 0,0 UV-I 56 W/m² 4,5 °C 6,0 °C 0,0 km/h (0 Bft)
11.04.2019 17:58 6,0 °C 90 % 1014,9 hPa 0,0 mm 0,0 km/h (0 Bft) NO 52 ° 0 min 0,000 mm 0,0 UV-I 56 W/m² 4,5 °C 6,0 °C 0,0 km/h (0 Bft)
11.04.2019 17:59 5,9 °C 90 % 1014,9 hPa 0,0 mm 1,8 km/h (1 Bft) O-NO 57 ° 0 min 0,000 mm 0,0 UV-I 54 W/m² 4,4 °C 5,9 °C 3,2 km/h (1 Bft)
11.04.2019 18:00 5,9 °C 90 % 1014,8 hPa 0,0 mm 3,2 km/h (1 Bft) O-NO 57 ° 0 min 0,000 mm 0,0 UV-I 54 W/m² 4,4 °C 5,9 °C 4,8 km/h (1 Bft)
11.04.2019 18:01 6,0 °C 91 % 1014,9 hPa 0,0 mm 0,9 km/h (0 Bft) O-NO 57 ° 0 min 0,025 mm 0,0 UV-I 51 W/m² 4,6 °C 6,0 °C 3,2 km/h (1 Bft)
11.04.2019 18:02 6,0 °C 91 % 1014,9 hPa 0,0 mm 0,5 km/h (0 Bft) O-NO 57 ° 0 min 0,000 mm 0,0 UV-I 46 W/m² 4,6 °C 6,0 °C 3,2 km/h (1 Bft)
11.04.2019 18:03 5,9 °C 91 % 1014,9 hPa 0,0 mm 1,4 km/h (1 Bft) O 92 ° 0 min 0,000 mm 0,0 UV-I 44 W/m² 4,5 °C 5,9 °C 3,2 km/h (1 Bft)
11.04.2019 18:04 5,9 °C 91 % 1014,8 hPa 0,0 mm 0,0 km/h (0 Bft) O 92 ° 0 min 0,000 mm 0,0 UV-I 40 W/m² 4,5 °C 5,9 °C 0,0 km/h (0 Bft)
11.04.2019 18:05 5,9 °C 91 % 1014,9 hPa 0,0 mm 0,0 km/h (0 Bft) O 92 ° 0 min 0,000 mm 0,0 UV-I 37 W/m² 4,5 °C 5,9 °C 0,0 km/h (0 Bft)
11.04.2019 18:06 5,9 °C 91 % 1014,9 hPa 0,0 mm 0,0 km/h (0 Bft) O 92 ° 0 min 0,000 mm 0,0 UV-I 35 W/m² 4,5 °C 5,9 °C 0,0 km/h (0 Bft)
11.04.2019 18:07 5,8 °C 91 % 1014,9 hPa 0,0 mm 0,0 km/h (0 Bft) O 92 ° 0 min 0,000 mm 0,0 UV-I 32 W/m² 4,4 °C 5,8 °C 0,0 km/h (0 Bft)
11.04.2019 18:08 5,8 °C 91 % 1014,9 hPa 0,0 mm 0,0 km/h (0 Bft) O 92 ° 0 min 0,000 mm 0,0 UV-I 33 W/m² 4,4 °C 5,8 °C 0,0 km/h (0 Bft)
11.04.2019 18:09 5,8 °C 91 % 1014,9 hPa 0,0 mm 0,0 km/h (0 Bft) O 92 ° 0 min 0,000 mm 0,0 UV-I 35 W/m² 4,4 °C 5,8 °C 0,0 km/h (0 Bft)
11.04.2019 18:10 5,8 °C 91 % 1014,8 hPa 0,0 mm 2,6 km/h (1 Bft) O-NO 72 ° 0 min 0,000 mm 0,0 UV-I 35 W/m² 4,4 °C 5,8 °C 4,8 km/h (1 Bft)
11.04.2019 18:11 5,8 °C 91 % 1014,9 hPa 0,0 mm 2,2 km/h (1 Bft) O-NO 72 ° 0 min 0,000 mm 0,0 UV-I 33 W/m² 4,4 °C 5,8 °C 4,8 km/h (1 Bft)
11.04.2019 18:12 5,8 °C 91 % 1014,9 hPa 0,0 mm 0,0 km/h (0 Bft) O-NO 72 ° 0 min 0,000 mm 0,0 UV-I 32 W/m² 4,4 °C 5,8 °C 0,0 km/h (0 Bft)
11.04.2019 18:13 5,8 °C 91 % 1014,9 hPa 0,0 mm 0,0 km/h (0 Bft) O-NO 72 ° 0 min 0,000 mm 0,0 UV-I 30 W/m² 4,4 °C 5,8 °C 0,0 km/h (0 Bft)
11.04.2019 18:14 5,8 °C 91 % 1014,9 hPa 0,0 mm 0,0 km/h (0 Bft) O-NO 72 ° 0 min 0,000 mm 0,0 UV-I 32 W/m² 4,4 °C 5,8 °C 0,0 km/h (0 Bft)
11.04.2019 18:15 5,8 °C 91 % 1014,9 hPa 0,0 mm 0,1 km/h (0 Bft) O-NO 72 ° 0 min 0,000 mm 0,0 UV-I 33 W/m² 4,4 °C 5,8 °C 1,6 km/h (1 Bft)
11.04.2019 18:16 5,8 °C 91 % 1014,9 hPa 0,0 mm 0,1 km/h (0 Bft) O-NO 72 ° 0 min 0,000 mm 0,0 UV-I 35 W/m² 4,4 °C 5,8 °C 1,6 km/h (1 Bft)
11.04.2019 18:17 5,8 °C 91 % 1014,9 hPa 0,0 mm 0,0 km/h (0 Bft) O-NO 72 ° 0 min 0,000 mm 0,0 UV-I 35 W/m² 4,4 °C 5,8 °C 0,0 km/h (0 Bft)
11.04.2019 18:18 5,7 °C 91 % 1015,0 hPa 0,0 mm 0,0 km/h (0 Bft) O-NO 72 ° 0 min 0,000 mm 0,0 UV-I 35 W/m² 4,3 °C 5,7 °C 0,0 km/h (0 Bft)
11.04.2019 18:19 5,7 °C 91 % 1014,9 hPa 0,0 mm 0,0 km/h (0 Bft) O-NO 72 ° 0 min 0,000 mm 0,0 UV-I 33 W/m² 4,3 °C 5,7 °C 0,0 km/h (0 Bft)
11.04.2019 18:20 5,7 °C 91 % 1014,9 hPa 0,0 mm 0,0 km/h (0 Bft) O-NO 72 ° 0 min 0,000 mm 0,0 UV-I 26 W/m² 4,3 °C 5,7 °C 0,0 km/h (0 Bft)
11.04.2019 18:21 5,7 °C 92 % 1014,9 hPa 0,0 mm 0,0 km/h (0 Bft) O-NO 72 ° 0 min 0,000 mm 0,0 UV-I 23 W/m² 4,5 °C 5,7 °C 0,0 km/h (0 Bft)
11.04.2019 18:22 5,7 °C 92 % 1014,9 hPa 0,0 mm 0,0 km/h (0 Bft) O-NO 72 ° 0 min 0,000 mm 0,0 UV-I 21 W/m² 4,5 °C 5,7 °C 0,0 km/h (0 Bft)
11.04.2019 18:23 5,7 °C 92 % 1015,0 hPa 0,0 mm 0,0 km/h (0 Bft) O-NO 72 ° 0 min 0,000 mm 0,0 UV-I 23 W/m² 4,5 °C 5,7 °C 0,0 km/h (0 Bft)
11.04.2019 18:24 5,7 °C 92 % 1015,0 hPa 0,0 mm 0,0 km/h (0 Bft) O-NO 72 ° 0 min 0,000 mm 0,0 UV-I 25 W/m² 4,5 °C 5,7 °C 0,0 km/h (0 Bft)
11.04.2019 18:25 5,6 °C 92 % 1015,0 hPa 0,0 mm 0,0 km/h (0 Bft) O-NO 72 ° 0 min 0,000 mm 0,0 UV-I 25 W/m² 4,4 °C 5,6 °C 0,0 km/h (0 Bft)
11.04.2019 18:26 5,6 °C 92 % 1015,0 hPa 0,0 mm 0,0 km/h (0 Bft) O-NO 72 ° 0 min 0,000 mm 0,0 UV-I 18 W/m² 4,4 °C 5,6 °C 0,0 km/h (0 Bft)
11.04.2019 18:27 5,6 °C 92 % 1015,0 hPa 0,0 mm 0,0 km/h (0 Bft) O-NO 72 ° 0 min 0,000 mm 0,0 UV-I 14 W/m² 4,4 °C 5,6 °C 0,0 km/h (0 Bft)
11.04.2019 18:28 5,6 °C 92 % 1015,0 hPa 0,0 mm 0,0 km/h (0 Bft) O-NO 72 ° 0 min 0,000 mm 0,0 UV-I 12 W/m² 4,4 °C 5,6 °C 0,0 km/h (0 Bft)
11.04.2019 18:29 5,6 °C 92 % 1015,1 hPa 0,0 mm 0,0 km/h (0 Bft) O-NO 72 ° 0 min 0,000 mm 0,0 UV-I 11 W/m² 4,4 °C 5,6 °C 0,0 km/h (0 Bft)
11.04.2019 18:30 5,6 °C 92 % 1015,1 hPa 0,0 mm 0,0 km/h (0 Bft) O-NO 72 ° 0 min 0,000 mm 0,0 UV-I 11 W/m² 4,4 °C 5,6 °C 0,0 km/h (0 Bft)
11.04.2019 18:31 5,6 °C 92 % 1015,0 hPa 0,0 mm 0,0 km/h (0 Bft) O-NO 72 ° 0 min 0,000 mm 0,0 UV-I 11 W/m² 4,4 °C 5,6 °C 0,0 km/h (0 Bft)
11.04.2019 18:32 5,6 °C 92 % 1015,0 hPa 0,0 mm 0,0 km/h (0 Bft) O-NO 73 ° 0 min 0,000 mm 0,0 UV-I 12 W/m² 4,4 °C 5,6 °C 0,0 km/h (0 Bft)
11.04.2019 18:33 5,6 °C 92 % 1015,1 hPa 0,0 mm 0,0 km/h (0 Bft) O-NO 73 ° 0 min 0,000 mm 0,0 UV-I 12 W/m² 4,4 °C 5,6 °C 0,0 km/h (0 Bft)
11.04.2019 18:34 5,5 °C 92 % 1015,1 hPa 0,0 mm 0,0 km/h (0 Bft) O-NO 73 ° 0 min 0,000 mm 0,0 UV-I 12 W/m² 4,3 °C 5,5 °C 0,0 km/h (0 Bft)
11.04.2019 18:35 5,5 °C 92 % 1015,1 hPa 0,0 mm 0,0 km/h (0 Bft) O-NO 73 ° 0 min 0,000 mm 0,0 UV-I 11 W/m² 4,3 °C 5,5 °C 0,0 km/h (0 Bft)
11.04.2019 18:36 5,5 °C 92 % 1015,1 hPa 0,0 mm 0,0 km/h (0 Bft) O-NO 73 ° 0 min 0,000 mm 0,0 UV-I 11 W/m² 4,3 °C 5,5 °C 0,0 km/h (0 Bft)
11.04.2019 18:37 5,4 °C 92 % 1015,1 hPa 0,0 mm 0,0 km/h (0 Bft) O-NO 73 ° 0 min 0,000 mm 0,0 UV-I 9 W/m² 4,2 °C 5,4 °C 0,0 km/h (0 Bft)
11.04.2019 18:38 5,4 °C 92 % 1015,0 hPa 0,0 mm 0,0 km/h (0 Bft) O-NO 73 ° 0 min 0,000 mm 0,0 UV-I 9 W/m² 4,2 °C 5,4 °C 0,0 km/h (0 Bft)
11.04.2019 18:39 5,4 °C 92 % 1015,1 hPa 0,0 mm 0,0 km/h (0 Bft) O-NO 74 ° 0 min 0,000 mm 0,0 UV-I 9 W/m² 4,2 °C 5,4 °C 0,0 km/h (0 Bft)
11.04.2019 18:40 5,4 °C 93 % 1015,1 hPa 0,0 mm 0,0 km/h (0 Bft) O-NO 74 ° 0 min 0,000 mm 0,0 UV-I 9 W/m² 4,4 °C 5,4 °C 0,0 km/h (0 Bft)
11.04.2019 18:41 5,4 °C 93 % 1015,1 hPa 0,0 mm 0,0 km/h (0 Bft) O-NO 74 ° 0 min 0,000 mm 0,0 UV-I 9 W/m² 4,4 °C 5,4 °C 0,0 km/h (0 Bft)
11.04.2019 18:42 5,4 °C 93 % 1015,1 hPa 0,0 mm 0,0 km/h (0 Bft) O-NO 74 ° 0 min 0,000 mm 0,0 UV-I 9 W/m² 4,4 °C 5,4 °C 0,0 km/h (0 Bft)
11.04.2019 18:43 5,4 °C 93 % 1015,1 hPa 0,0 mm 0,0 km/h (0 Bft) O-NO 74 ° 0 min 0,000 mm 0,0 UV-I 9 W/m² 4,4 °C 5,4 °C 0,0 km/h (0 Bft)
11.04.2019 18:44 5,3 °C 93 % 1015,1 hPa 0,0 mm 0,0 km/h (0 Bft) O-NO 74 ° 0 min 0,000 mm 0,0 UV-I 9 W/m² 4,3 °C 5,3 °C 0,0 km/h (0 Bft)
11.04.2019 18:45 5,3 °C 93 % 1015,1 hPa 0,0 mm 0,0 km/h (0 Bft) O-NO 74 ° 0 min 0,000 mm 0,0 UV-I 9 W/m² 4,3 °C 5,3 °C 0,0 km/h (0 Bft)
11.04.2019 18:46 5,3 °C 93 % 1015,1 hPa 0,0 mm 0,0 km/h (0 Bft) O-NO 74 ° 0 min 0,000 mm 0,0 UV-I 9 W/m² 4,3 °C 5,3 °C 0,0 km/h (0 Bft)
11.04.2019 18:47 5,3 °C 93 % 1015,1 hPa 0,0 mm 0,0 km/h (0 Bft) O-NO 74 ° 0 min 0,000 mm 0,0 UV-I 9 W/m² 4,3 °C 5,3 °C 0,0 km/h (0 Bft)
11.04.2019 18:48 5,3 °C 93 % 1015,2 hPa 0,0 mm 0,0 km/h (0 Bft) O-NO 74 ° 0 min 0,000 mm 0,0 UV-I 9 W/m² 4,3 °C 5,3 °C 0,0 km/h (0 Bft)
11.04.2019 18:49 5,3 °C 93 % 1015,2 hPa 0,0 mm 0,0 km/h (0 Bft) O-NO 74 ° 0 min 0,000 mm 0,0 UV-I 9 W/m² 4,3 °C 5,3 °C 0,0 km/h (0 Bft)
11.04.2019 18:50 5,3 °C 93 % 1015,2 hPa 0,0 mm 0,0 km/h (0 Bft) O-NO 74 ° 0 min 0,000 mm 0,0 UV-I 9 W/m² 4,3 °C 5,3 °C 0,0 km/h (0 Bft)
11.04.2019 18:51 5,3 °C 93 % 1015,2 hPa 0,0 mm 0,0 km/h (0 Bft) O-NO 74 ° 0 min 0,000 mm 0,0 UV-I 11 W/m² 4,3 °C 5,3 °C 0,0 km/h (0 Bft)
11.04.2019 18:52 5,3 °C 93 % 1015,2 hPa 0,0 mm 0,0 km/h (0 Bft) O-NO 74 ° 0 min 0,000 mm 0,0 UV-I 11 W/m² 4,3 °C 5,3 °C 0,0 km/h (0 Bft)
11.04.2019 18:53 5,3 °C 93 % 1015,2 hPa 0,0 mm 0,0 km/h (0 Bft) O-NO 74 ° 0 min 0,000 mm 0,0 UV-I 11 W/m² 4,3 °C 5,3 °C 0,0 km/h (0 Bft)
11.04.2019 18:54 5,3 °C 93 % 1015,2 hPa 0,0 mm 0,0 km/h (0 Bft) O-NO 74 ° 0 min 0,000 mm 0,0 UV-I 11 W/m² 4,3 °C 5,3 °C 0,0 km/h (0 Bft)
11.04.2019 18:55 5,3 °C 93 % 1015,1 hPa 0,0 mm 0,0 km/h (0 Bft) O-NO 74 ° 0 min 0,000 mm 0,0 UV-I 12 W/m² 4,3 °C 5,3 °C 0,0 km/h (0 Bft)
11.04.2019 18:56 5,3 °C 93 % 1015,2 hPa 0,0 mm 0,0 km/h (0 Bft) O-NO 74 ° 0 min 0,000 mm 0,0 UV-I 12 W/m² 4,3 °C 5,3 °C 0,0 km/h (0 Bft)
11.04.2019 18:57 5,2 °C 93 % 1015,2 hPa 0,0 mm 0,0 km/h (0 Bft) O-NO 74 ° 0 min 0,000 mm 0,0 UV-I 14 W/m² 4,2 °C 5,2 °C 0,0 km/h (0 Bft)
11.04.2019 18:58 5,2 °C 93 % 1015,2 hPa 0,0 mm 0,0 km/h (0 Bft) O-NO 74 ° 0 min 0,000 mm 0,0 UV-I 14 W/m² 4,2 °C 5,2 °C 0,0 km/h (0 Bft)
11.04.2019 18:59 5,2 °C 93 % 1015,2 hPa 0,0 mm 0,0 km/h (0 Bft) O-NO 74 ° 0 min 0,000 mm 0,0 UV-I 14 W/m² 4,2 °C 5,2 °C 0,0 km/h (0 Bft)
11.04.2019 19:00 5,2 °C 93 % 1015,2 hPa 0,0 mm 0,0 km/h (0 Bft) O-NO 74 ° 0 min 0,000 mm 0,0 UV-I 14 W/m² 4,2 °C 5,2 °C 0,0 km/h (0 Bft)
11.04.2019 19:01 5,2 °C 93 % 1015,2 hPa 0,0 mm 0,0 km/h (0 Bft) O-NO 74 ° 0 min 0,000 mm 0,0 UV-I 14 W/m² 4,2 °C 5,2 °C 0,0 km/h (0 Bft)
11.04.2019 19:02 5,2 °C 93 % 1015,2 hPa 0,0 mm 0,0 km/h (0 Bft) O-NO 74 ° 0 min 0,000 mm 0,0 UV-I 16 W/m² 4,2 °C 5,2 °C 0,0 km/h (0 Bft)
11.04.2019 19:03 5,2 °C 93 % 1015,2 hPa 0,0 mm 0,0 km/h (0 Bft) O-NO 74 ° 0 min 0,000 mm 0,0 UV-I 14 W/m² 4,2 °C 5,2 °C 0,0 km/h (0 Bft)
11.04.2019 19:04 5,2 °C 93 % 1015,2 hPa 0,0 mm 0,0 km/h (0 Bft) O-NO 74 ° 0 min 0,000 mm 0,0 UV-I 14 W/m² 4,2 °C 5,2 °C 0,0 km/h (0 Bft)
11.04.2019 19:05 5,1 °C 93 % 1015,3 hPa 0,0 mm 0,0 km/h (0 Bft) O-NO 74 ° 0 min 0,000 mm 0,0 UV-I 14 W/m² 4,1 °C 5,1 °C 0,0 km/h (0 Bft)
11.04.2019 19:06 5,2 °C 93 % 1015,3 hPa 0,0 mm 0,0 km/h (0 Bft) O-NO 74 ° 0 min 0,000 mm 0,0 UV-I 14 W/m² 4,2 °C 5,2 °C 0,0 km/h (0 Bft)
11.04.2019 19:07 5,2 °C 93 % 1015,3 hPa 0,0 mm 0,0 km/h (0 Bft) O-NO 74 ° 0 min 0,000 mm 0,0 UV-I 14 W/m² 4,2 °C 5,2 °C 0,0 km/h (0 Bft)
11.04.2019 19:08 5,1 °C 93 % 1015,3 hPa 0,0 mm 0,0 km/h (0 Bft) O-NO 74 ° 0 min 0,000 mm 0,0 UV-I 14 W/m² 4,1 °C 5,1 °C 0,0 km/h (0 Bft)
11.04.2019 19:09 5,2 °C 93 % 1015,3 hPa 0,0 mm 0,0 km/h (0 Bft) O-NO 74 ° 0 min 0,000 mm 0,0 UV-I 14 W/m² 4,2 °C 5,2 °C 0,0 km/h (0 Bft)
11.04.2019 19:10 5,2 °C 93 % 1015,3 hPa 0,0 mm 0,0 km/h (0 Bft) O-NO 74 ° 0 min 0,000 mm 0,0 UV-I 12 W/m² 4,2 °C 5,2 °C 0,0 km/h (0 Bft)
11.04.2019 19:11 5,1 °C 93 % 1015,3 hPa 0,0 mm 0,0 km/h (0 Bft) O-NO 74 ° 0 min 0,000 mm 0,0 UV-I 12 W/m² 4,1 °C 5,1 °C 0,0 km/h (0 Bft)
11.04.2019 19:12 5,1 °C 93 % 1015,3 hPa 0,0 mm 0,0 km/h (0 Bft) O-NO 74 ° 0 min 0,000 mm 0,0 UV-I 14 W/m² 4,1 °C 5,1 °C 0,0 km/h (0 Bft)
11.04.2019 19:13 5,1 °C 93 % 1015,3 hPa 0,0 mm 0,0 km/h (0 Bft) O-NO 74 ° 0 min 0,000 mm 0,0 UV-I 12 W/m² 4,1 °C 5,1 °C 0,0 km/h (0 Bft)
11.04.2019 19:14 5,1 °C 93 % 1015,3 hPa 0,0 mm 0,0 km/h (0 Bft) O-NO 74 ° 0 min 0,000 mm 0,0 UV-I 12 W/m² 4,1 °C 5,1 °C 0,0 km/h (0 Bft)
11.04.2019 19:15 5,1 °C 93 % 1015,3 hPa 0,0 mm 0,0 km/h (0 Bft) O-NO 74 ° 0 min 0,000 mm 0,0 UV-I 12 W/m² 4,1 °C 5,1 °C 0,0 km/h (0 Bft)
11.04.2019 19:16 5,1 °C 93 % 1015,3 hPa 0,0 mm 0,0 km/h (0 Bft) O-NO 74 ° 0 min 0,000 mm 0,0 UV-I 12 W/m² 4,1 °C 5,1 °C 0,0 km/h (0 Bft)
11.04.2019 19:17 5,1 °C 93 % 1015,3 hPa 0,0 mm 0,0 km/h (0 Bft) O-NO 74 ° 0 min 0,000 mm 0,0 UV-I 12 W/m² 4,1 °C 5,1 °C 0,0 km/h (0 Bft)
11.04.2019 19:18 5,1 °C 93 % 1015,3 hPa 0,0 mm 0,0 km/h (0 Bft) O-NO 74 ° 0 min 0,000 mm 0,0 UV-I 12 W/m² 4,1 °C 5,1 °C 0,0 km/h (0 Bft)
11.04.2019 19:19 5,1 °C 93 % 1015,3 hPa 0,0 mm 0,0 km/h (0 Bft) O-NO 74 ° 0 min 0,000 mm 0,0 UV-I 12 W/m² 4,1 °C 5,1 °C 0,0 km/h (0 Bft)
11.04.2019 19:20 5,1 °C 93 % 1015,3 hPa 0,0 mm 0,0 km/h (0 Bft) O-NO 74 ° 0 min 0,000 mm 0,0 UV-I 11 W/m² 4,1 °C 5,1 °C 0,0 km/h (0 Bft)
11.04.2019 19:21 5,1 °C 93 % 1015,3 hPa 0,0 mm 0,0 km/h (0 Bft) O-NO 74 ° 0 min 0,000 mm 0,0 UV-I 9 W/m² 4,1 °C 5,1 °C 0,0 km/h (0 Bft)
11.04.2019 19:22 5,1 °C 93 % 1015,3 hPa 0,0 mm 0,0 km/h (0 Bft) O-NO 74 ° 0 min 0,000 mm 0,0 UV-I 9 W/m² 4,1 °C 5,1 °C 0,0 km/h (0 Bft)
11.04.2019 19:23 5,1 °C 93 % 1015,3 hPa 0,0 mm 0,0 km/h (0 Bft) O-NO 74 ° 0 min 0,000 mm 0,0 UV-I 9 W/m² 4,1 °C 5,1 °C 0,0 km/h (0 Bft)
11.04.2019 19:24 5,1 °C 93 % 1015,4 hPa 0,0 mm 0,0 km/h (0 Bft) O-NO 74 ° 0 min 0,000 mm 0,0 UV-I 7 W/m² 4,1 °C 5,1 °C 0,0 km/h (0 Bft)
11.04.2019 19:25 5,1 °C 93 % 1015,3 hPa 0,0 mm 0,0 km/h (0 Bft) O-NO 74 ° 0 min 0,000 mm 0,0 UV-I 7 W/m² 4,1 °C 5,1 °C 0,0 km/h (0 Bft)
11.04.2019 19:26 5,1 °C 93 % 1015,3 hPa 0,0 mm 0,0 km/h (0 Bft) O-NO 74 ° 0 min 0,000 mm 0,0 UV-I 7 W/m² 4,1 °C 5,1 °C 0,0 km/h (0 Bft)
11.04.2019 19:27 5,1 °C 93 % 1015,3 hPa 0,0 mm 0,0 km/h (0 Bft) O-NO 74 ° 0 min 0,000 mm 0,0 UV-I 7 W/m² 4,1 °C 5,1 °C 0,0 km/h (0 Bft)
11.04.2019 19:28 5,1 °C 93 % 1015,4 hPa 0,0 mm 0,0 km/h (0 Bft) O-NO 74 ° 0 min 0,000 mm 0,0 UV-I 7 W/m² 4,1 °C 5,1 °C 0,0 km/h (0 Bft)
11.04.2019 19:29 5,1 °C 93 % 1015,3 hPa 0,0 mm 0,0 km/h (0 Bft) O-NO 74 ° 0 min 0,000 mm 0,0 UV-I 7 W/m² 4,1 °C 5,1 °C 0,0 km/h (0 Bft)
11.04.2019 19:30 5,1 °C 93 % 1015,3 hPa 0,0 mm 0,0 km/h (0 Bft) O-NO 74 ° 0 min 0,000 mm 0,0 UV-I 7 W/m² 4,1 °C 5,1 °C 0,0 km/h (0 Bft)
11.04.2019 19:31 5,1 °C 93 % 1015,3 hPa 0,0 mm 0,0 km/h (0 Bft) O-NO 74 ° 0 min 0,000 mm 0,0 UV-I 7 W/m² 4,1 °C 5,1 °C 0,0 km/h (0 Bft)
11.04.2019 19:32 5,1 °C 93 % 1015,4 hPa 0,0 mm 0,0 km/h (0 Bft) O-NO 74 ° 0 min 0,000 mm 0,0 UV-I 7 W/m² 4,1 °C 5,1 °C 0,0 km/h (0 Bft)
11.04.2019 19:33 5,1 °C 93 % 1015,4 hPa 0,0 mm 0,0 km/h (0 Bft) O-NO 74 ° 0 min 0,000 mm 0,0 UV-I 7 W/m² 4,1 °C 5,1 °C 0,0 km/h (0 Bft)
11.04.2019 19:34 5,1 °C 93 % 1015,4 hPa 0,0 mm 0,0 km/h (0 Bft) O-NO 74 ° 0 min 0,000 mm 0,0 UV-I 7 W/m² 4,1 °C 5,1 °C 0,0 km/h (0 Bft)
11.04.2019 19:35 5,1 °C 93 % 1015,4 hPa 0,0 mm 0,0 km/h (0 Bft) O-NO 74 ° 0 min 0,000 mm 0,0 UV-I 7 W/m² 4,1 °C 5,1 °C 0,0 km/h (0 Bft)
11.04.2019 19:36 5,1 °C 93 % 1015,4 hPa 0,0 mm 0,0 km/h (0 Bft) O-NO 74 ° 0 min 0,000 mm 0,0 UV-I 7 W/m² 4,1 °C 5,1 °C 0,0 km/h (0 Bft)
11.04.2019 19:37 5,1 °C 94 % 1015,4 hPa 0,0 mm 0,0 km/h (0 Bft) O-NO 74 ° 0 min 0,000 mm 0,0 UV-I 7 W/m² 4,2 °C 5,1 °C 0,0 km/h (0 Bft)
11.04.2019 19:38 5,1 °C 94 % 1015,4 hPa 0,0 mm 0,2 km/h (0 Bft) O-NO 74 ° 0 min 0,000 mm 0,0 UV-I 5 W/m² 4,2 °C 5,1 °C 3,2 km/h (1 Bft)
11.04.2019 19:39 5,1 °C 94 % 1015,4 hPa 0,0 mm 0,0 km/h (0 Bft) O-NO 74 ° 0 min 0,000 mm 0,0 UV-I 5 W/m² 4,2 °C 5,1 °C 0,0 km/h (0 Bft)
11.04.2019 19:40 5,1 °C 94 % 1015,4 hPa 0,0 mm 0,0 km/h (0 Bft) O-NO 74 ° 0 min 0,000 mm 0,0 UV-I 5 W/m² 4,2 °C 5,1 °C 0,0 km/h (0 Bft)
11.04.2019 19:41 5,1 °C 94 % 1015,4 hPa 0,0 mm 0,1 km/h (0 Bft) O-NO 74 ° 0 min 0,000 mm 0,0 UV-I 5 W/m² 4,2 °C 5,1 °C 1,6 km/h (1 Bft)
11.04.2019 19:42 5,1 °C 94 % 1015,4 hPa 0,0 mm 0,0 km/h (0 Bft) O-NO 74 ° 0 min 0,000 mm 0,0 UV-I 5 W/m² 4,2 °C 5,1 °C 0,0 km/h (0 Bft)
11.04.2019 19:43 5,0 °C 94 % 1015,4 hPa 0,0 mm 0,0 km/h (0 Bft) O-NO 74 ° 0 min 0,000 mm 0,0 UV-I 5 W/m² 4,1 °C 5,0 °C 0,0 km/h (0 Bft)
11.04.2019 19:44 5,1 °C 94 % 1015,4 hPa 0,0 mm 0,0 km/h (0 Bft) O-NO 74 ° 0 min 0,000 mm 0,0 UV-I 5 W/m² 4,2 °C 5,1 °C 0,0 km/h (0 Bft)
11.04.2019 19:45 5,0 °C 94 % 1015,4 hPa 0,0 mm 0,0 km/h (0 Bft) O-NO 74 ° 0 min 0,000 mm 0,0 UV-I 5 W/m² 4,1 °C 5,0 °C 0,0 km/h (0 Bft)
11.04.2019 19:46 5,0 °C 94 % 1015,4 hPa 0,0 mm 0,0 km/h (0 Bft) O-NO 74 ° 0 min 0,000 mm 0,0 UV-I 5 W/m² 4,1 °C 5,0 °C 0,0 km/h (0 Bft)
11.04.2019 19:47 5,0 °C 94 % 1015,4 hPa 0,0 mm 0,0 km/h (0 Bft) O-NO 74 ° 0 min 0,000 mm 0,0 UV-I 5 W/m² 4,1 °C 5,0 °C 0,0 km/h (0 Bft)
11.04.2019 19:48 4,9 °C 94 % 1015,4 hPa 0,0 mm 0,0 km/h (0 Bft) O-NO 74 ° 0 min 0,000 mm 0,0 UV-I 5 W/m² 4,0 °C 4,9 °C 0,0 km/h (0 Bft)
11.04.2019 19:49 4,9 °C 94 % 1015,5 hPa 0,0 mm 0,0 km/h (0 Bft) O-NO 74 ° 0 min 0,000 mm 0,0 UV-I 5 W/m² 4,0 °C 4,9 °C 0,0 km/h (0 Bft)
11.04.2019 19:50 5,0 °C 94 % 1015,5 hPa 0,0 mm 0,0 km/h (0 Bft) O-NO 74 ° 0 min 0,000 mm 0,0 UV-I 5 W/m² 4,1 °C 5,0 °C 0,0 km/h (0 Bft)
11.04.2019 19:51 4,9 °C 94 % 1015,5 hPa 0,0 mm 0,0 km/h (0 Bft) O-NO 74 ° 0 min 0,000 mm 0,0 UV-I 0 W/m² 4,0 °C 4,9 °C 0,0 km/h (0 Bft)
11.04.2019 19:52 5,0 °C 94 % 1015,5 hPa 0,0 mm 0,0 km/h (0 Bft) O-NO 74 ° 0 min 0,000 mm 0,0 UV-I 0 W/m² 4,1 °C 5,0 °C 0,0 km/h (0 Bft)
11.04.2019 19:53 5,0 °C 94 % 1015,5 hPa 0,0 mm 0,0 km/h (0 Bft) O-NO 74 ° 0 min 0,000 mm 0,0 UV-I 0 W/m² 4,1 °C 5,0 °C 0,0 km/h (0 Bft)
11.04.2019 19:54 4,9 °C 94 % 1015,6 hPa 0,0 mm 0,0 km/h (0 Bft) O-NO 74 ° 0 min 0,000 mm 0,0 UV-I 0 W/m² 4,0 °C 4,9 °C 0,0 km/h (0 Bft)
11.04.2019 19:55 4,9 °C 94 % 1015,6 hPa 0,0 mm 0,0 km/h (0 Bft) O-NO 74 ° 0 min 0,000 mm 0,0 UV-I 0 W/m² 4,0 °C 4,9 °C 0,0 km/h (0 Bft)
11.04.2019 19:56 4,9 °C 94 % 1015,6 hPa 0,0 mm 0,0 km/h (0 Bft) O-NO 74 ° 0 min 0,000 mm 0,0 UV-I 0 W/m² 4,0 °C 4,9 °C 0,0 km/h (0 Bft)
11.04.2019 19:57 4,9 °C 94 % 1015,6 hPa 0,0 mm 0,0 km/h (0 Bft) O-NO 74 ° 0 min 0,000 mm 0,0 UV-I 0 W/m² 4,0 °C 4,9 °C 0,0 km/h (0 Bft)
11.04.2019 19:58 4,9 °C 94 % 1015,6 hPa 0,0 mm 0,0 km/h (0 Bft) O-NO 74 ° 0 min 0,000 mm 0,0 UV-I 0 W/m² 4,0 °C 4,9 °C 0,0 km/h (0 Bft)
11.04.2019 19:59 4,9 °C 93 % 1015,6 hPa 0,0 mm 0,0 km/h (0 Bft) O-NO 74 ° 0 min 0,000 mm 0,0 UV-I 0 W/m² 3,9 °C 4,9 °C 0,0 km/h (0 Bft)
11.04.2019 20:00 4,9 °C 94 % 1015,6 hPa 0,0 mm 0,0 km/h (0 Bft) O-NO 74 ° 0 min 0,000 mm 0,0 UV-I 0 W/m² 4,0 °C 4,9 °C 0,0 km/h (0 Bft)
11.04.2019 20:01 4,9 °C 94 % 1015,6 hPa 0,0 mm 0,0 km/h (0 Bft) O-NO 74 ° 0 min 0,000 mm 0,0 UV-I 0 W/m² 4,0 °C 4,9 °C 0,0 km/h (0 Bft)
11.04.2019 20:02 4,9 °C 94 % 1015,6 hPa 0,0 mm 0,0 km/h (0 Bft) O-NO 74 ° 0 min 0,000 mm 0,0 UV-I 0 W/m² 4,0 °C 4,9 °C 0,0 km/h (0 Bft)
11.04.2019 20:03 4,9 °C 94 % 1015,6 hPa 0,0 mm 0,0 km/h (0 Bft) O-NO 74 ° 0 min 0,000 mm 0,0 UV-I 0 W/m² 4,0 °C 4,9 °C 0,0 km/h (0 Bft)
11.04.2019 20:04 4,9 °C 94 % 1015,6 hPa 0,0 mm 0,0 km/h (0 Bft) O-NO 74 ° 0 min 0,000 mm 0,0 UV-I 0 W/m² 4,0 °C 4,9 °C 0,0 km/h (0 Bft)
11.04.2019 20:05 4,9 °C 93 % 1015,6 hPa 0,0 mm 0,0 km/h (0 Bft) O-NO 74 ° 0 min 0,000 mm 0,0 UV-I 0 W/m² 3,9 °C 4,9 °C 0,0 km/h (0 Bft)
11.04.2019 20:06 4,9 °C 93 % 1015,6 hPa 0,0 mm 0,0 km/h (0 Bft) O-NO 74 ° 0 min 0,000 mm 0,0 UV-I 0 W/m² 3,9 °C 4,9 °C 0,0 km/h (0 Bft)
11.04.2019 20:07 4,9 °C 93 % 1015,6 hPa 0,0 mm 0,0 km/h (0 Bft) O-NO 74 ° 0 min 0,000 mm 0,0 UV-I 0 W/m² 3,9 °C 4,9 °C 0,0 km/h (0 Bft)
11.04.2019 20:08 4,9 °C 93 % 1015,6 hPa 0,0 mm 0,0 km/h (0 Bft) O-NO 74 ° 0 min 0,000 mm 0,0 UV-I 0 W/m² 3,9 °C 4,9 °C 0,0 km/h (0 Bft)
11.04.2019 20:09 4,9 °C 93 % 1015,6 hPa 0,0 mm 0,0 km/h (0 Bft) O-NO 74 ° 0 min 0,000 mm 0,0 UV-I 0 W/m² 3,9 °C 4,9 °C 0,0 km/h (0 Bft)
11.04.2019 20:10 4,8 °C 93 % 1015,6 hPa 0,0 mm 0,0 km/h (0 Bft) O-NO 74 ° 0 min 0,000 mm 0,0 UV-I 0 W/m² 3,8 °C 4,8 °C 0,0 km/h (0 Bft)
11.04.2019 20:11 4,8 °C 93 % 1015,7 hPa 0,0 mm 0,0 km/h (0 Bft) O-NO 74 ° 0 min 0,000 mm 0,0 UV-I 0 W/m² 3,8 °C 4,8 °C 0,0 km/h (0 Bft)
11.04.2019 20:12 4,8 °C 93 % 1015,7 hPa 0,0 mm 0,0 km/h (0 Bft) O-NO 74 ° 0 min 0,000 mm 0,0 UV-I 0 W/m² 3,8 °C 4,8 °C 0,0 km/h (0 Bft)
11.04.2019 20:13 4,8 °C 93 % 1015,7 hPa 0,0 mm 0,0 km/h (0 Bft) O-NO 74 ° 0 min 0,000 mm 0,0 UV-I 0 W/m² 3,8 °C 4,8 °C 0,0 km/h (0 Bft)
11.04.2019 20:14 4,8 °C 93 % 1015,7 hPa 0,0 mm 0,0 km/h (0 Bft) O-NO 74 ° 0 min 0,000 mm 0,0 UV-I 0 W/m² 3,8 °C 4,8 °C 0,0 km/h (0 Bft)
11.04.2019 20:15 4,8 °C 93 % 1015,8 hPa 0,0 mm 0,0 km/h (0 Bft) O-NO 74 ° 0 min 0,000 mm 0,0 UV-I 0 W/m² 3,8 °C 4,8 °C 0,0 km/h (0 Bft)
11.04.2019 20:16 4,8 °C 93 % 1015,8 hPa 0,0 mm 0,0 km/h (0 Bft) O-NO 74 ° 0 min 0,000 mm 0,0 UV-I 0 W/m² 3,8 °C 4,8 °C 0,0 km/h (0 Bft)
11.04.2019 20:17 4,8 °C 93 % 1015,8 hPa 0,0 mm 0,0 km/h (0 Bft) O-NO 74 ° 0 min 0,000 mm 0,0 UV-I 0 W/m² 3,8 °C 4,8 °C 0,0 km/h (0 Bft)
11.04.2019 20:18 4,8 °C 93 % 1015,7 hPa 0,0 mm 0,0 km/h (0 Bft) O-NO 74 ° 0 min 0,000 mm 0,0 UV-I 0 W/m² 3,8 °C 4,8 °C 0,0 km/h (0 Bft)
11.04.2019 20:19 4,7 °C 93 % 1015,8 hPa 0,0 mm 0,0 km/h (0 Bft) O-NO 74 ° 0 min 0,000 mm 0,0 UV-I 0 W/m² 3,7 °C 4,7 °C 0,0 km/h (0 Bft)
11.04.2019 20:20 4,7 °C 93 % 1015,8 hPa 0,0 mm 0,0 km/h (0 Bft) O-NO 74 ° 0 min 0,000 mm 0,0 UV-I 0 W/m² 3,7 °C 4,7 °C 0,0 km/h (0 Bft)
11.04.2019 20:21 4,7 °C 93 % 1015,8 hPa 0,0 mm 0,0 km/h (0 Bft) O-NO 74 ° 0 min 0,000 mm 0,0 UV-I 0 W/m² 3,7 °C 4,7 °C 0,0 km/h (0 Bft)
11.04.2019 20:22 4,7 °C 93 % 1015,8 hPa 0,0 mm 0,0 km/h (0 Bft) O-NO 74 ° 0 min 0,000 mm 0,0 UV-I 0 W/m² 3,7 °C 4,7 °C 0,0 km/h (0 Bft)
11.04.2019 20:23 4,7 °C 93 % 1015,8 hPa 0,0 mm 0,0 km/h (0 Bft) O-NO 74 ° 0 min 0,000 mm 0,0 UV-I 0 W/m² 3,7 °C 4,7 °C 0,0 km/h (0 Bft)
11.04.2019 20:24 4,7 °C 93 % 1015,8 hPa 0,0 mm 0,0 km/h (0 Bft) O-NO 74 ° 0 min 0,000 mm 0,0 UV-I 0 W/m² 3,7 °C 4,7 °C 0,0 km/h (0 Bft)
11.04.2019 20:25 4,7 °C 93 % 1015,8 hPa 0,0 mm 0,0 km/h (0 Bft) O-NO 74 ° 0 min 0,000 mm 0,0 UV-I 0 W/m² 3,7 °C 4,7 °C 0,0 km/h (0 Bft)
11.04.2019 20:26 4,7 °C 93 % 1015,8 hPa 0,0 mm 0,0 km/h (0 Bft) O-NO 74 ° 0 min 0,000 mm 0,0 UV-I 0 W/m² 3,7 °C 4,7 °C 0,0 km/h (0 Bft)
11.04.2019 20:27 4,7 °C 93 % 1015,9 hPa 0,0 mm 0,0 km/h (0 Bft) O-NO 74 ° 0 min 0,000 mm 0,0 UV-I 0 W/m² 3,7 °C 4,7 °C 0,0 km/h (0 Bft)
11.04.2019 20:28 4,7 °C 93 % 1015,9 hPa 0,0 mm 0,0 km/h (0 Bft) O-NO 74 ° 0 min 0,000 mm 0,0 UV-I 0 W/m² 3,7 °C 4,7 °C 0,0 km/h (0 Bft)
11.04.2019 20:29 4,7 °C 93 % 1015,9 hPa 0,0 mm 0,0 km/h (0 Bft) O-NO 74 ° 0 min 0,000 mm 0,0 UV-I 0 W/m² 3,7 °C 4,7 °C 0,0 km/h (0 Bft)
11.04.2019 20:30 4,6 °C 93 % 1015,9 hPa 0,0 mm 0,0 km/h (0 Bft) O-NO 74 ° 0 min 0,000 mm 0,0 UV-I 0 W/m² 3,6 °C 4,6 °C 0,0 km/h (0 Bft)
11.04.2019 20:31 4,6 °C 93 % 1015,8 hPa 0,0 mm 0,0 km/h (0 Bft) O-NO 74 ° 0 min 0,000 mm 0,0 UV-I 0 W/m² 3,6 °C 4,6 °C 0,0 km/h (0 Bft)
11.04.2019 20:32 4,6 °C 94 % 1015,8 hPa 0,0 mm 0,0 km/h (0 Bft) O-NO 74 ° 0 min 0,000 mm 0,0 UV-I 0 W/m² 3,7 °C 4,6 °C 0,0 km/h (0 Bft)
11.04.2019 20:33 4,6 °C 94 % 1015,9 hPa 0,0 mm 0,0 km/h (0 Bft) O-NO 74 ° 0 min 0,000 mm 0,0 UV-I 0 W/m² 3,7 °C 4,6 °C 0,0 km/h (0 Bft)
11.04.2019 20:34 4,6 °C 93 % 1015,9 hPa 0,0 mm 0,0 km/h (0 Bft) O-NO 74 ° 0 min 0,000 mm 0,0 UV-I 0 W/m² 3,6 °C 4,6 °C 0,0 km/h (0 Bft)
11.04.2019 20:35 4,6 °C 94 % 1016,0 hPa 0,0 mm 0,0 km/h (0 Bft) O-NO 74 ° 0 min 0,000 mm 0,0 UV-I 0 W/m² 3,7 °C 4,6 °C 0,0 km/h (0 Bft)
11.04.2019 20:36 4,5 °C 93 % 1016,0 hPa 0,0 mm 0,0 km/h (0 Bft) O-NO 74 ° 0 min 0,000 mm 0,0 UV-I 0 W/m² 3,5 °C 4,5 °C 0,0 km/h (0 Bft)
11.04.2019 20:37 4,5 °C 93 % 1016,0 hPa 0,0 mm 0,0 km/h (0 Bft) O-NO 74 ° 0 min 0,000 mm 0,0 UV-I 0 W/m² 3,5 °C 4,5 °C 0,0 km/h (0 Bft)
11.04.2019 20:38 4,5 °C 93 % 1016,0 hPa 0,0 mm 0,0 km/h (0 Bft) O-NO 74 ° 0 min 0,000 mm 0,0 UV-I 0 W/m² 3,5 °C 4,5 °C 0,0 km/h (0 Bft)
11.04.2019 20:39 4,5 °C 93 % 1016,0 hPa 0,0 mm 0,0 km/h (0 Bft) O-NO 74 ° 0 min 0,000 mm 0,0 UV-I 0 W/m² 3,5 °C 4,5 °C 0,0 km/h (0 Bft)
11.04.2019 20:40 4,5 °C 93 % 1016,0 hPa 0,0 mm 0,0 km/h (0 Bft) O-NO 74 ° 0 min 0,000 mm 0,0 UV-I 0 W/m² 3,5 °C 4,5 °C 0,0 km/h (0 Bft)
11.04.2019 20:41 4,5 °C 93 % 1016,0 hPa 0,0 mm 0,0 km/h (0 Bft) O-NO 74 ° 0 min 0,000 mm 0,0 UV-I 0 W/m² 3,5 °C 4,5 °C 0,0 km/h (0 Bft)
11.04.2019 20:42 4,5 °C 94 % 1016,0 hPa 0,0 mm 0,0 km/h (0 Bft) O-NO 74 ° 0 min 0,000 mm 0,0 UV-I 0 W/m² 3,6 °C 4,5 °C 0,0 km/h (0 Bft)
11.04.2019 20:43 4,5 °C 93 % 1016,0 hPa 0,0 mm 0,0 km/h (0 Bft) O-NO 74 ° 0 min 0,000 mm 0,0 UV-I 0 W/m² 3,5 °C 4,5 °C 0,0 km/h (0 Bft)
11.04.2019 20:44 4,5 °C 94 % 1016,0 hPa 0,0 mm 0,0 km/h (0 Bft) O-NO 74 ° 0 min 0,000 mm 0,0 UV-I 0 W/m² 3,6 °C 4,5 °C 0,0 km/h (0 Bft)
11.04.2019 20:45 4,5 °C 94 % 1016,0 hPa 0,0 mm 0,0 km/h (0 Bft) O-NO 74 ° 0 min 0,000 mm 0,0 UV-I 0 W/m² 3,6 °C 4,5 °C 0,0 km/h (0 Bft)
11.04.2019 20:46 4,4 °C 94 % 1016,1 hPa 0,0 mm 0,0 km/h (0 Bft) O-NO 74 ° 0 min 0,000 mm 0,0 UV-I 0 W/m² 3,5 °C 4,4 °C 0,0 km/h (0 Bft)
11.04.2019 20:47 4,4 °C 94 % 1016,1 hPa 0,0 mm 0,0 km/h (0 Bft) O-NO 74 ° 0 min 0,000 mm 0,0 UV-I 0 W/m² 3,5 °C 4,4 °C 0,0 km/h (0 Bft)
11.04.2019 20:48 4,4 °C 94 % 1016,1 hPa 0,0 mm 0,0 km/h (0 Bft) O-NO 74 ° 0 min 0,000 mm 0,0 UV-I 0 W/m² 3,5 °C 4,4 °C 0,0 km/h (0 Bft)
11.04.2019 20:49 4,4 °C 94 % 1016,1 hPa 0,0 mm 0,0 km/h (0 Bft) O-NO 74 ° 0 min 0,000 mm 0,0 UV-I 0 W/m² 3,5 °C 4,4 °C 0,0 km/h (0 Bft)
11.04.2019 20:50 4,4 °C 94 % 1016,1 hPa 0,0 mm 0,0 km/h (0 Bft) O-NO 74 ° 0 min 0,000 mm 0,0 UV-I 0 W/m² 3,5 °C 4,4 °C 0,0 km/h (0 Bft)
11.04.2019 20:51 4,4 °C 94 % 1016,1 hPa 0,0 mm 0,0 km/h (0 Bft) O-NO 74 ° 0 min 0,000 mm 0,0 UV-I 0 W/m² 3,5 °C 4,4 °C 0,0 km/h (0 Bft)
11.04.2019 20:52 4,3 °C 94 % 1016,1 hPa 0,0 mm 0,0 km/h (0 Bft) O-NO 74 ° 0 min 0,000 mm 0,0 UV-I 0 W/m² 3,4 °C 4,3 °C 0,0 km/h (0 Bft)
11.04.2019 20:53 4,3 °C 94 % 1016,1 hPa 0,0 mm 0,0 km/h (0 Bft) O-NO 74 ° 0 min 0,000 mm 0,0 UV-I 0 W/m² 3,4 °C 4,3 °C 0,0 km/h (0 Bft)
11.04.2019 20:54 4,3 °C 94 % 1016,1 hPa 0,0 mm 0,0 km/h (0 Bft) O-NO 74 ° 0 min 0,000 mm 0,0 UV-I 0 W/m² 3,4 °C 4,3 °C 0,0 km/h (0 Bft)
11.04.2019 20:55 4,3 °C 94 % 1016,2 hPa 0,0 mm 0,0 km/h (0 Bft) O-NO 74 ° 0 min 0,000 mm 0,0 UV-I 0 W/m² 3,4 °C 4,3 °C 0,0 km/h (0 Bft)
11.04.2019 20:56 4,3 °C 94 % 1016,2 hPa 0,0 mm 0,0 km/h (0 Bft) O-NO 74 ° 0 min 0,000 mm 0,0 UV-I 0 W/m² 3,4 °C 4,3 °C 0,0 km/h (0 Bft)
11.04.2019 20:57 4,3 °C 94 % 1016,2 hPa 0,0 mm 0,0 km/h (0 Bft) O-NO 74 ° 0 min 0,000 mm 0,0 UV-I 0 W/m² 3,4 °C 4,3 °C 0,0 km/h (0 Bft)
11.04.2019 20:58 4,3 °C 94 % 1016,2 hPa 0,0 mm 0,0 km/h (0 Bft) O-NO 74 ° 0 min 0,000 mm 0,0 UV-I 0 W/m² 3,4 °C 4,3 °C 0,0 km/h (0 Bft)
11.04.2019 20:59 4,2 °C 94 % 1016,2 hPa 0,0 mm 0,0 km/h (0 Bft) O-NO 74 ° 0 min 0,000 mm 0,0 UV-I 0 W/m² 3,3 °C 4,2 °C 0,0 km/h (0 Bft)
11.04.2019 21:00 4,2 °C 94 % 1016,2 hPa 0,0 mm 0,0 km/h (0 Bft) O-NO 74 ° 0 min 0,000 mm 0,0 UV-I 0 W/m² 3,3 °C 4,2 °C 0,0 km/h (0 Bft)
11.04.2019 21:01 4,2 °C 94 % 1016,2 hPa 0,0 mm 0,0 km/h (0 Bft) O-NO 74 ° 0 min 0,000 mm 0,0 UV-I 0 W/m² 3,3 °C 4,2 °C 0,0 km/h (0 Bft)
11.04.2019 21:02 4,2 °C 94 % 1016,3 hPa 0,0 mm 0,0 km/h (0 Bft) O-NO 74 ° 0 min 0,000 mm 0,0 UV-I 0 W/m² 3,3 °C 4,2 °C 0,0 km/h (0 Bft)
11.04.2019 21:03 4,2 °C 94 % 1016,2 hPa 0,0 mm 0,0 km/h (0 Bft) O-NO 74 ° 0 min 0,000 mm 0,0 UV-I 0 W/m² 3,3 °C 4,2 °C 0,0 km/h (0 Bft)
11.04.2019 21:04 4,2 °C 94 % 1016,3 hPa 0,0 mm 0,0 km/h (0 Bft) O-NO 74 ° 0 min 0,000 mm 0,0 UV-I 0 W/m² 3,3 °C 4,2 °C 0,0 km/h (0 Bft)
11.04.2019 21:05 4,2 °C 94 % 1016,3 hPa 0,0 mm 0,0 km/h (0 Bft) O-NO 74 ° 0 min 0,000 mm 0,0 UV-I 0 W/m² 3,3 °C 4,2 °C 0,0 km/h (0 Bft)
11.04.2019 21:06 4,2 °C 94 % 1016,3 hPa 0,0 mm 0,0 km/h (0 Bft) O-NO 74 ° 0 min 0,000 mm 0,0 UV-I 0 W/m² 3,3 °C 4,2 °C 0,0 km/h (0 Bft)
11.04.2019 21:07 4,2 °C 94 % 1016,3 hPa 0,0 mm 0,0 km/h (0 Bft) O-NO 74 ° 0 min 0,000 mm 0,0 UV-I 0 W/m² 3,3 °C 4,2 °C 0,0 km/h (0 Bft)
11.04.2019 21:08 4,1 °C 94 % 1016,3 hPa 0,0 mm 0,0 km/h (0 Bft) O-NO 74 ° 0 min 0,000 mm 0,0 UV-I 0 W/m² 3,2 °C 4,1 °C 0,0 km/h (0 Bft)
11.04.2019 21:09 4,2 °C 94 % 1016,3 hPa 0,0 mm 0,0 km/h (0 Bft) O-NO 74 ° 0 min 0,000 mm 0,0 UV-I 0 W/m² 3,3 °C 4,2 °C 0,0 km/h (0 Bft)
11.04.2019 21:10 4,1 °C 94 % 1016,3 hPa 0,0 mm 0,0 km/h (0 Bft) O-NO 74 ° 0 min 0,000 mm 0,0 UV-I 0 W/m² 3,2 °C 4,1 °C 0,0 km/h (0 Bft)
11.04.2019 21:11 4,1 °C 94 % 1016,3 hPa 0,0 mm 0,0 km/h (0 Bft) O-NO 74 ° 0 min 0,000 mm 0,0 UV-I 0 W/m² 3,2 °C 4,1 °C 0,0 km/h (0 Bft)
11.04.2019 21:12 4,1 °C 94 % 1016,4 hPa 0,0 mm 0,0 km/h (0 Bft) O-NO 74 ° 0 min 0,000 mm 0,0 UV-I 0 W/m² 3,2 °C 4,1 °C 0,0 km/h (0 Bft)
11.04.2019 21:13 4,1 °C 94 % 1016,3 hPa 0,0 mm 0,0 km/h (0 Bft) O-NO 74 ° 0 min 0,000 mm 0,0 UV-I 0 W/m² 3,2 °C 4,1 °C 0,0 km/h (0 Bft)
11.04.2019 21:14 4,1 °C 94 % 1016,3 hPa 0,0 mm 0,0 km/h (0 Bft) O-NO 74 ° 0 min 0,000 mm 0,0 UV-I 0 W/m² 3,2 °C 4,1 °C 0,0 km/h (0 Bft)
11.04.2019 21:15 4,1 °C 94 % 1016,3 hPa 0,0 mm 0,0 km/h (0 Bft) O-NO 74 ° 0 min 0,000 mm 0,0 UV-I 0 W/m² 3,2 °C 4,1 °C 0,0 km/h (0 Bft)
11.04.2019 21:16 4,1 °C 94 % 1016,3 hPa 0,0 mm 0,0 km/h (0 Bft) O-NO 74 ° 0 min 0,000 mm 0,0 UV-I 0 W/m² 3,2 °C 4,1 °C 0,0 km/h (0 Bft)
11.04.2019 21:17 4,1 °C 94 % 1016,3 hPa 0,0 mm 0,0 km/h (0 Bft) O-NO 74 ° 0 min 0,000 mm 0,0 UV-I 0 W/m² 3,2 °C 4,1 °C 0,0 km/h (0 Bft)
11.04.2019 21:18 4,1 °C 94 % 1016,3 hPa 0,0 mm 0,0 km/h (0 Bft) O-NO 74 ° 0 min 0,000 mm 0,0 UV-I 0 W/m² 3,2 °C 4,1 °C 0,0 km/h (0 Bft)
11.04.2019 21:19 4,0 °C 94 % 1016,3 hPa 0,0 mm 0,0 km/h (0 Bft) O-NO 74 ° 0 min 0,000 mm 0,0 UV-I 0 W/m² 3,1 °C 4,0 °C 0,0 km/h (0 Bft)
11.04.2019 21:20 4,0 °C 94 % 1016,3 hPa 0,0 mm 0,0 km/h (0 Bft) O-NO 74 ° 0 min 0,000 mm 0,0 UV-I 0 W/m² 3,1 °C 4,0 °C 0,0 km/h (0 Bft)
11.04.2019 21:21 4,1 °C 94 % 1016,3 hPa 0,0 mm 0,0 km/h (0 Bft) O-NO 74 ° 0 min 0,000 mm 0,0 UV-I 0 W/m² 3,2 °C 4,1 °C 0,0 km/h (0 Bft)
11.04.2019 21:22 4,1 °C 94 % 1016,4 hPa 0,0 mm 0,0 km/h (0 Bft) O-NO 74 ° 0 min 0,000 mm 0,0 UV-I 0 W/m² 3,2 °C 4,1 °C 0,0 km/h (0 Bft)
11.04.2019 21:23 4,1 °C 94 % 1016,3 hPa 0,0 mm 0,0 km/h (0 Bft) O-NO 74 ° 0 min 0,000 mm 0,0 UV-I 0 W/m² 3,2 °C 4,1 °C 0,0 km/h (0 Bft)
11.04.2019 21:24 4,0 °C 94 % 1016,4 hPa 0,0 mm 0,0 km/h (0 Bft) O-NO 74 ° 0 min 0,000 mm 0,0 UV-I 0 W/m² 3,1 °C 4,0 °C 0,0 km/h (0 Bft)
11.04.2019 21:25 4,0 °C 94 % 1016,3 hPa 0,0 mm 0,0 km/h (0 Bft) O-NO 74 ° 0 min 0,000 mm 0,0 UV-I 0 W/m² 3,1 °C 4,0 °C 0,0 km/h (0 Bft)
11.04.2019 21:26 4,1 °C 94 % 1016,4 hPa 0,0 mm 0,0 km/h (0 Bft) O-NO 74 ° 0 min 0,000 mm 0,0 UV-I 0 W/m² 3,2 °C 4,1 °C 0,0 km/h (0 Bft)
11.04.2019 21:27 4,0 °C 94 % 1016,4 hPa 0,0 mm 0,0 km/h (0 Bft) O-NO 74 ° 0 min 0,000 mm 0,0 UV-I 0 W/m² 3,1 °C 4,0 °C 0,0 km/h (0 Bft)
11.04.2019 21:28 4,0 °C 94 % 1016,4 hPa 0,0 mm 0,0 km/h (0 Bft) O-NO 74 ° 0 min 0,000 mm 0,0 UV-I 0 W/m² 3,1 °C 4,0 °C 0,0 km/h (0 Bft)
11.04.2019 21:29 4,0 °C 94 % 1016,4 hPa 0,0 mm 0,0 km/h (0 Bft) O-NO 74 ° 0 min 0,000 mm 0,0 UV-I 0 W/m² 3,1 °C 4,0 °C 0,0 km/h (0 Bft)
11.04.2019 21:30 4,0 °C 94 % 1016,3 hPa 0,0 mm 0,0 km/h (0 Bft) O-NO 74 ° 0 min 0,000 mm 0,0 UV-I 0 W/m² 3,1 °C 4,0 °C 0,0 km/h (0 Bft)
11.04.2019 21:31 4,1 °C 94 % 1016,4 hPa 0,0 mm 0,0 km/h (0 Bft) O-NO 74 ° 0 min 0,000 mm 0,0 UV-I 0 W/m² 3,2 °C 4,1 °C 0,0 km/h (0 Bft)
11.04.2019 21:32 4,1 °C 94 % 1016,3 hPa 0,0 mm 0,0 km/h (0 Bft) O-NO 74 ° 0 min 0,000 mm 0,0 UV-I 0 W/m² 3,2 °C 4,1 °C 0,0 km/h (0 Bft)
11.04.2019 21:33 4,1 °C 94 % 1016,3 hPa 0,0 mm 0,0 km/h (0 Bft) O-NO 74 ° 0 min 0,000 mm 0,0 UV-I 0 W/m² 3,2 °C 4,1 °C 0,0 km/h (0 Bft)
11.04.2019 21:34 4,1 °C 94 % 1016,4 hPa 0,0 mm 0,0 km/h (0 Bft) O-NO 74 ° 0 min 0,000 mm 0,0 UV-I 0 W/m² 3,2 °C 4,1 °C 0,0 km/h (0 Bft)
11.04.2019 21:35 4,1 °C 94 % 1016,3 hPa 0,0 mm 0,0 km/h (0 Bft) O-NO 74 ° 0 min 0,000 mm 0,0 UV-I 0 W/m² 3,2 °C 4,1 °C 0,0 km/h (0 Bft)
11.04.2019 21:36 4,1 °C 94 % 1016,3 hPa 0,0 mm 0,0 km/h (0 Bft) O-NO 74 ° 0 min 0,000 mm 0,0 UV-I 0 W/m² 3,2 °C 4,1 °C 0,0 km/h (0 Bft)
11.04.2019 21:37 4,1 °C 94 % 1016,4 hPa 0,0 mm 0,0 km/h (0 Bft) O-NO 74 ° 0 min 0,000 mm 0,0 UV-I 0 W/m² 3,2 °C 4,1 °C 0,0 km/h (0 Bft)
11.04.2019 21:38 4,1 °C 94 % 1016,4 hPa 0,0 mm 0,0 km/h (0 Bft) O-NO 74 ° 0 min 0,000 mm 0,0 UV-I 0 W/m² 3,2 °C 4,1 °C 0,0 km/h (0 Bft)
11.04.2019 21:39 4,1 °C 94 % 1016,3 hPa 0,0 mm 0,0 km/h (0 Bft) O-NO 74 ° 0 min 0,000 mm 0,0 UV-I 0 W/m² 3,2 °C 4,1 °C 0,0 km/h (0 Bft)
11.04.2019 21:40 4,1 °C 94 % 1016,4 hPa 0,0 mm 0,0 km/h (0 Bft) O-NO 74 ° 0 min 0,000 mm 0,0 UV-I 0 W/m² 3,2 °C 4,1 °C 0,0 km/h (0 Bft)
11.04.2019 21:41 4,1 °C 94 % 1016,4 hPa 0,0 mm 0,0 km/h (0 Bft) O-NO 74 ° 0 min 0,000 mm 0,0 UV-I 0 W/m² 3,2 °C 4,1 °C 0,0 km/h (0 Bft)
11.04.2019 21:42 4,1 °C 94 % 1016,4 hPa 0,0 mm 0,0 km/h (0 Bft) O-NO 74 ° 0 min 0,000 mm 0,0 UV-I 0 W/m² 3,2 °C 4,1 °C 0,0 km/h (0 Bft)
11.04.2019 21:43 4,1 °C 94 % 1016,3 hPa 0,0 mm 0,0 km/h (0 Bft) O-NO 74 ° 0 min 0,000 mm 0,0 UV-I 0 W/m² 3,2 °C 4,1 °C 0,0 km/h (0 Bft)
11.04.2019 21:44 4,1 °C 94 % 1016,4 hPa 0,0 mm 0,0 km/h (0 Bft) O-NO 74 ° 0 min 0,000 mm 0,0 UV-I 0 W/m² 3,2 °C 4,1 °C 0,0 km/h (0 Bft)
11.04.2019 21:45 4,1 °C 94 % 1016,3 hPa 0,0 mm 0,0 km/h (0 Bft) O-NO 74 ° 0 min 0,000 mm 0,0 UV-I 0 W/m² 3,2 °C 4,1 °C 0,0 km/h (0 Bft)
11.04.2019 21:46 4,1 °C 94 % 1016,4 hPa 0,0 mm 0,0 km/h (0 Bft) O-NO 74 ° 0 min 0,000 mm 0,0 UV-I 0 W/m² 3,2 °C 4,1 °C 0,0 km/h (0 Bft)
11.04.2019 21:47 4,1 °C 94 % 1016,3 hPa 0,0 mm 0,0 km/h (0 Bft) O-NO 74 ° 0 min 0,000 mm 0,0 UV-I 0 W/m² 3,2 °C 4,1 °C 0,0 km/h (0 Bft)
11.04.2019 21:48 4,1 °C 94 % 1016,4 hPa 0,0 mm 0,0 km/h (0 Bft) O-NO 74 ° 0 min 0,000 mm 0,0 UV-I 0 W/m² 3,2 °C 4,1 °C 0,0 km/h (0 Bft)
11.04.2019 21:49 4,1 °C 94 % 1016,3 hPa 0,0 mm 0,0 km/h (0 Bft) O-NO 74 ° 0 min 0,000 mm 0,0 UV-I 0 W/m² 3,2 °C 4,1 °C 0,0 km/h (0 Bft)
11.04.2019 21:50 4,1 °C 94 % 1016,3 hPa 0,0 mm 0,0 km/h (0 Bft) O-NO 74 ° 0 min 0,000 mm 0,0 UV-I 0 W/m² 3,2 °C 4,1 °C 0,0 km/h (0 Bft)
11.04.2019 21:51 4,1 °C 94 % 1016,4 hPa 0,0 mm 0,0 km/h (0 Bft) O-NO 74 ° 0 min 0,000 mm 0,0 UV-I 0 W/m² 3,2 °C 4,1 °C 0,0 km/h (0 Bft)
11.04.2019 21:52 4,1 °C 94 % 1016,3 hPa 0,0 mm 0,0 km/h (0 Bft) O-NO 74 ° 0 min 0,000 mm 0,0 UV-I 0 W/m² 3,2 °C 4,1 °C 0,0 km/h (0 Bft)
11.04.2019 21:53 4,1 °C 94 % 1016,3 hPa 0,0 mm 0,0 km/h (0 Bft) O-NO 74 ° 0 min 0,000 mm 0,0 UV-I 0 W/m² 3,2 °C 4,1 °C 0,0 km/h (0 Bft)
11.04.2019 21:54 4,0 °C 94 % 1016,3 hPa 0,0 mm 0,0 km/h (0 Bft) O-NO 74 ° 0 min 0,000 mm 0,0 UV-I 0 W/m² 3,1 °C 4,0 °C 0,0 km/h (0 Bft)
11.04.2019 21:55 4,1 °C 94 % 1016,4 hPa 0,0 mm 0,0 km/h (0 Bft) O-NO 74 ° 0 min 0,000 mm 0,0 UV-I 0 W/m² 3,2 °C 4,1 °C 0,0 km/h (0 Bft)
11.04.2019 21:56 4,0 °C 94 % 1016,3 hPa 0,0 mm 0,0 km/h (0 Bft) O-NO 74 ° 0 min 0,000 mm 0,0 UV-I 0 W/m² 3,1 °C 4,0 °C 0,0 km/h (0 Bft)
11.04.2019 21:57 4,0 °C 94 % 1016,3 hPa 0,0 mm 0,0 km/h (0 Bft) O-NO 74 ° 0 min 0,000 mm 0,0 UV-I 0 W/m² 3,1 °C 4,0 °C 0,0 km/h (0 Bft)
11.04.2019 21:58 4,0 °C 94 % 1016,3 hPa 0,0 mm 0,0 km/h (0 Bft) O-NO 74 ° 0 min 0,000 mm 0,0 UV-I 0 W/m² 3,1 °C 4,0 °C 0,0 km/h (0 Bft)
11.04.2019 21:59 4,0 °C 94 % 1016,3 hPa 0,0 mm 0,0 km/h (0 Bft) O-NO 74 ° 0 min 0,000 mm 0,0 UV-I 0 W/m² 3,1 °C 4,0 °C 0,0 km/h (0 Bft)
11.04.2019 22:00 4,0 °C 94 % 1016,3 hPa 0,0 mm 0,0 km/h (0 Bft) O-NO 74 ° 0 min 0,000 mm 0,0 UV-I 0 W/m² 3,1 °C 4,0 °C 0,0 km/h (0 Bft)
11.04.2019 22:01 4,0 °C 94 % 1016,3 hPa 0,0 mm 0,0 km/h (0 Bft) O-NO 74 ° 0 min 0,000 mm 0,0 UV-I 0 W/m² 3,1 °C 4,0 °C 0,0 km/h (0 Bft)
11.04.2019 22:02 4,0 °C 94 % 1016,3 hPa 0,0 mm 0,0 km/h (0 Bft) O-NO 74 ° 0 min 0,000 mm 0,0 UV-I 0 W/m² 3,1 °C 4,0 °C 0,0 km/h (0 Bft)
11.04.2019 22:03 4,0 °C 94 % 1016,3 hPa 0,0 mm 0,0 km/h (0 Bft) O-NO 74 ° 0 min 0,000 mm 0,0 UV-I 0 W/m² 3,1 °C 4,0 °C 0,0 km/h (0 Bft)
11.04.2019 22:04 4,0 °C 94 % 1016,3 hPa 0,0 mm 0,0 km/h (0 Bft) O-NO 74 ° 0 min 0,000 mm 0,0 UV-I 0 W/m² 3,1 °C 4,0 °C 0,0 km/h (0 Bft)
11.04.2019 22:05 4,0 °C 94 % 1016,3 hPa 0,0 mm 0,0 km/h (0 Bft) O-NO 74 ° 0 min 0,000 mm 0,0 UV-I 0 W/m² 3,1 °C 4,0 °C 0,0 km/h (0 Bft)
11.04.2019 22:06 4,0 °C 94 % 1016,3 hPa 0,0 mm 0,0 km/h (0 Bft) O-NO 74 ° 0 min 0,000 mm 0,0 UV-I 0 W/m² 3,1 °C 4,0 °C 0,0 km/h (0 Bft)
11.04.2019 22:07 4,0 °C 94 % 1016,3 hPa 0,0 mm 0,0 km/h (0 Bft) O-NO 74 ° 0 min 0,000 mm 0,0 UV-I 0 W/m² 3,1 °C 4,0 °C 0,0 km/h (0 Bft)
11.04.2019 22:08 4,1 °C 94 % 1016,3 hPa 0,0 mm 0,0 km/h (0 Bft) O-NO 74 ° 0 min 0,000 mm 0,0 UV-I 0 W/m² 3,2 °C 4,1 °C 0,0 km/h (0 Bft)
11.04.2019 22:09 4,0 °C 94 % 1016,3 hPa 0,0 mm 0,0 km/h (0 Bft) O-NO 74 ° 0 min 0,000 mm 0,0 UV-I 0 W/m² 3,1 °C 4,0 °C 0,0 km/h (0 Bft)
11.04.2019 22:10 4,0 °C 94 % 1016,3 hPa 0,0 mm 0,0 km/h (0 Bft) O-NO 74 ° 0 min 0,000 mm 0,0 UV-I 0 W/m² 3,1 °C 4,0 °C 0,0 km/h (0 Bft)
11.04.2019 22:11 4,0 °C 94 % 1016,3 hPa 0,0 mm 0,0 km/h (0 Bft) O-NO 74 ° 0 min 0,000 mm 0,0 UV-I 0 W/m² 3,1 °C 4,0 °C 0,0 km/h (0 Bft)
11.04.2019 22:12 4,0 °C 94 % 1016,3 hPa 0,0 mm 0,0 km/h (0 Bft) O-NO 74 ° 0 min 0,000 mm 0,0 UV-I 0 W/m² 3,1 °C 4,0 °C 0,0 km/h (0 Bft)
11.04.2019 22:13 4,0 °C 94 % 1016,3 hPa 0,0 mm 0,0 km/h (0 Bft) O-NO 74 ° 0 min 0,000 mm 0,0 UV-I 0 W/m² 3,1 °C 4,0 °C 0,0 km/h (0 Bft)
11.04.2019 22:14 4,0 °C 94 % 1016,3 hPa 0,0 mm 0,0 km/h (0 Bft) O-NO 74 ° 0 min 0,000 mm 0,0 UV-I 0 W/m² 3,1 °C 4,0 °C 0,0 km/h (0 Bft)
11.04.2019 22:15 4,0 °C 94 % 1016,3 hPa 0,0 mm 0,0 km/h (0 Bft) O-NO 74 ° 0 min 0,000 mm 0,0 UV-I 0 W/m² 3,1 °C 4,0 °C 0,0 km/h (0 Bft)
11.04.2019 22:16 4,0 °C 94 % 1016,2 hPa 0,0 mm 0,0 km/h (0 Bft) O-NO 74 ° 0 min 0,000 mm 0,0 UV-I 0 W/m² 3,1 °C 4,0 °C 0,0 km/h (0 Bft)
11.04.2019 22:17 4,0 °C 94 % 1016,3 hPa 0,0 mm 0,0 km/h (0 Bft) O-NO 74 ° 0 min 0,000 mm 0,0 UV-I 0 W/m² 3,1 °C 4,0 °C 0,0 km/h (0 Bft)
11.04.2019 22:18 4,0 °C 94 % 1016,2 hPa 0,0 mm 0,0 km/h (0 Bft) O-NO 74 ° 0 min 0,000 mm 0,0 UV-I 0 W/m² 3,1 °C 4,0 °C 0,0 km/h (0 Bft)
11.04.2019 22:19 4,0 °C 94 % 1016,3 hPa 0,0 mm 0,0 km/h (0 Bft) O-NO 74 ° 0 min 0,000 mm 0,0 UV-I 0 W/m² 3,1 °C 4,0 °C 0,0 km/h (0 Bft)
11.04.2019 22:20 4,0 °C 94 % 1016,2 hPa 0,0 mm 0,0 km/h (0 Bft) O-NO 74 ° 0 min 0,000 mm 0,0 UV-I 0 W/m² 3,1 °C 4,0 °C 0,0 km/h (0 Bft)
11.04.2019 22:21 4,0 °C 94 % 1016,3 hPa 0,0 mm 0,0 km/h (0 Bft) O-NO 74 ° 0 min 0,000 mm 0,0 UV-I 0 W/m² 3,1 °C 4,0 °C 0,0 km/h (0 Bft)
11.04.2019 22:22 3,9 °C 94 % 1016,3 hPa 0,0 mm 0,0 km/h (0 Bft) O-NO 74 ° 0 min 0,000 mm 0,0 UV-I 0 W/m² 3,0 °C 3,9 °C 0,0 km/h (0 Bft)
11.04.2019 22:23 4,0 °C 94 % 1016,3 hPa 0,0 mm 0,0 km/h (0 Bft) O-NO 74 ° 0 min 0,000 mm 0,0 UV-I 0 W/m² 3,1 °C 4,0 °C 0,0 km/h (0 Bft)
11.04.2019 22:24 3,9 °C 94 % 1016,3 hPa 0,0 mm 0,0 km/h (0 Bft) O-NO 74 ° 0 min 0,000 mm 0,0 UV-I 0 W/m² 3,0 °C 3,9 °C 0,0 km/h (0 Bft)
11.04.2019 22:25 4,0 °C 94 % 1016,3 hPa 0,0 mm 0,0 km/h (0 Bft) O-NO 74 ° 0 min 0,000 mm 0,0 UV-I 0 W/m² 3,1 °C 4,0 °C 0,0 km/h (0 Bft)
11.04.2019 22:26 4,0 °C 94 % 1016,3 hPa 0,0 mm 0,0 km/h (0 Bft) O-NO 74 ° 0 min 0,000 mm 0,0 UV-I 0 W/m² 3,1 °C 4,0 °C 0,0 km/h (0 Bft)
11.04.2019 22:27 4,0 °C 94 % 1016,3 hPa 0,0 mm 0,0 km/h (0 Bft) O-NO 74 ° 0 min 0,000 mm 0,0 UV-I 0 W/m² 3,1 °C 4,0 °C 0,0 km/h (0 Bft)
11.04.2019 22:28 4,0 °C 94 % 1016,3 hPa 0,0 mm 0,0 km/h (0 Bft) O-NO 74 ° 0 min 0,000 mm 0,0 UV-I 0 W/m² 3,1 °C 4,0 °C 0,0 km/h (0 Bft)
11.04.2019 22:29 4,0 °C 94 % 1016,3 hPa 0,0 mm 0,0 km/h (0 Bft) O-NO 74 ° 0 min 0,000 mm 0,0 UV-I 0 W/m² 3,1 °C 4,0 °C 0,0 km/h (0 Bft)
11.04.2019 22:30 4,0 °C 94 % 1016,3 hPa 0,0 mm 0,0 km/h (0 Bft) O-NO 74 ° 0 min 0,000 mm 0,0 UV-I 0 W/m² 3,1 °C 4,0 °C 0,0 km/h (0 Bft)
11.04.2019 22:31 4,0 °C 94 % 1016,3 hPa 0,0 mm 0,0 km/h (0 Bft) O-NO 74 ° 0 min 0,000 mm 0,0 UV-I 0 W/m² 3,1 °C 4,0 °C 0,0 km/h (0 Bft)
11.04.2019 22:32 4,0 °C 94 % 1016,3 hPa 0,0 mm 0,0 km/h (0 Bft) O-NO 74 ° 0 min 0,000 mm 0,0 UV-I 0 W/m² 3,1 °C 4,0 °C 0,0 km/h (0 Bft)
11.04.2019 22:33 4,0 °C 94 % 1016,3 hPa 0,0 mm 0,0 km/h (0 Bft) O-NO 74 ° 0 min 0,000 mm 0,0 UV-I 0 W/m² 3,1 °C 4,0 °C 0,0 km/h (0 Bft)
11.04.2019 22:34 4,0 °C 94 % 1016,3 hPa 0,0 mm 0,0 km/h (0 Bft) O-NO 74 ° 0 min 0,000 mm 0,0 UV-I 0 W/m² 3,1 °C 4,0 °C 0,0 km/h (0 Bft)
11.04.2019 22:35 4,0 °C 94 % 1016,3 hPa 0,0 mm 0,0 km/h (0 Bft) O-NO 74 ° 0 min 0,000 mm 0,0 UV-I 0 W/m² 3,1 °C 4,0 °C 0,0 km/h (0 Bft)
11.04.2019 22:36 4,0 °C 94 % 1016,3 hPa 0,0 mm 0,0 km/h (0 Bft) O-NO 74 ° 0 min 0,000 mm 0,0 UV-I 0 W/m² 3,1 °C 4,0 °C 0,0 km/h (0 Bft)
11.04.2019 22:37 4,0 °C 94 % 1016,3 hPa 0,0 mm 0,0 km/h (0 Bft) O-NO 74 ° 0 min 0,000 mm 0,0 UV-I 0 W/m² 3,1 °C 4,0 °C 0,0 km/h (0 Bft)
11.04.2019 22:38 4,0 °C 94 % 1016,3 hPa 0,0 mm 0,0 km/h (0 Bft) O-NO 74 ° 0 min 0,000 mm 0,0 UV-I 0 W/m² 3,1 °C 4,0 °C 0,0 km/h (0 Bft)
11.04.2019 22:39 4,0 °C 94 % 1016,3 hPa 0,0 mm 0,0 km/h (0 Bft) O-NO 74 ° 0 min 0,000 mm 0,0 UV-I 0 W/m² 3,1 °C 4,0 °C 0,0 km/h (0 Bft)
11.04.2019 22:40 4,1 °C 94 % 1016,3 hPa 0,0 mm 0,0 km/h (0 Bft) O-NO 74 ° 0 min 0,000 mm 0,0 UV-I 0 W/m² 3,2 °C 4,1 °C 0,0 km/h (0 Bft)
11.04.2019 22:41 4,1 °C 93 % 1016,3 hPa 0,0 mm 0,0 km/h (0 Bft) O-NO 74 ° 0 min 0,000 mm 0,0 UV-I 0 W/m² 3,1 °C 4,1 °C 0,0 km/h (0 Bft)
11.04.2019 22:42 4,1 °C 93 % 1016,3 hPa 0,0 mm 0,0 km/h (0 Bft) O-NO 74 ° 0 min 0,000 mm 0,0 UV-I 0 W/m² 3,1 °C 4,1 °C 0,0 km/h (0 Bft)
11.04.2019 22:43 4,1 °C 93 % 1016,3 hPa 0,0 mm 0,0 km/h (0 Bft) O-NO 74 ° 0 min 0,000 mm 0,0 UV-I 0 W/m² 3,1 °C 4,1 °C 0,0 km/h (0 Bft)
11.04.2019 22:44 4,1 °C 93 % 1016,3 hPa 0,0 mm 0,0 km/h (0 Bft) O-NO 74 ° 0 min 0,000 mm 0,0 UV-I 0 W/m² 3,1 °C 4,1 °C 0,0 km/h (0 Bft)
11.04.2019 22:45 4,1 °C 93 % 1016,3 hPa 0,0 mm 0,0 km/h (0 Bft) O-NO 74 ° 0 min 0,000 mm 0,0 UV-I 0 W/m² 3,1 °C 4,1 °C 0,0 km/h (0 Bft)
11.04.2019 22:46 4,1 °C 93 % 1016,3 hPa 0,0 mm 0,0 km/h (0 Bft) O-NO 74 ° 0 min 0,000 mm 0,0 UV-I 0 W/m² 3,1 °C 4,1 °C 0,0 km/h (0 Bft)
11.04.2019 22:47 4,0 °C 93 % 1016,3 hPa 0,0 mm 0,0 km/h (0 Bft) O-NO 74 ° 0 min 0,000 mm 0,0 UV-I 0 W/m² 3,0 °C 4,0 °C 0,0 km/h (0 Bft)
11.04.2019 22:48 4,1 °C 93 % 1016,3 hPa 0,0 mm 0,0 km/h (0 Bft) O-NO 74 ° 0 min 0,000 mm 0,0 UV-I 0 W/m² 3,1 °C 4,1 °C 0,0 km/h (0 Bft)
11.04.2019 22:49 4,0 °C 93 % 1016,3 hPa 0,0 mm 0,0 km/h (0 Bft) O-NO 74 ° 0 min 0,000 mm 0,0 UV-I 0 W/m² 3,0 °C 4,0 °C 0,0 km/h (0 Bft)
11.04.2019 22:50 4,0 °C 93 % 1016,3 hPa 0,0 mm 0,0 km/h (0 Bft) O-NO 74 ° 0 min 0,000 mm 0,0 UV-I 0 W/m² 3,0 °C 4,0 °C 0,0 km/h (0 Bft)
11.04.2019 22:51 4,1 °C 93 % 1016,3 hPa 0,0 mm 0,0 km/h (0 Bft) O-NO 74 ° 0 min 0,000 mm 0,0 UV-I 0 W/m² 3,1 °C 4,1 °C 0,0 km/h (0 Bft)
11.04.2019 22:52 4,0 °C 93 % 1016,3 hPa 0,0 mm 0,0 km/h (0 Bft) O-NO 74 ° 0 min 0,000 mm 0,0 UV-I 0 W/m² 3,0 °C 4,0 °C 0,0 km/h (0 Bft)
11.04.2019 22:53 4,1 °C 93 % 1016,3 hPa 0,0 mm 0,0 km/h (0 Bft) O-NO 74 ° 0 min 0,000 mm 0,0 UV-I 0 W/m² 3,1 °C 4,1 °C 0,0 km/h (0 Bft)
11.04.2019 22:54 4,0 °C 93 % 1016,3 hPa 0,0 mm 0,0 km/h (0 Bft) O-NO 74 ° 0 min 0,000 mm 0,0 UV-I 0 W/m² 3,0 °C 4,0 °C 0,0 km/h (0 Bft)
11.04.2019 22:55 4,0 °C 93 % 1016,3 hPa 0,0 mm 0,0 km/h (0 Bft) O-NO 74 ° 0 min 0,000 mm 0,0 UV-I 0 W/m² 3,0 °C 4,0 °C 0,0 km/h (0 Bft)
11.04.2019 22:56 4,0 °C 93 % 1016,3 hPa 0,0 mm 0,0 km/h (0 Bft) O-NO 74 ° 0 min 0,000 mm 0,0 UV-I 0 W/m² 3,0 °C 4,0 °C 0,0 km/h (0 Bft)
11.04.2019 22:57 4,0 °C 93 % 1016,3 hPa 0,0 mm 0,0 km/h (0 Bft) O-NO 74 ° 0 min 0,000 mm 0,0 UV-I 0 W/m² 3,0 °C 4,0 °C 0,0 km/h (0 Bft)
11.04.2019 22:58 4,0 °C 93 % 1016,3 hPa 0,0 mm 0,0 km/h (0 Bft) O-NO 74 ° 0 min 0,000 mm 0,0 UV-I 0 W/m² 3,0 °C 4,0 °C 0,0 km/h (0 Bft)
11.04.2019 22:59 4,0 °C 93 % 1016,3 hPa 0,0 mm 0,0 km/h (0 Bft) O-NO 74 ° 0 min 0,000 mm 0,0 UV-I 0 W/m² 3,0 °C 4,0 °C 0,0 km/h (0 Bft)
11.04.2019 23:00 4,0 °C 93 % 1016,3 hPa 0,0 mm 0,0 km/h (0 Bft) O-NO 74 ° 0 min 0,000 mm 0,0 UV-I 0 W/m² 3,0 °C 4,0 °C 0,0 km/h (0 Bft)
11.04.2019 23:01 4,1 °C 93 % 1016,3 hPa 0,0 mm 0,0 km/h (0 Bft) O-NO 74 ° 0 min 0,000 mm 0,0 UV-I 0 W/m² 3,1 °C 4,1 °C 0,0 km/h (0 Bft)
11.04.2019 23:02 4,1 °C 93 % 1016,3 hPa 0,0 mm 0,2 km/h (0 Bft) O 90 ° 0 min 0,000 mm 0,0 UV-I 0 W/m² 3,1 °C 4,1 °C 1,6 km/h (1 Bft)
11.04.2019 23:03 4,1 °C 93 % 1016,3 hPa 0,0 mm 2,4 km/h (1 Bft) O 86 ° 0 min 0,000 mm 0,0 UV-I 0 W/m² 3,1 °C 4,1 °C 4,8 km/h (1 Bft)
11.04.2019 23:04 4,0 °C 93 % 1016,3 hPa 0,0 mm 0,3 km/h (0 Bft) O 86 ° 0 min 0,000 mm 0,0 UV-I 0 W/m² 3,0 °C 4,0 °C 1,6 km/h (1 Bft)
11.04.2019 23:05 4,1 °C 93 % 1016,3 hPa 0,0 mm 4,4 km/h (1 Bft) O-NO 61 ° 0 min 0,000 mm 0,0 UV-I 0 W/m² 3,1 °C 4,1 °C 8,0 km/h (2 Bft)
11.04.2019 23:06 4,1 °C 93 % 1016,3 hPa 0,0 mm 0,8 km/h (0 Bft) O-NO 63 ° 0 min 0,000 mm 0,0 UV-I 0 W/m² 3,1 °C 4,1 °C 4,8 km/h (1 Bft)
11.04.2019 23:07 4,1 °C 93 % 1016,3 hPa 0,0 mm 0,0 km/h (0 Bft) O-NO 58 ° 0 min 0,000 mm 0,0 UV-I 0 W/m² 3,1 °C 4,1 °C 0,0 km/h (0 Bft)
11.04.2019 23:08 4,2 °C 93 % 1016,3 hPa 0,0 mm 0,8 km/h (0 Bft) O 81 ° 0 min 0,000 mm 0,0 UV-I 0 W/m² 3,2 °C 4,2 °C 6,4 km/h (2 Bft)
11.04.2019 23:09 4,2 °C 93 % 1016,2 hPa 0,0 mm 2,4 km/h (1 Bft) O 81 ° 0 min 0,000 mm 0,0 UV-I 0 W/m² 3,2 °C 4,2 °C 8,0 km/h (2 Bft)
11.04.2019 23:10 4,2 °C 93 % 1016,3 hPa 0,0 mm 0,0 km/h (0 Bft) O 81 ° 0 min 0,000 mm 0,0 UV-I 0 W/m² 3,2 °C 4,2 °C 0,0 km/h (0 Bft)
11.04.2019 23:11 4,2 °C 93 % 1016,3 hPa 0,0 mm 0,0 km/h (0 Bft) O 81 ° 0 min 0,000 mm 0,0 UV-I 0 W/m² 3,2 °C 4,2 °C 0,0 km/h (0 Bft)
11.04.2019 23:12 4,2 °C 93 % 1016,3 hPa 0,0 mm 0,0 km/h (0 Bft) O 81 ° 0 min 0,000 mm 0,0 UV-I 0 W/m² 3,2 °C 4,2 °C 0,0 km/h (0 Bft)
11.04.2019 23:13 4,2 °C 93 % 1016,3 hPa 0,0 mm 0,1 km/h (0 Bft) O 81 ° 0 min 0,000 mm 0,0 UV-I 0 W/m² 3,2 °C 4,2 °C 1,6 km/h (1 Bft)
11.04.2019 23:14 4,2 °C 93 % 1016,3 hPa 0,0 mm 0,0 km/h (0 Bft) O 81 ° 0 min 0,000 mm 0,0 UV-I 0 W/m² 3,2 °C 4,2 °C 0,0 km/h (0 Bft)
11.04.2019 23:15 4,2 °C 93 % 1016,3 hPa 0,0 mm 0,7 km/h (0 Bft) O-NO 70 ° 0 min 0,000 mm 0,0 UV-I 0 W/m² 3,2 °C 4,2 °C 4,8 km/h (1 Bft)
11.04.2019 23:16 4,2 °C 93 % 1016,3 hPa 0,0 mm 0,0 km/h (0 Bft) O-NO 70 ° 0 min 0,000 mm 0,0 UV-I 0 W/m² 3,2 °C 4,2 °C 0,0 km/h (0 Bft)
11.04.2019 23:17 4,2 °C 92 % 1016,3 hPa 0,0 mm 0,0 km/h (0 Bft) O-NO 70 ° 0 min 0,000 mm 0,0 UV-I 0 W/m² 3,0 °C 4,2 °C 0,0 km/h (0 Bft)
11.04.2019 23:18 4,2 °C 92 % 1016,3 hPa 0,0 mm 0,0 km/h (0 Bft) O-NO 70 ° 0 min 0,000 mm 0,0 UV-I 0 W/m² 3,0 °C 4,2 °C 0,0 km/h (0 Bft)
11.04.2019 23:19 4,2 °C 92 % 1016,3 hPa 0,0 mm 0,0 km/h (0 Bft) O-NO 70 ° 0 min 0,000 mm 0,0 UV-I 0 W/m² 3,0 °C 4,2 °C 0,0 km/h (0 Bft)
11.04.2019 23:20 4,2 °C 92 % 1016,3 hPa 0,0 mm 0,0 km/h (0 Bft) O-NO 70 ° 0 min 0,000 mm 0,0 UV-I 0 W/m² 3,0 °C 4,2 °C 0,0 km/h (0 Bft)
11.04.2019 23:21 4,2 °C 92 % 1016,4 hPa 0,0 mm 0,0 km/h (0 Bft) O-NO 70 ° 0 min 0,000 mm 0,0 UV-I 0 W/m² 3,0 °C 4,2 °C 0,0 km/h (0 Bft)
11.04.2019 23:22 4,2 °C 92 % 1016,3 hPa 0,0 mm 0,0 km/h (0 Bft) O-NO 70 ° 0 min 0,000 mm 0,0 UV-I 0 W/m² 3,0 °C 4,2 °C 0,0 km/h (0 Bft)
11.04.2019 23:23 4,1 °C 92 % 1016,3 hPa 0,0 mm 0,0 km/h (0 Bft) O-NO 70 ° 0 min 0,000 mm 0,0 UV-I 0 W/m² 2,9 °C 4,1 °C 0,0 km/h (0 Bft)
11.04.2019 23:24 4,1 °C 92 % 1016,4 hPa 0,0 mm 1,2 km/h (1 Bft) O-NO 70 ° 0 min 0,000 mm 0,0 UV-I 0 W/m² 2,9 °C 4,1 °C 3,2 km/h (1 Bft)
11.04.2019 23:25 4,1 °C 92 % 1016,4 hPa 0,0 mm 0,0 km/h (0 Bft) O-NO 70 ° 0 min 0,000 mm 0,0 UV-I 0 W/m² 2,9 °C 4,1 °C 0,0 km/h (0 Bft)
11.04.2019 23:26 4,1 °C 92 % 1016,4 hPa 0,0 mm 0,0 km/h (0 Bft) O-NO 70 ° 0 min 0,000 mm 0,0 UV-I 0 W/m² 2,9 °C 4,1 °C 0,0 km/h (0 Bft)
11.04.2019 23:27 4,1 °C 92 % 1016,3 hPa 0,0 mm 0,1 km/h (0 Bft) O-NO 70 ° 0 min 0,000 mm 0,0 UV-I 0 W/m² 2,9 °C 4,1 °C 1,6 km/h (1 Bft)
11.04.2019 23:28 4,1 °C 92 % 1016,4 hPa 0,0 mm 0,3 km/h (0 Bft) O-NO 70 ° 0 min 0,000 mm 0,0 UV-I 0 W/m² 2,9 °C 4,1 °C 1,6 km/h (1 Bft)
11.04.2019 23:29 4,1 °C 92 % 1016,3 hPa 0,0 mm 1,7 km/h (1 Bft) O-NO 64 ° 0 min 0,000 mm 0,0 UV-I 0 W/m² 2,9 °C 4,1 °C 4,8 km/h (1 Bft)
11.04.2019 23:30 4,2 °C 92 % 1016,3 hPa 0,0 mm 0,2 km/h (0 Bft) O-NO 64 ° 0 min 0,000 mm 0,0 UV-I 0 W/m² 3,0 °C 4,2 °C 1,6 km/h (1 Bft)
11.04.2019 23:31 4,1 °C 92 % 1016,3 hPa 0,0 mm 0,0 km/h (0 Bft) O-NO 64 ° 0 min 0,000 mm 0,0 UV-I 0 W/m² 2,9 °C 4,1 °C 0,0 km/h (0 Bft)
11.04.2019 23:32 4,1 °C 92 % 1016,3 hPa 0,0 mm 0,0 km/h (0 Bft) O-NO 64 ° 0 min 0,000 mm 0,0 UV-I 0 W/m² 2,9 °C 4,1 °C 0,0 km/h (0 Bft)
11.04.2019 23:33 4,1 °C 92 % 1016,3 hPa 0,0 mm 0,0 km/h (0 Bft) O-NO 64 ° 0 min 0,000 mm 0,0 UV-I 0 W/m² 2,9 °C 4,1 °C 0,0 km/h (0 Bft)
11.04.2019 23:34 4,1 °C 92 % 1016,3 hPa 0,0 mm 0,0 km/h (0 Bft) O-NO 64 ° 0 min 0,000 mm 0,0 UV-I 0 W/m² 2,9 °C 4,1 °C 0,0 km/h (0 Bft)
11.04.2019 23:35 4,1 °C 92 % 1016,4 hPa 0,0 mm 0,0 km/h (0 Bft) O-NO 64 ° 0 min 0,000 mm 0,0 UV-I 0 W/m² 2,9 °C 4,1 °C 0,0 km/h (0 Bft)
11.04.2019 23:36 4,1 °C 92 % 1016,3 hPa 0,0 mm 0,6 km/h (0 Bft) O-NO 64 ° 0 min 0,000 mm 0,0 UV-I 0 W/m² 2,9 °C 4,1 °C 1,6 km/h (1 Bft)
11.04.2019 23:37 4,1 °C 92 % 1016,4 hPa 0,0 mm 0,1 km/h (0 Bft) O-NO 64 ° 0 min 0,000 mm 0,0 UV-I 0 W/m² 2,9 °C 4,1 °C 1,6 km/h (1 Bft)
11.04.2019 23:38 4,1 °C 92 % 1016,4 hPa 0,0 mm 2,3 km/h (1 Bft) O 83 ° 0 min 0,000 mm 0,0 UV-I 0 W/m² 2,9 °C 4,1 °C 6,4 km/h (2 Bft)
11.04.2019 23:39 4,1 °C 92 % 1016,4 hPa 0,0 mm 3,9 km/h (1 Bft) O-NO 68 ° 0 min 0,000 mm 0,0 UV-I 0 W/m² 2,9 °C 4,1 °C 6,4 km/h (2 Bft)
11.04.2019 23:40 4,1 °C 92 % 1016,3 hPa 0,0 mm 2,8 km/h (1 Bft) O-NO 68 ° 0 min 0,000 mm 0,0 UV-I 0 W/m² 2,9 °C 4,1 °C 4,8 km/h (1 Bft)
11.04.2019 23:41 4,1 °C 92 % 1016,4 hPa 0,0 mm 0,0 km/h (0 Bft) O-NO 68 ° 0 min 0,000 mm 0,0 UV-I 0 W/m² 2,9 °C 4,1 °C 0,0 km/h (0 Bft)
11.04.2019 23:42 4,1 °C 92 % 1016,4 hPa 0,0 mm 0,9 km/h (0 Bft) O-NO 68 ° 0 min 0,000 mm 0,0 UV-I 0 W/m² 2,9 °C 4,1 °C 4,8 km/h (1 Bft)
11.04.2019 23:43 4,1 °C 92 % 1016,3 hPa 0,0 mm 0,0 km/h (0 Bft) O-NO 68 ° 0 min 0,000 mm 0,0 UV-I 0 W/m² 2,9 °C 4,1 °C 0,0 km/h (0 Bft)
11.04.2019 23:44 4,1 °C 92 % 1016,4 hPa 0,0 mm 0,3 km/h (0 Bft) O-NO 69 ° 0 min 0,000 mm 0,0 UV-I 0 W/m² 2,9 °C 4,1 °C 3,2 km/h (1 Bft)
11.04.2019 23:45 4,1 °C 92 % 1016,4 hPa 0,0 mm 3,2 km/h (1 Bft) O-NO 70 ° 0 min 0,000 mm 0,0 UV-I 0 W/m² 2,9 °C 4,1 °C 6,4 km/h (2 Bft)
11.04.2019 23:46 4,1 °C 92 % 1016,4 hPa 0,0 mm 1,6 km/h (1 Bft) O 79 ° 0 min 0,000 mm 0,0 UV-I 0 W/m² 2,9 °C 4,1 °C 4,8 km/h (1 Bft)
11.04.2019 23:47 4,1 °C 92 % 1016,4 hPa 0,0 mm 0,9 km/h (0 Bft) O 79 ° 0 min 0,000 mm 0,0 UV-I 0 W/m² 2,9 °C 4,1 °C 1,6 km/h (1 Bft)
11.04.2019 23:48 4,0 °C 92 % 1016,3 hPa 0,0 mm 0,0 km/h (0 Bft) O 79 ° 0 min 0,000 mm 0,0 UV-I 0 W/m² 2,8 °C 4,0 °C 0,0 km/h (0 Bft)
11.04.2019 23:49 4,0 °C 92 % 1016,4 hPa 0,0 mm 0,0 km/h (0 Bft) O 79 ° 0 min 0,000 mm 0,0 UV-I 0 W/m² 2,8 °C 4,0 °C 0,0 km/h (0 Bft)
11.04.2019 23:50 4,0 °C 92 % 1016,4 hPa 0,0 mm 0,0 km/h (0 Bft) O 79 ° 0 min 0,000 mm 0,0 UV-I 0 W/m² 2,8 °C 4,0 °C 0,0 km/h (0 Bft)
11.04.2019 23:51 3,9 °C 92 % 1016,4 hPa 0,0 mm 0,2 km/h (0 Bft) O-NO 71 ° 0 min 0,000 mm 0,0 UV-I 0 W/m² 2,7 °C 3,9 °C 3,2 km/h (1 Bft)
11.04.2019 23:52 3,9 °C 92 % 1016,4 hPa 0,0 mm 2,3 km/h (1 Bft) O-NO 76 ° 0 min 0,000 mm 0,0 UV-I 0 W/m² 2,7 °C 3,9 °C 4,8 km/h (1 Bft)
11.04.2019 23:53 3,9 °C 92 % 1016,4 hPa 0,0 mm 0,2 km/h (0 Bft) O-NO 76 ° 0 min 0,000 mm 0,0 UV-I 0 W/m² 2,7 °C 3,9 °C 1,6 km/h (1 Bft)
11.04.2019 23:54 3,9 °C 92 % 1016,4 hPa 0,0 mm 1,9 km/h (1 Bft) O-NO 78 ° 0 min 0,000 mm 0,0 UV-I 0 W/m² 2,7 °C 3,9 °C 4,8 km/h (1 Bft)
11.04.2019 23:55 3,9 °C 92 % 1016,4 hPa 0,0 mm 1,9 km/h (1 Bft) O-NO 73 ° 0 min 0,000 mm 0,0 UV-I 0 W/m² 2,7 °C 3,9 °C 4,8 km/h (1 Bft)
11.04.2019 23:56 3,9 °C 92 % 1016,4 hPa 0,0 mm 0,7 km/h (0 Bft) O 80 ° 0 min 0,000 mm 0,0 UV-I 0 W/m² 2,7 °C 3,9 °C 1,6 km/h (1 Bft)
11.04.2019 23:57 3,9 °C 92 % 1016,4 hPa 0,0 mm 0,9 km/h (0 Bft) O-NO 75 ° 0 min 0,000 mm 0,0 UV-I 0 W/m² 2,7 °C 3,9 °C 3,2 km/h (1 Bft)
11.04.2019 23:58 3,9 °C 92 % 1016,4 hPa 0,0 mm 0,0 km/h (0 Bft) O-NO 75 ° 0 min 0,000 mm 0,0 UV-I 0 W/m² 2,7 °C 3,9 °C 0,0 km/h (0 Bft)
11.04.2019 23:59 3,9 °C 92 % 1016,3 hPa 0,0 mm 0,1 km/h (0 Bft) O 80 ° 0 min 0,000 mm 0,0 UV-I 0 W/m² 2,7 °C 3,9 °C 1,6 km/h (1 Bft)
_ Min-Zeit 14:13 18:00 03:16 - 23:58 - - - - - - 13:41 13:39 23:58
Minimum _ 3,1 °C 90 % 1010,2 hPa - 0,0 km/h (0 Bft) - - - - - - 2,2 °C 1,0 °C 0,0 km/h (0 Bft)
_ Max-Zeit 00:03 15:58 23:58 01:24 01:24 - - 23:59 17:01 16:50 16:41 00:03 00:02 01:24
Maximum _ 6,5 °C 95 % 1016,4 hPa 0,2 mm 13,6 km/h
NO (3 Bft)
- - 0 min 0,076 mm 1,2 UV-I 220 W/m² 5,8 °C 6,5 °C 20,9 km/h
O (4 Bft)
Durchschnitt _ 4,7 °C 94 % 1013,3 hPa #0,2 mm 2,3 km/h (1 Bft) O-NO - #0 min. #0,279 mm 0,6 UV-I 32 W/m² 3,8 °C 4,4 °C 4,2 km/h (1 Bft)